[[{"header":{"parameterUnit":"m.s-1","parameterCategory":1,"la1":31.0,"la2":29.5877,"lo1":-88.7671,"lo2":-86.6584,"dy":0.0162,"dx":0.0185,"nx":115,"ny":88,"refTime":"2023-05-08T12:00:00:Z","depth":0,"parameterNumber":2,"parameterNumberName":"U-component_of_WINDS"},"data":[0.0,0.0,0.0,0.0,0.0,0.0,0.0,0.0,0.0,0.0,0.0,0.0,0.0,0.0,0.0,0.0,0.0,0.0,0.0,0.0,0.0,0.0,0.0,0.0,0.0,0.0,0.0,0.0,0.0,0.0,0.0,0.0,0.0,0.0,0.0,0.0,0.0,0.0,0.0,0.0,0.0,0.0,0.0,0.0,0.0,0.0,0.0,0.0,0.0,0.0,0.0,0.0,0.0,0.0,0.0,0.0,0.0,0.0,0.0,0.0,0.0,0.0,0.0,0.0,0.0,0.0,0.0,0.0,0.0,0.0,0.0,0.0,0.0,0.0,0.0,0.0,0.0,0.0,0.0,0.0,0.0,0.0,0.0,0.0,0.0,0.0,0.0,0.0,0.0,0.0,0.0,0.0,0.0,0.0,0.0,0.0,0.0,0.0,0.0,0.0,0.0,0.0,0.0,0.0,0.0,0.0,0.0,0.0,0.0,0.0,0.0,0.0,0.0,0.0,0.0,0.0,0.0,0.0,0.0,0.0,0.0,0.0,0.0,0.0,0.0,0.0,0.0,0.0,0.0,0.0,0.0,0.0,0.0,0.0,0.0,0.0,0.0,0.0,0.0,0.0,0.0,0.0,0.0,0.0,0.0,0.0,0.0,0.0,0.0,0.0,0.0,0.0,0.0,0.0,0.0,0.0,0.0,0.0,0.0,0.0,0.0,0.0,0.0,0.0,0.0,0.0,0.0,0.0,0.0,0.0,0.0,0.0,0.0,0.0,0.0,0.0,0.0,0.0,0.0,0.0,0.0,0.0,0.0,0.0,0.0,0.0,0.0,0.0,0.0,0.0,0.0,0.0,0.0,0.0,0.0,0.0,0.0,0.0,0.0,0.0,0.0,0.0,0.0,0.0,0.0,0.0,0.0,0.0,0.0,0.0,0.0,0.0,0.0,0.0,0.0,0.0,0.0,0.0,0.0,0.0,0.0,0.0,0.0,0.0,0.0,0.0,0.0,0.0,0.0,0.0,0.0,0.0,0.0,0.0,0.0,0.0,0.0,0.0,0.0,0.0,0.0,0.0,0.0,0.0,0.0,0.0,0.0,0.0,0.0,0.0,0.0,0.0,0.0,0.0,0.0,0.0,0.0,0.0,0.0,0.0,0.0,0.0,0.0,0.0,0.0,0.0,0.0,0.0,0.0,0.0,0.0,0.0,0.0,0.0,0.0,0.0,0.0,0.0,0.0,0.0,0.0,0.0,0.0,0.0,0.0,0.0,0.0,0.0,0.0,0.0,0.0,0.0,0.0,0.0,0.0,0.0,0.0,0.0,0.0,0.0,0.0,0.0,0.0,0.0,0.0,0.0,0.0,0.0,0.0,0.0,0.0,0.0,0.0,0.0,0.0,0.0,0.0,0.0,0.0,0.0,0.0,0.0,0.0,0.0,0.0,0.0,0.0,0.0,0.0,0.0,0.0,0.0,0.0,0.0,0.0,0.0,0.0,0.0,0.0,0.0,0.0,0.0,0.0,0.0,0.0,0.0,0.0,0.0,0.0,0.0,0.0,0.0,0.0,0.0,0.0,0.0,0.0,0.0,0.0,0.0,0.0,0.0,0.0,0.0,0.0,0.0,0.0,0.0,0.0,0.0,0.0,0.0,0.0,0.0,0.0,0.0,0.0,0.0,0.0,0.0,0.0,0.0,0.0,0.0,0.0,0.0,0.0,0.0,0.0,0.0,0.0,0.0,0.0,0.0,0.0,0.0,0.0,0.0,0.0,0.0,0.0,0.0,0.0,0.0,0.0,0.0,0.0,0.0,0.0,0.0,0.0,0.0,0.0,0.0,0.0,0.0,0.0,0.0,0.0,0.0,0.0,0.0,0.0,0.0,0.0,0.0,0.0,0.0,0.0,0.0,0.0,0.0,0.0,0.0,0.0,0.0,0.0,0.0,0.0,0.0,0.0,0.0,0.0,0.0,0.0,0.0,0.0,0.0,0.0,0.0,0.0,0.0,0.0,0.0,0.0,0.0,0.0,0.0,0.0,0.0,0.0,0.0,0.0,0.0,0.0,0.0,0.0,0.0,0.0,0.0,0.0,0.0,0.0,0.0,0.0,0.0,0.0,0.0,0.0,0.0,0.0,0.0,0.0,0.0,0.0,0.0,0.0,0.0,0.0,0.0,0.0,0.0,0.0,0.0,0.0,0.0,0.0,0.0,0.0,0.0,0.0,0.0,0.0,0.0,0.0,0.0,0.0,0.0,0.0,0.0,0.0,0.0,0.0,0.0,0.0,0.0,0.0,0.0,0.0,0.0,0.0,0.0,0.0,0.0,0.0,0.0,0.0,0.0,0.0,0.0,0.0,0.0,0.0,0.0,0.0,0.0,0.0,0.0,0.0,0.0,0.0,0.0,0.0,0.0,0.0,0.0,0.0,0.0,0.0,0.0,0.0,0.0,0.0,0.0,0.0,0.0,0.0,0.0,0.0,0.0,0.0,0.0,0.0,0.0,0.0,0.0,0.0,0.0,0.0,0.0,0.0,0.0,0.0,0.0,0.0,0.0,0.0,0.0,0.0,0.0,0.0,0.0,0.0,0.0,0.0,0.0,0.0,0.0,0.0,0.0,0.0,0.0,0.0,0.0,0.0,0.0,0.0,0.0,0.0,0.0,0.0,0.0,0.0,0.0,0.0,0.0,0.0,0.0,0.0,0.0,0.0,0.0,0.0,0.0,0.0,0.0,0.0,0.0,0.0,0.0,0.0,0.0,0.0,0.0,0.0,0.0,0.0,0.0,0.0,0.0,0.0,0.0,0.0,0.0,0.0,0.0,0.0,0.0,0.0,0.0,0.0,0.0,0.0,0.0,0.0,0.0,0.0,0.0,0.0,0.0,0.0,0.0,0.0,0.0,0.0,0.0,0.0,0.0,0.0,0.0,0.0,0.0,0.0,0.0,0.0,0.0,0.0,0.0,0.0,0.0,0.0,0.0,0.0,0.0,0.0,0.0,0.0,0.0,0.0,0.0,0.0,0.0,0.0,0.0,0.0,0.0,0.0,0.0,0.0,0.0,0.0,0.0,0.0,0.0,0.0,0.0,0.0,0.0,0.0,0.0,0.0,0.0,0.0,0.0,0.0,0.0,0.0,0.0,0.0,0.0,0.0,0.0,0.0,0.0,0.0,0.0,0.0,0.0,0.0,0.0,0.0,0.0,0.0,0.0,0.0,0.0,0.0,0.0,0.0,0.0,0.0,0.0,0.0,0.0,0.0,0.0,0.0,0.0,0.0,0.0,0.0,0.0,0.0,0.0,0.0,0.0,0.0,0.0,0.0,0.0,0.0,0.0,0.0,0.0,0.0,0.0,0.0,0.0,0.0,0.0,0.0,0.0,0.0,0.0,0.0,0.0,0.0,0.0,0.0,0.0,0.0,0.0,0.0,0.0,0.0,0.0,0.0,0.0,0.0,0.0,0.0,0.0,0.0,0.0,0.0,0.0,0.0,0.0,0.0,0.0,0.0,0.0,0.0,0.0,0.0,0.0,0.0,0.0,0.0,0.0,0.0,0.0,0.0,0.0,0.0,0.0,0.0,0.0,0.0,0.0,0.0,0.0,0.0,0.0,0.0,0.0,0.0,0.0,0.0,0.0,0.0,0.0,0.0,0.0,0.0,0.0,0.0,0.0,0.0,0.0,0.0,0.0,0.0,0.0,0.0,0.0,0.0,0.0,0.0,0.0,0.0,0.0,0.0,0.0,0.0,0.0,0.0,0.0,0.0,0.0,0.0,0.0,0.0,0.0,0.0,0.0,0.0,0.0,0.0,0.0,0.0,0.0,0.0,0.0,0.0,0.0,0.0,0.0,0.0,0.0,0.0,0.0,0.0,0.0,0.0,0.0,0.0,0.0,0.0,0.0,0.0,0.0,0.0,0.0,0.0,0.0,0.0,0.0,0.0,0.0,0.0,0.0,0.0,0.0,0.0,0.0,0.0,0.0,0.0,0.0,0.0,0.0,0.0,0.0,0.0,0.0,0.0,0.0,0.0,0.0,0.0,0.0,0.0,0.0,0.0,0.0,0.0,0.0,0.0,0.0,0.0,0.0,0.0,0.0,0.0,0.0,0.0,0.0,0.0,0.0,0.0,0.0,0.0,0.0,0.0,0.0,0.0,0.0,0.0,0.0,0.0,0.0,0.0,0.0,0.0,0.0,0.0,0.0,0.0,0.0,0.0,0.0,0.0,0.0,0.0,0.0,0.0,0.0,0.0,0.0,0.0,0.0,-3.0772,0.0,0.0,0.0,-3.0097,0.0,0.0,0.0,0.0,0.0,0.0,0.0,0.0,0.0,0.0,0.0,0.0,0.0,0.0,0.0,0.0,0.0,0.0,0.0,0.0,0.0,0.0,0.0,0.0,0.0,0.0,0.0,0.0,0.0,0.0,0.0,0.0,0.0,0.0,0.0,0.0,0.0,0.0,0.0,0.0,0.0,0.0,0.0,0.0,0.0,0.0,0.0,0.0,0.0,0.0,0.0,0.0,0.0,0.0,0.0,0.0,0.0,0.0,0.0,0.0,0.0,0.0,0.0,0.0,0.0,0.0,0.0,0.0,0.0,0.0,0.0,0.0,0.0,0.0,0.0,0.0,0.0,0.0,0.0,0.0,0.0,0.0,0.0,0.0,0.0,0.0,0.0,0.0,0.0,0.0,0.0,0.0,0.0,0.0,0.0,0.0,0.0,0.0,0.0,0.0,0.0,0.0,0.0,0.0,0.0,0.0,0.0,0.0,0.0,0.0,-3.0755,-3.0641,-3.051,-3.0308,-3.0049,0.0,0.0,0.0,0.0,0.0,0.0,0.0,0.0,0.0,0.0,0.0,0.0,0.0,0.0,0.0,0.0,0.0,0.0,0.0,0.0,0.0,0.0,0.0,0.0,0.0,0.0,0.0,0.0,0.0,0.0,0.0,0.0,0.0,0.0,0.0,0.0,0.0,0.0,0.0,0.0,0.0,0.0,0.0,0.0,0.0,0.0,0.0,0.0,0.0,0.0,0.0,0.0,0.0,0.0,0.0,0.0,0.0,0.0,0.0,0.0,0.0,0.0,0.0,0.0,0.0,0.0,0.0,0.0,0.0,0.0,0.0,0.0,0.0,0.0,0.0,0.0,0.0,0.0,0.0,0.0,0.0,0.0,0.0,0.0,0.0,0.0,0.0,0.0,0.0,0.0,0.0,0.0,0.0,0.0,0.0,0.0,0.0,0.0,0.0,0.0,0.0,0.0,0.0,0.0,0.0,0.0,0.0,0.0,0.0,0.0,0.0,0.0,-3.1057,-3.0739,-3.0239,0.0,0.0,0.0,0.0,0.0,0.0,0.0,0.0,0.0,0.0,0.0,0.0,0.0,0.0,0.0,0.0,0.0,0.0,0.0,0.0,0.0,0.0,0.0,0.0,0.0,0.0,0.0,0.0,0.0,0.0,0.0,0.0,0.0,0.0,0.0,0.0,0.0,0.0,0.0,0.0,0.0,0.0,0.0,0.0,0.0,0.0,0.0,0.0,0.0,0.0,0.0,0.0,0.0,0.0,0.0,0.0,0.0,0.0,0.0,0.0,0.0,0.0,0.0,0.0,0.0,0.0,0.0,0.0,0.0,0.0,0.0,0.0,0.0,0.0,0.0,0.0,0.0,0.0,0.0,0.0,0.0,0.0,0.0,0.0,0.0,0.0,0.0,0.0,0.0,0.0,0.0,0.0,0.0,0.0,0.0,0.0,0.0,0.0,0.0,0.0,0.0,0.0,0.0,0.0,0.0,0.0,0.0,0.0,0.0,0.0,-3.2297,-3.2932,-3.2808,0.0,-3.0963,0.0,0.0,0.0,0.0,0.0,0.0,0.0,0.0,0.0,0.0,0.0,0.0,0.0,0.0,0.0,0.0,0.0,0.0,0.0,0.0,0.0,0.0,0.0,0.0,0.0,0.0,0.0,0.0,0.0,0.0,0.0,0.0,0.0,0.0,0.0,0.0,0.0,0.0,0.0,0.0,0.0,0.0,0.0,0.0,0.0,0.0,0.0,0.0,0.0,0.0,0.0,0.0,0.0,0.0,0.0,0.0,0.0,0.0,0.0,0.0,0.0,0.0,0.0,0.0,0.0,0.0,0.0,0.0,0.0,0.0,0.0,0.0,0.0,0.0,0.0,0.0,0.0,0.0,0.0,0.0,0.0,0.0,0.0,0.0,0.0,0.0,0.0,0.0,0.0,0.0,0.0,0.0,0.0,0.0,0.0,0.0,0.0,0.0,0.0,0.0,0.0,0.0,0.0,0.0,0.0,0.0,0.0,0.0,0.0,0.0,-3.2959,-3.3207,-3.2461,-3.1725,0.0,0.0,0.0,0.0,0.0,0.0,0.0,0.0,0.0,0.0,0.0,0.0,0.0,0.0,0.0,0.0,0.0,0.0,0.0,0.0,0.0,0.0,0.0,0.0,0.0,0.0,0.0,0.0,0.0,0.0,0.0,0.0,0.0,0.0,0.0,0.0,0.0,0.0,0.0,0.0,0.0,0.0,0.0,0.0,0.0,0.0,0.0,0.0,0.0,0.0,0.0,0.0,0.0,0.0,0.0,0.0,0.0,0.0,0.0,0.0,0.0,0.0,0.0,0.0,0.0,0.0,0.0,0.0,0.0,0.0,0.0,0.0,0.0,0.0,0.0,0.0,0.0,0.0,0.0,0.0,0.0,0.0,0.0,0.0,0.0,0.0,0.0,0.0,0.0,0.0,0.0,0.0,0.0,0.0,0.0,0.0,0.0,0.0,0.0,0.0,0.0,0.0,0.0,0.0,0.0,0.0,0.0,0.0,0.0,0.0,-3.329,-3.376,-3.3777,-3.2686,-3.1846,-3.1381,0.0,0.0,0.0,0.0,0.0,0.0,0.0,0.0,0.0,0.0,0.0,0.0,0.0,0.0,0.0,0.0,0.0,0.0,0.0,0.0,0.0,0.0,0.0,0.0,0.0,0.0,0.0,0.0,0.0,0.0,0.0,0.0,0.0,0.0,0.0,0.0,0.0,0.0,0.0,0.0,0.0,0.0,0.0,0.0,0.0,0.0,0.0,0.0,0.0,0.0,0.0,0.0,0.0,0.0,0.0,0.0,0.0,0.0,0.0,0.0,0.0,0.0,0.0,0.0,0.0,0.0,0.0,0.0,0.0,0.0,0.0,0.0,0.0,0.0,0.0,0.0,0.0,0.0,0.0,0.0,0.0,0.0,0.0,0.0,0.0,0.0,0.0,0.0,0.0,0.0,0.0,0.0,0.0,0.0,0.0,0.0,0.0,0.0,0.0,0.0,0.0,0.0,0.0,0.0,0.0,0.0,0.0,0.0,-3.3333,-3.415,-3.4821,-3.5334,-3.4368,-3.3299,0.0,0.0,0.0,0.0,0.0,0.0,0.0,0.0,0.0,0.0,0.0,0.0,0.0,0.0,0.0,0.0,0.0,0.0,0.0,0.0,0.0,0.0,0.0,0.0,0.0,0.0,0.0,0.0,0.0,0.0,0.0,0.0,0.0,0.0,0.0,0.0,0.0,0.0,0.0,0.0,0.0,0.0,0.0,0.0,0.0,0.0,0.0,0.0,0.0,0.0,0.0,0.0,0.0,0.0,0.0,0.0,0.0,0.0,0.0,0.0,0.0,0.0,0.0,0.0,0.0,0.0,0.0,0.0,0.0,0.0,0.0,0.0,0.0,0.0,0.0,0.0,0.0,0.0,0.0,0.0,0.0,0.0,0.0,0.0,0.0,0.0,0.0,0.0,0.0,0.0,0.0,0.0,0.0,0.0,0.0,0.0,0.0,0.0,0.0,0.0,0.0,0.0,0.0,0.0,0.0,0.0,0.0,0.0,0.0,-3.4212,-3.4985,-3.5441,-3.5538,-3.4491,-3.3394,0.0,0.0,0.0,0.0,0.0,0.0,0.0,0.0,0.0,0.0,0.0,0.0,0.0,0.0,0.0,0.0,0.0,0.0,0.0,0.0,0.0,0.0,0.0,0.0,0.0,0.0,0.0,0.0,0.0,0.0,0.0,0.0,0.0,0.0,0.0,0.0,0.0,0.0,0.0,0.0,0.0,0.0,0.0,0.0,0.0,0.0,0.0,0.0,0.0,0.0,0.0,0.0,0.0,0.0,0.0,0.0,0.0,0.0,0.0,0.0,0.0,0.0,0.0,0.0,0.0,0.0,0.0,0.0,0.0,0.0,0.0,0.0,0.0,0.0,0.0,0.0,0.0,0.0,0.0,0.0,0.0,0.0,0.0,0.0,0.0,0.0,0.0,0.0,0.0,0.0,0.0,0.0,0.0,0.0,0.0,0.0,0.0,0.0,0.0,0.0,0.0,0.0,0.0,0.0,0.0,0.0,0.0,0.0,0.0,-3.5477,0.0,-3.6153,-3.6019,-3.5203,-3.3971,0.0,0.0,0.0,0.0,0.0,0.0,0.0,0.0,0.0,0.0,0.0,0.0,0.0,0.0,0.0,0.0,0.0,0.0,0.0,0.0,0.0,0.0,0.0,0.0,0.0,0.0,0.0,0.0,0.0,0.0,0.0,0.0,0.0,0.0,0.0,0.0,0.0,0.0,0.0,0.0,0.0,0.0,0.0,0.0,0.0,0.0,0.0,0.0,0.0,0.0,0.0,0.0,0.0,0.0,0.0,0.0,0.0,0.0,0.0,0.0,0.0,0.0,0.0,0.0,0.0,0.0,0.0,0.0,0.0,0.0,0.0,0.0,0.0,0.0,0.0,0.0,0.0,0.0,0.0,0.0,0.0,0.0,0.0,0.0,0.0,0.0,0.0,0.0,0.0,0.0,0.0,0.0,0.0,0.0,0.0,0.0,0.0,0.0,0.0,0.0,0.0,0.0,0.0,0.0,0.0,0.0,0.0,0.0,-3.4699,-3.7126,-3.7155,-3.7046,-3.69,-3.6589,-3.5168,0.0,0.0,0.0,0.0,0.0,0.0,0.0,0.0,0.0,0.0,0.0,0.0,0.0,0.0,0.0,0.0,0.0,0.0,0.0,0.0,0.0,0.0,0.0,0.0,0.0,0.0,0.0,0.0,0.0,0.0,0.0,0.0,0.0,0.0,0.0,0.0,0.0,0.0,0.0,0.0,0.0,0.0,0.0,0.0,0.0,0.0,0.0,0.0,0.0,0.0,0.0,0.0,0.0,0.0,0.0,0.0,0.0,0.0,0.0,0.0,0.0,0.0,0.0,0.0,0.0,0.0,0.0,0.0,0.0,0.0,0.0,0.0,0.0,0.0,0.0,0.0,0.0,0.0,0.0,0.0,0.0,0.0,0.0,0.0,0.0,0.0,0.0,0.0,0.0,0.0,0.0,0.0,0.0,0.0,0.0,0.0,0.0,0.0,0.0,0.0,0.0,0.0,0.0,0.0,0.0,0.0,0.0,0.0,0.0,-3.7204,-3.7731,-3.7926,-3.7774,-3.6951,-3.5733,0.0,0.0,0.0,0.0,0.0,0.0,0.0,0.0,0.0,0.0,0.0,0.0,0.0,0.0,0.0,0.0,0.0,0.0,0.0,0.0,0.0,0.0,0.0,0.0,0.0,0.0,0.0,0.0,0.0,0.0,0.0,0.0,0.0,0.0,0.0,0.0,0.0,0.0,0.0,0.0,0.0,0.0,0.0,0.0,0.0,0.0,0.0,0.0,0.0,0.0,0.0,0.0,0.0,0.0,0.0,0.0,0.0,0.0,0.0,0.0,0.0,0.0,0.0,0.0,0.0,0.0,0.0,0.0,0.0,0.0,0.0,0.0,0.0,0.0,0.0,0.0,0.0,0.0,0.0,0.0,0.0,0.0,0.0,0.0,0.0,0.0,0.0,0.0,0.0,0.0,0.0,0.0,0.0,0.0,0.0,0.0,0.0,0.0,0.0,0.0,0.0,0.0,0.0,0.0,0.0,0.0,0.0,0.0,0.0,-3.8647,-3.9118,-3.9159,-3.8701,-3.7917,-3.669,-3.4945,0.0,0.0,0.0,0.0,0.0,0.0,0.0,0.0,0.0,0.0,0.0,0.0,0.0,0.0,0.0,0.0,0.0,0.0,0.0,0.0,0.0,0.0,0.0,0.0,0.0,0.0,0.0,0.0,0.0,0.0,0.0,0.0,0.0,0.0,0.0,0.0,0.0,0.0,0.0,0.0,0.0,0.0,0.0,0.0,0.0,0.0,0.0,0.0,0.0,0.0,0.0,0.0,0.0,0.0,0.0,0.0,0.0,0.0,0.0,0.0,0.0,0.0,0.0,0.0,0.0,0.0,0.0,0.0,0.0,0.0,0.0,0.0,0.0,0.0,0.0,0.0,0.0,0.0,0.0,0.0,0.0,0.0,0.0,0.0,0.0,0.0,0.0,0.0,0.0,0.0,0.0,0.0,0.0,0.0,0.0,0.0,0.0,0.0,0.0,0.0,0.0,0.0,0.0,0.0,0.0,0.0,0.0,0.0,-4.1145,-4.1201,-4.0773,-3.9796,-3.9443,-3.7964,0.0,0.0,0.0,0.0,0.0,0.0,0.0,0.0,0.0,0.0,0.0,0.0,0.0,0.0,0.0,0.0,0.0,0.0,0.0,0.0,0.0,0.0,0.0,0.0,0.0,0.0,0.0,0.0,0.0,0.0,0.0,0.0,0.0,0.0,0.0,0.0,0.0,0.0,0.0,0.0,0.0,0.0,0.0,0.0,0.0,0.0,0.0,0.0,0.0,0.0,0.0,0.0,0.0,0.0,0.0,0.0,0.0,0.0,0.0,0.0,0.0,0.0,0.0,0.0,0.0,0.0,0.0,0.0,0.0,0.0,0.0,0.0,0.0,0.0,0.0,0.0,0.0,0.0,0.0,0.0,0.0,0.0,0.0,0.0,0.0,0.0,0.0,0.0,0.0,0.0,0.0,0.0,0.0,0.0,0.0,0.0,0.0,0.0,0.0,0.0,0.0,0.0,0.0,0.0,0.0,0.0,0.0,0.0,0.0,-4.2023,-4.3259,-4.3389,-4.2391,-4.0951,-3.9453,0.0,0.0,0.0,0.0,0.0,0.0,0.0,0.0,0.0,0.0,0.0,0.0,0.0,0.0,0.0,0.0,0.0,0.0,0.0,0.0,0.0,0.0,0.0,0.0,0.0,0.0,0.0,0.0,0.0,0.0,0.0,0.0,0.0,0.0,0.0,0.0,0.0,0.0,0.0,0.0,0.0,0.0,0.0,0.0,0.0,0.0,0.0,0.0,0.0,0.0,0.0,0.0,0.0,0.0,0.0,0.0,0.0,0.0,0.0,0.0,0.0,0.0,0.0,0.0,0.0,0.0,0.0,0.0,0.0,0.0,0.0,0.0,0.0,0.0,0.0,0.0,0.0,0.0,0.0,0.0,0.0,0.0,0.0,0.0,0.0,0.0,0.0,0.0,0.0,0.0,0.0,0.0,0.0,0.0,0.0,0.0,0.0,0.0,0.0,0.0,0.0,0.0,0.0,0.0,0.0,0.0,0.0,0.0,-4.1217,-4.2921,-4.4217,-4.4767,-4.4485,-4.2247,-4.0377,0.0,0.0,0.0,0.0,0.0,0.0,0.0,0.0,0.0,0.0,0.0,0.0,0.0,0.0,0.0,0.0,0.0,0.0,0.0,0.0,0.0,0.0,0.0,0.0,0.0,0.0,0.0,0.0,0.0,0.0,0.0,0.0,0.0,0.0,0.0,0.0,0.0,0.0,0.0,0.0,0.0,0.0,0.0,0.0,0.0,0.0,0.0,0.0,0.0,0.0,0.0,0.0,0.0,0.0,0.0,0.0,0.0,0.0,0.0,0.0,0.0,0.0,0.0,0.0,0.0,0.0,0.0,0.0,0.0,0.0,0.0,0.0,0.0,0.0,0.0,0.0,0.0,0.0,0.0,0.0,0.0,0.0,0.0,0.0,0.0,0.0,0.0,0.0,0.0,0.0,0.0,0.0,0.0,0.0,0.0,0.0,0.0,0.0,0.0,0.0,0.0,0.0,0.0,0.0,0.0,0.0,0.0,0.0,-4.2056,-4.3661,-4.4646,-4.5433,-4.5905,-4.3369,-4.1085,0.0,0.0,0.0,0.0,0.0,0.0,0.0,0.0,0.0,0.0,0.0,0.0,0.0,0.0,0.0,0.0,0.0,0.0,0.0,0.0,0.0,0.0,0.0,0.0,0.0,0.0,0.0,0.0,0.0,0.0,0.0,0.0,0.0,0.0,0.0,0.0,0.0,0.0,0.0,0.0,0.0,0.0,0.0,0.0,0.0,0.0,0.0,0.0,0.0,0.0,0.0,0.0,0.0,0.0,0.0,0.0,0.0,0.0,0.0,0.0,0.0,0.0,0.0,0.0,0.0,0.0,0.0,0.0,0.0,0.0,0.0,0.0,0.0,0.0,0.0,0.0,0.0,0.0,0.0,0.0,0.0,0.0,0.0,0.0,0.0,0.0,0.0,0.0,0.0,0.0,0.0,0.0,0.0,0.0,0.0,0.0,0.0,0.0,0.0,0.0,0.0,0.0,0.0,0.0,0.0,0.0,0.0,0.0,-4.2638,-4.37,-4.5757,-4.6582,-4.6002,-4.3982,-4.229,0.0,0.0,0.0,0.0,0.0,0.0,0.0,0.0,0.0,0.0,0.0,0.0,0.0,0.0,0.0,0.0,0.0,0.0,0.0,0.0,0.0,0.0,0.0,0.0,0.0,0.0,0.0,0.0,0.0,0.0,0.0,0.0,0.0,0.0,0.0,0.0,0.0,0.0,0.0,0.0,0.0,0.0,0.0,0.0,0.0,0.0,0.0,0.0,-3.9388,0.0,0.0,0.0,0.0,0.0,0.0,0.0,0.0,0.0,0.0,0.0,0.0,0.0,0.0,0.0,0.0,0.0,0.0,0.0,0.0,0.0,0.0,0.0,0.0,0.0,0.0,0.0,0.0,0.0,0.0,0.0,0.0,0.0,0.0,0.0,0.0,0.0,0.0,0.0,0.0,0.0,0.0,0.0,0.0,0.0,0.0,0.0,0.0,0.0,0.0,0.0,0.0,0.0,0.0,0.0,0.0,0.0,0.0,0.0,-4.3241,-4.3739,-4.6108,-4.6952,-4.6021,-4.5331,-4.3909,0.0,0.0,0.0,0.0,0.0,0.0,0.0,0.0,0.0,0.0,0.0,0.0,0.0,0.0,0.0,0.0,0.0,0.0,0.0,0.0,0.0,0.0,0.0,0.0,0.0,0.0,0.0,0.0,0.0,0.0,0.0,0.0,0.0,0.0,0.0,0.0,0.0,0.0,0.0,0.0,0.0,0.0,0.0,0.0,0.0,0.0,0.0,0.0,0.0,0.0,0.0,0.0,0.0,0.0,0.0,0.0,0.0,0.0,0.0,0.0,0.0,0.0,0.0,0.0,0.0,0.0,0.0,0.0,0.0,0.0,0.0,0.0,0.0,0.0,0.0,0.0,0.0,0.0,0.0,0.0,0.0,0.0,0.0,0.0,0.0,0.0,0.0,0.0,0.0,0.0,0.0,0.0,0.0,0.0,0.0,0.0,0.0,0.0,0.0,0.0,0.0,0.0,0.0,0.0,0.0,0.0,0.0,-4.2039,-4.3769,-4.3975,-4.6209,-4.6975,-4.6046,-4.6655,-4.5375,-4.1949,0.0,0.0,0.0,0.0,0.0,0.0,0.0,0.0,0.0,0.0,0.0,0.0,0.0,0.0,0.0,0.0,0.0,0.0,0.0,0.0,0.0,0.0,0.0,0.0,0.0,0.0,0.0,0.0,0.0,0.0,0.0,0.0,0.0,0.0,0.0,0.0,0.0,0.0,-3.7987,-3.8665,0.0,0.0,0.0,0.0,0.0,0.0,0.0,0.0,-4.2374,0.0,0.0,0.0,0.0,0.0,0.0,0.0,0.0,0.0,0.0,0.0,0.0,0.0,0.0,0.0,0.0,0.0,0.0,0.0,0.0,0.0,0.0,0.0,0.0,0.0,0.0,0.0,0.0,0.0,0.0,0.0,0.0,0.0,0.0,0.0,0.0,0.0,0.0,0.0,0.0,0.0,0.0,0.0,0.0,0.0,0.0,0.0,0.0,0.0,0.0,0.0,0.0,0.0,0.0,0.0,0.0,-3.9682,-4.2328,-4.404,-4.4785,-4.6557,-4.6999,-4.6071,-4.67,-4.5731,-4.2883,0.0,0.0,0.0,0.0,0.0,0.0,0.0,0.0,0.0,0.0,0.0,0.0,0.0,0.0,0.0,0.0,0.0,0.0,0.0,0.0,0.0,0.0,0.0,0.0,0.0,0.0,0.0,0.0,0.0,0.0,0.0,0.0,0.0,0.0,0.0,0.0,0.0,0.0,0.0,-4.1571,-4.1967,0.0,0.0,0.0,0.0,0.0,0.0,0.0,0.0,-4.4163,0.0,0.0,0.0,0.0,0.0,0.0,0.0,0.0,0.0,0.0,0.0,0.0,0.0,0.0,0.0,0.0,0.0,0.0,0.0,0.0,0.0,0.0,0.0,0.0,0.0,0.0,0.0,0.0,0.0,0.0,0.0,0.0,0.0,0.0,0.0,0.0,0.0,0.0,0.0,0.0,0.0,0.0,0.0,0.0,0.0,0.0,0.0,0.0,0.0,0.0,0.0,0.0,0.0,0.0,0.0,-4.0013,-4.2838,-4.459,-4.5042,-4.6618,-4.7026,-4.6099,-4.6769,-4.5856,0.0,0.0,0.0,0.0,0.0,0.0,0.0,0.0,0.0,0.0,0.0,0.0,0.0,0.0,0.0,0.0,0.0,0.0,0.0,0.0,0.0,0.0,0.0,0.0,0.0,0.0,0.0,0.0,0.0,0.0,0.0,0.0,0.0,0.0,0.0,0.0,0.0,0.0,0.0,0.0,-4.3253,-4.3506,-4.509,0.0,0.0,0.0,0.0,0.0,0.0,-4.5637,-4.5094,0.0,0.0,0.0,0.0,0.0,0.0,0.0,0.0,0.0,0.0,0.0,0.0,0.0,0.0,0.0,0.0,0.0,0.0,0.0,0.0,0.0,0.0,0.0,0.0,0.0,0.0,0.0,0.0,0.0,0.0,0.0,0.0,0.0,0.0,0.0,0.0,0.0,0.0,0.0,0.0,0.0,0.0,0.0,0.0,0.0,0.0,0.0,0.0,0.0,0.0,0.0,0.0,0.0,0.0,0.0,-4.0502,-4.3447,-4.5103,-4.5298,-4.657,-4.6888,-4.6145,-4.6496,-4.559,0.0,0.0,0.0,0.0,0.0,0.0,0.0,0.0,0.0,0.0,0.0,0.0,0.0,0.0,0.0,0.0,0.0,0.0,0.0,0.0,0.0,0.0,0.0,0.0,0.0,0.0,0.0,0.0,0.0,0.0,0.0,0.0,0.0,0.0,0.0,0.0,0.0,0.0,0.0,0.0,0.0,-4.4628,-4.7037,-4.5906,0.0,0.0,0.0,0.0,-4.6303,-4.6464,0.0,0.0,0.0,0.0,0.0,0.0,0.0,0.0,0.0,0.0,0.0,0.0,0.0,0.0,0.0,0.0,0.0,0.0,0.0,0.0,0.0,0.0,0.0,0.0,0.0,0.0,0.0,0.0,0.0,0.0,0.0,0.0,0.0,0.0,0.0,0.0,0.0,0.0,0.0,0.0,0.0,0.0,0.0,0.0,0.0,0.0,0.0,0.0,0.0,0.0,0.0,0.0,0.0,0.0,0.0,0.0,-4.2103,-4.4016,-4.5383,-4.6105,-4.6344,-4.6326,-4.6107,-4.5375,-4.4414,0.0,0.0,0.0,0.0,0.0,0.0,0.0,0.0,0.0,0.0,0.0,0.0,0.0,0.0,0.0,0.0,0.0,0.0,0.0,0.0,0.0,0.0,0.0,0.0,0.0,0.0,0.0,0.0,0.0,0.0,0.0,0.0,0.0,0.0,0.0,0.0,0.0,0.0,0.0,0.0,0.0,-4.5445,-4.7828,-4.6728,-4.5921,0.0,0.0,-4.729,-4.8066,-4.8875,0.0,0.0,0.0,0.0,0.0,0.0,0.0,0.0,0.0,0.0,0.0,0.0,0.0,0.0,0.0,0.0,0.0,0.0,0.0,0.0,0.0,0.0,0.0,0.0,0.0,0.0,0.0,0.0,0.0,0.0,0.0,0.0,0.0,0.0,0.0,0.0,0.0,0.0,0.0,0.0,0.0,0.0,0.0,0.0,0.0,0.0,0.0,0.0,0.0,0.0,0.0,0.0,0.0,0.0,0.0,-4.1148,-4.2435,-4.4585,-4.5933,-4.6285,-4.6783,-4.6999,-4.6908,-4.5533,-4.4582,0.0,0.0,0.0,0.0,0.0,0.0,0.0,0.0,0.0,0.0,0.0,0.0,0.0,0.0,0.0,0.0,0.0,0.0,0.0,0.0,0.0,0.0,0.0,0.0,0.0,0.0,0.0,0.0,0.0,0.0,0.0,0.0,0.0,0.0,0.0,0.0,0.0,0.0,0.0,0.0,0.0,0.0,-4.8197,-4.8239,0.0,0.0,0.0,-4.8682,-4.8632,0.0,0.0,0.0,0.0,0.0,0.0,0.0,0.0,0.0,0.0,0.0,0.0,0.0,0.0,0.0,0.0,0.0,0.0,0.0,0.0,0.0,0.0,0.0,0.0,0.0,0.0,0.0,0.0,0.0,0.0,0.0,0.0,0.0,0.0,0.0,0.0,0.0,0.0,0.0,0.0,0.0,0.0,0.0,0.0,0.0,0.0,0.0,0.0,0.0,0.0,0.0,0.0,0.0,0.0,0.0,0.0,0.0,-4.3061,-4.5408,-4.6717,-4.6951,-4.7572,-4.7875,-4.7805,-4.6136,0.0,0.0,0.0,0.0,0.0,0.0,0.0,0.0,0.0,0.0,0.0,0.0,0.0,0.0,0.0,0.0,0.0,0.0,0.0,0.0,0.0,0.0,0.0,0.0,0.0,0.0,0.0,-3.3275,0.0,0.0,0.0,0.0,0.0,0.0,0.0,0.0,0.0,0.0,0.0,0.0,0.0,0.0,-4.6463,-4.8328,-4.9106,-4.956,0.0,0.0,-4.9675,-4.9142,-4.919,-4.8376,0.0,0.0,0.0,0.0,0.0,0.0,0.0,0.0,0.0,0.0,0.0,0.0,0.0,0.0,0.0,0.0,0.0,0.0,0.0,0.0,0.0,0.0,0.0,0.0,0.0,0.0,0.0,0.0,0.0,0.0,0.0,0.0,0.0,0.0,0.0,0.0,0.0,0.0,0.0,0.0,0.0,0.0,0.0,0.0,0.0,0.0,0.0,0.0,0.0,0.0,0.0,0.0,0.0,0.0,-4.2335,-4.478,-4.6601,-4.789,-4.869,-4.8768,-4.8762,-4.8686,-4.7024,-4.5709,0.0,0.0,0.0,0.0,0.0,0.0,0.0,0.0,0.0,0.0,0.0,0.0,0.0,0.0,0.0,0.0,0.0,0.0,0.0,0.0,0.0,0.0,0.0,0.0,0.0,0.0,0.0,0.0,0.0,0.0,0.0,0.0,0.0,0.0,0.0,0.0,0.0,0.0,0.0,0.0,0.0,-4.5799,-4.8266,-4.8638,-4.8966,0.0,-4.9994,-5.0061,-5.0028,-5.068,-5.0077,-4.6751,0.0,0.0,0.0,0.0,0.0,0.0,0.0,0.0,0.0,0.0,0.0,0.0,0.0,0.0,0.0,0.0,0.0,0.0,0.0,0.0,0.0,0.0,0.0,0.0,0.0,0.0,0.0,0.0,0.0,0.0,0.0,0.0,0.0,0.0,0.0,0.0,0.0,0.0,0.0,0.0,0.0,0.0,0.0,0.0,0.0,0.0,0.0,0.0,0.0,0.0,0.0,0.0,0.0,-4.2395,-4.4958,-4.6718,-4.8027,-4.8867,-4.9433,-4.9433,-4.8864,-4.7707,-4.6386,0.0,0.0,0.0,0.0,0.0,0.0,0.0,0.0,0.0,0.0,0.0,0.0,0.0,0.0,0.0,0.0,0.0,0.0,0.0,0.0,0.0,0.0,0.0,0.0,0.0,0.0,0.0,0.0,-3.8,-3.8263,-3.7709,0.0,0.0,0.0,0.0,0.0,0.0,0.0,0.0,0.0,0.0,-4.586,-4.8418,-4.9254,0.0,0.0,-5.0849,-5.0719,-5.0174,-4.9961,-4.8867,-4.5956,-4.5016,0.0,0.0,0.0,0.0,0.0,0.0,0.0,0.0,0.0,0.0,0.0,0.0,0.0,0.0,0.0,0.0,0.0,0.0,0.0,0.0,0.0,0.0,0.0,0.0,0.0,0.0,0.0,0.0,0.0,0.0,0.0,0.0,0.0,0.0,0.0,0.0,0.0,0.0,0.0,0.0,0.0,0.0,0.0,0.0,0.0,0.0,0.0,0.0,0.0,0.0,0.0,0.0,-4.2417,-4.4979,-4.6718,-4.8027,-4.8887,-4.9492,-4.9512,-4.8926,-4.8065,-4.6772,0.0,0.0,0.0,0.0,0.0,0.0,0.0,0.0,0.0,0.0,0.0,0.0,0.0,0.0,0.0,0.0,0.0,0.0,0.0,0.0,0.0,0.0,0.0,0.0,0.0,0.0,0.0,0.0,-3.875,-3.8558,-3.7241,0.0,0.0,0.0,0.0,0.0,0.0,0.0,0.0,0.0,0.0,-4.5859,-4.8183,-4.9043,-4.9726,-5.0527,-5.0644,-5.043,-4.9804,-4.9021,-4.7712,-4.537,0.0,0.0,0.0,0.0,0.0,0.0,0.0,0.0,0.0,0.0,0.0,0.0,0.0,0.0,0.0,0.0,0.0,0.0,0.0,0.0,0.0,0.0,0.0,0.0,0.0,0.0,0.0,-3.3426,0.0,0.0,-3.3471,0.0,0.0,0.0,0.0,0.0,0.0,0.0,0.0,0.0,0.0,0.0,0.0,0.0,0.0,0.0,0.0,0.0,0.0,0.0,0.0,0.0,0.0,-4.246,-4.4959,-4.6699,-4.8008,-4.8848,-4.8926,-4.8926,-4.8867,-4.8047,-4.6796,-4.5052,0.0,0.0,0.0,0.0,0.0,0.0,0.0,0.0,0.0,0.0,0.0,0.0,0.0,0.0,0.0,0.0,0.0,0.0,0.0,0.0,0.0,0.0,0.0,0.0,0.0,0.0,-3.8239,-3.8381,-3.8068,0.0,0.0,0.0,0.0,0.0,0.0,0.0,0.0,0.0,-4.3476,-4.4433,-4.5625,-4.7343,-4.7635,-4.7986,-4.8843,-4.8959,-4.8938,-4.8815,-4.8132,-4.702,0.0,0.0,0.0,0.0,0.0,0.0,0.0,0.0,0.0,0.0,0.0,0.0,0.0,0.0,0.0,0.0,0.0,0.0,0.0,0.0,0.0,0.0,0.0,0.0,0.0,0.0,0.0,-3.7635,-3.7595,0.0,0.0,0.0,0.0,0.0,0.0,0.0,0.0,0.0,0.0,0.0,-4.2045,-4.2061,0.0,0.0,0.0,0.0,0.0,0.0,0.0,0.0,0.0,0.0,0.0,0.0,-4.2402,-4.4922,-4.6719,-4.8027,-4.8867,-4.8887,-4.8613,-4.8047,-4.7754,-4.6777,-4.5053,0.0,0.0,0.0,0.0,0.0,0.0,0.0,0.0,0.0,0.0,0.0,0.0,0.0,0.0,0.0,0.0,0.0,0.0,0.0,0.0,0.0,0.0,0.0,0.0,0.0,-3.8839,0.0,0.0,0.0,0.0,0.0,0.0,0.0,0.0,0.0,0.0,0.0,-4.2422,-4.3555,-4.3457,-4.3905,-4.5643,-4.6362,-4.7044,0.0,0.0,0.0,0.0,0.0,0.0,0.0,0.0,0.0,0.0,0.0,0.0,0.0,0.0,-4.2345,-4.0939,-4.1131,-4.1094,-3.965,0.0,0.0,0.0,0.0,0.0,0.0,0.0,0.0,0.0,0.0,0.0,0.0,0.0,0.0,-3.9926,0.0,-4.0026,0.0,0.0,0.0,0.0,0.0,0.0,0.0,0.0,-4.2092,-4.2899,-4.3685,-4.3698,-4.3402,0.0,-4.2662,-4.1725,0.0,0.0,0.0,0.0,0.0,0.0,0.0,0.0,-4.2558,-4.4531,-4.625,-4.7441,-4.7969,-4.8008,-4.7734,-4.7168,-4.6855,-4.6172,-4.5017,-4.3624,-4.2419,0.0,0.0,0.0,0.0,0.0,0.0,0.0,0.0,0.0,0.0,0.0,0.0,0.0,0.0,0.0,0.0,0.0,0.0,0.0,0.0,0.0,0.0,0.0,-3.9206,0.0,0.0,0.0,0.0,0.0,0.0,0.0,0.0,0.0,-4.1054,-4.2148,-4.3066,-4.3613,-4.3476,-4.3612,-4.4428,0.0,0.0,0.0,0.0,0.0,0.0,0.0,-4.509,-4.3396,-4.3116,-4.3089,-4.3078,-4.3347,-4.3478,-4.3255,0.0,0.0,-4.2213,-4.2211,-4.2055,-4.0922,-4.0454,-4.0336,-4.0649,-4.0047,-3.9718,0.0,0.0,0.0,0.0,0.0,0.0,0.0,0.0,-4.0848,-4.0494,0.0,-4.0654,0.0,0.0,0.0,0.0,0.0,-4.1261,0.0,0.0,-4.4394,-4.5169,-4.4452,-4.4434,-4.443,-4.438,-4.371,-4.3438,-4.3413,-4.1053,0.0,0.0,0.0,0.0,0.0,0.0,-4.2812,-4.3672,-4.5371,-4.625,-4.623,-4.625,-4.6289,-4.6289,-4.5508,-4.5098,-4.5019,-4.4256,-4.3372,-4.2509,-4.1564,0.0,0.0,0.0,0.0,0.0,0.0,0.0,0.0,0.0,0.0,0.0,0.0,0.0,0.0,0.0,0.0,0.0,0.0,0.0,0.0,-3.8521,0.0,0.0,0.0,0.0,0.0,0.0,0.0,0.0,0.0,0.0,-4.1149,-4.2617,-4.3652,-4.3651,0.0,0.0,0.0,0.0,-4.4631,-4.3777,-4.4322,-4.4869,-4.4813,-4.4744,-4.4676,-4.456,0.0,0.0,-4.4565,-4.3973,-4.3248,-4.2493,-4.3111,-4.3691,-4.3668,-4.2924,-4.2377,-4.224,-4.1557,-4.142,-4.2084,-4.1518,-4.1226,-4.348,0.0,0.0,0.0,0.0,-4.1879,-4.2597,-4.3346,-4.3447,-4.3337,-4.3118,-4.3385,0.0,0.0,0.0,0.0,0.0,0.0,-4.3163,-4.3713,-4.4413,-4.4927,-4.5246,-4.5255,-4.5263,-4.5263,-4.5046,-4.5003,-4.5082,-4.3779,-4.2334,-4.0731,0.0,0.0,0.0,0.0,-4.2519,-4.2851,-4.4492,-4.5058,-4.4453,-4.5039,-4.5664,-4.6289,-4.6055,-4.5937,-4.5937,-4.5683,-4.5155,-4.427,-4.2801,0.0,0.0,0.0,0.0,0.0,0.0,0.0,0.0,0.0,0.0,0.0,0.0,0.0,0.0,0.0,0.0,0.0,0.0,0.0,-3.9299,-3.8909,-3.8576,0.0,0.0,0.0,0.0,0.0,0.0,0.0,0.0,0.0,-4.2756,-4.2828,-4.2773,0.0,0.0,-4.2137,-4.1872,-4.3036,-4.3828,-4.3575,-4.4686,0.0,-4.4762,-4.4599,-4.4156,-4.2968,-4.2731,-4.2718,-4.2825,-4.3092,-4.3285,-4.3197,-4.3427,-4.366,-4.3633,-4.2988,-4.2246,-4.1679,-4.1327,-4.1425,-4.2148,-4.1738,-4.1406,-4.4768,-4.3362,-4.3265,-4.3072,-4.2953,-4.3459,-4.414,-4.4878,-4.4966,-4.4795,-4.4492,-4.4851,-4.4072,-4.2459,-4.2484,0.0,0.0,0.0,-4.4106,-4.4889,-4.4889,-4.515,-4.5575,-4.5594,-4.5594,-4.5594,-4.5594,-4.5645,-4.5777,-4.4931,-4.3813,-4.2482,0.0,0.0,-4.0821,-4.2203,-4.291,-4.2988,-4.4297,-4.4726,-4.4238,-4.5058,-4.5762,-4.6269,-4.6289,-4.6289,-4.6289,-4.6289,-4.6054,-4.5526,-4.4196,-4.2864,0.0,0.0,0.0,0.0,0.0,0.0,0.0,0.0,0.0,0.0,0.0,-3.6297,-3.5965,0.0,0.0,0.0,-3.7927,-3.8904,-4.023,-3.9606,0.0,0.0,0.0,0.0,0.0,0.0,0.0,-4.0071,-4.0618,-4.1597,-4.3368,-4.3138,-4.296,-4.3378,-4.2967,-4.2507,-4.2124,0.0,-4.3884,-4.3481,-4.4529,-4.5169,-4.4666,-4.4806,-4.451,-4.3137,-4.2598,-4.2406,-4.2486,-4.2898,-4.3122,-4.3031,-4.3014,-4.298,-4.2687,-4.2225,-4.1933,-4.1699,-4.1406,-4.1465,-4.2246,-4.1777,-4.1348,-4.5768,-4.5556,-4.411,-4.3886,-4.4482,-4.4559,-4.4985,-4.5575,-4.5594,-4.5188,-4.4559,-4.5276,-4.4782,-4.3408,-4.3401,0.0,-4.4501,-4.4501,-4.4889,-4.5594,-4.5594,-4.5594,-4.5594,-4.5594,-4.5594,-4.5594,-4.5594,-4.5657,-4.5731,-4.4991,-4.4595,-4.4533,-4.3162,-4.2456,-4.2442,-4.3308,-4.3749,-4.3711,-4.4531,-4.498,-4.5,-4.5781,-4.623,-4.6289,-4.6289,-4.6289,-4.6289,-4.6289,-4.6289,-4.6269,-4.539,-4.4177,-4.2555,0.0,0.0,0.0,0.0,0.0,0.0,0.0,0.0,0.0,0.0,0.0,0.0,0.0,0.0,-3.7401,-3.8984,0.0,-4.1133,-4.041,0.0,0.0,0.0,-3.8646,-3.8495,-3.8533,-3.9142,-4.063,0.0,0.0,-4.3156,-4.3393,-4.3786,-4.4833,-4.49,-4.4518,-4.3608,-4.4187,-4.4431,-4.3562,-4.4109,-4.4619,-4.4684,-4.5094,-4.5153,-4.4303,-4.3585,-4.294,-4.2879,-4.2843,-4.2654,-4.2032,-4.205,-4.1961,-4.1124,-4.1178,-4.1387,-4.1973,-4.1543,-4.1289,-4.1875,-4.1426,-4.0859,-4.7144,-4.6567,-4.618,-4.5747,-4.5372,-4.6037,-4.6037,-4.5594,-4.5594,-4.5498,-4.5334,-4.5518,-4.5391,-4.5043,-4.5024,-4.5131,-4.5315,-4.5315,-4.5402,-4.5594,-4.5594,-4.5594,-4.5594,-4.5594,-4.5594,-4.5594,-4.5594,-4.562,-4.5632,-4.5434,-4.5007,-4.4396,-4.4105,-4.3689,-4.3184,-4.4012,-4.4192,-4.3626,-4.4426,-4.489,-4.5,-4.5195,-4.5625,-4.6289,-4.6289,-4.6289,-4.6289,-4.6289,-4.6289,-4.625,-4.4824,-4.3828,-4.3396,-4.0527,0.0,0.0,0.0,0.0,0.0,0.0,0.0,0.0,0.0,-3.623,-3.6015,0.0,-3.7558,0.0,-3.9863,-4.0976,-4.1172,-4.041,0.0,0.0,-3.9561,-3.9372,-3.9268,-3.9791,-4.0317,-4.074,-4.0738,-4.1155,-4.2305,-4.3005,-4.3752,-4.4618,-4.4191,-4.3681,-4.3413,-4.405,-4.4473,-4.4286,-4.48,-4.531,-4.5271,-4.4908,-4.4564,-4.4344,-4.3085,-4.2124,-4.2104,-4.1547,-4.1096,-4.1016,-4.1045,-4.1014,-4.0859,-4.0957,-4.0834,-4.0468,-4.0248,-4.0254,-4.0449,-3.9824,-3.9219,-4.7836,-4.7471,-4.7836,-4.7317,-4.6201,-4.6278,-4.6047,-4.5594,-4.5594,-4.5594,-4.5594,-4.5594,-4.5594,-4.5594,-4.5594,-4.5594,-4.5594,-4.5594,-4.5594,-4.5594,-4.5594,-4.5594,-4.5594,-4.5594,-4.5594,-4.5594,-4.5594,-4.5594,-4.5594,-4.5594,-4.5152,-4.4344,-4.4758,-4.459,-4.386,-4.4402,-4.4487,-4.4104,-4.4517,-4.4794,-4.4885,-4.5277,-4.5713,-4.6179,-4.5876,-4.5722,-4.5721,-4.535,-4.5135,-4.5134,-4.4216,-4.3512,-4.3102,-4.0948,-3.9515,0.0,0.0,0.0,0.0,0.0,0.0,0.0,0.0,0.0,0.0,0.0,-3.8652,-3.9141,-4.041,-4.1191,-4.1191,-4.0699,-4.0373,-4.0294,-4.0218,-4.0131,-4.0063,-4.0419,-4.0848,-4.1208,-4.1205,-4.1524,-4.2474,-4.2987,-4.3433,-4.3961,-4.3592,-4.355,-4.4297,-4.4828,-4.5042,-4.4966,-4.5312,-4.5594,-4.5594,-4.4874,-4.4162,-4.3758,-4.2662,-4.1681,-4.1296,-4.0843,-4.0515,-4.0609,-4.0668,-4.0721,-4.0747,-4.0832,-4.0716,-4.0296,-3.9653,-3.9291,-3.9316,-3.8926,-3.8516,-4.8288,-4.8182,-4.8933,-4.8279,-4.6682,-4.5922,-4.5594,-4.5594,-4.5594,-4.5594,-4.5594,-4.5594,-4.5594,-4.5594,-4.5594,-4.5594,-4.5594,-4.5594,-4.5594,-4.5594,-4.5594,-4.5594,-4.5594,-4.5594,-4.5537,-4.5441,-4.5441,-4.5383,-4.5287,-4.5287,-4.4893,-4.4201,-4.4913,-4.496,-4.4333,-4.453,-4.4705,-4.4817,-4.4854,-4.4863,-4.4887,-4.5676,-4.6058,-4.5913,-4.5333,-4.4935,-4.4813,-4.4092,-4.368,-4.3693,-4.3594,-4.3157,-4.2399,-4.1454,-4.0538,0.0,-3.8147,0.0,0.0,0.0,0.0,0.0,0.0,0.0,0.0,-3.8942,-3.996,-4.0059,-4.0762,-4.1191,-4.1171,-4.1052,-4.0981,-4.0952,-4.0859,-4.0772,-4.0692,-4.0667,-4.0919,-4.1582,-4.1623,-4.1971,-4.2628,-4.2876,-4.2954,-4.3021,-4.313,-4.3605,-4.5012,-4.5272,-4.5208,-4.5304,-4.5287,-4.5075,-4.5075,-4.4575,-4.3874,-4.3201,-4.2412,-4.1566,-4.0881,-4.0612,-4.0496,-4.0512,-4.0589,-4.0661,-4.0687,-4.0732,-4.0699,-4.033,-3.9273,-3.852,-3.855,-3.832,-3.8008,-4.9394,-4.8144,-4.8279,-4.7375,-4.5845,-4.5671,-4.5594,-4.5594,-4.5594,-4.5594,-4.5594,-4.5594,-4.5594,-4.5594,-4.5594,-4.5594,-4.5594,-4.5594,-4.5594,-4.5594,-4.5594,-4.5594,-4.5594,-4.5594,-4.522,-4.4566,-4.4528,-4.4201,-4.3566,-4.3566,-4.3489,-4.3335,-4.3508,-4.3816,-4.4286,0.0,0.0,0.0,-4.5653,-4.5693,-4.5753,-4.5981,-4.5751,-4.5078,-4.4965,0.0,-4.3903,-4.3706,-4.3609,-4.3587,-4.2954,0.0,0.0,0.0,0.0,0.0,0.0,0.0,0.0,0.0,0.0,0.0,-3.8884,-3.898,-3.8309,-3.9231,-4.0195,-4.0879,-4.1094,-4.115,-4.1033,-4.1019,-4.0931,-4.0772,-4.0735,-4.068,-4.0559,-4.0549,-4.0604,-4.0716,-4.0739,-4.082,-4.1069,-4.1589,-4.2043,-4.211,-4.2648,-4.3179,-4.3497,-4.3647,-4.3615,-4.3594,-4.3701,-4.3624,-4.3566,-4.347,-4.3335,-4.3028,-4.2374,-4.1758,-4.147,-4.0854,-4.0496,-4.0458,-4.0527,-4.0499,-4.0499,-4.0636,-4.02,-3.8896,-3.8458,-3.8341,-3.8401,-3.7376,-3.6445,-4.9933,0.0,-4.8759,-4.7778,0.0,-4.624,-4.599,-4.5594,-4.5594,-4.5594,-4.5594,-4.5594,-4.5594,-4.5594,-4.5594,-4.5594,-4.5594,-4.5594,-4.5594,-4.5594,-4.5594,-4.5594,-4.5594,-4.5594,-4.5152,-4.4316,-4.4316,-4.3893,-4.3124,-4.3085,-4.2874,-4.2489,-4.2893,-4.3297,-4.372,-4.4105,-4.4548,-4.5063,-4.5504,-4.5577,-4.5195,-4.567,-4.5731,-4.5303,-4.4553,0.0,0.0,0.0,0.0,0.0,0.0,0.0,0.0,0.0,0.0,-4.0062,-3.9267,-3.8967,-3.9322,-3.8994,-3.8736,-3.8736,-3.9164,-3.9481,-3.9568,-4.0053,-4.0528,-4.0957,-4.0996,-4.0986,-4.0911,-4.0889,-4.0814,-4.0696,-4.063,-4.0574,-4.0512,-4.0496,-4.0496,-4.0496,-4.0496,-4.0496,-4.0496,-4.0862,-4.1143,-4.1143,-4.1162,-4.1277,-4.1354,-4.2335,-4.3085,-4.3085,-4.3085,-4.3104,-4.3085,-4.3085,-4.2893,-4.2527,-4.2085,-4.1643,-4.1219,-4.0477,-3.9919,-3.9881,-3.9573,-3.9265,-3.9265,-3.9326,-3.9071,-3.8254,-3.7804,-3.764,-3.7626,-3.6742,-3.5971,-4.9952,-4.9163,-4.8942,-4.803,-4.6673,-4.6617,-4.6223,-4.5594,0.0,0.0,0.0,-4.5594,-4.5594,-4.5594,-4.5594,-4.5594,-4.5575,-4.5432,-4.5383,-4.5364,-4.5383,-4.5364,-4.5383,-4.5518,-4.5152,-4.4335,-4.4316,-4.3797,-4.2893,-4.2874,-4.2431,-4.1712,-4.2277,-4.2739,-4.2912,-4.3835,-4.4162,-4.3932,-4.4863,-4.5037,-4.4372,-4.5278,-4.5724,-4.558,-4.43,-4.3772,-4.4076,-4.2115,-4.1256,-4.1787,-4.1167,-4.0771,-4.0757,-4.0764,-4.0681,-4.0448,-3.9766,-3.9655,-4.0311,-3.9706,-3.9314,-3.9304,-3.92,-3.9497,-4.0302,-4.0501,-4.0587,-4.0587,-4.0607,-4.0638,-4.0749,-4.0717,-4.0705,-4.0661,-4.0574,-4.0496,-4.0496,-4.0496,-4.0496,-4.0496,-4.0496,-4.0496,-4.0496,-4.0516,-4.0496,-4.0439,-4.015,-3.9411,-3.9573,-4.1027,-4.2104,-4.1912,-4.2066,-4.2508,-4.2412,-4.2489,-4.2277,-4.145,-4.1296,-4.1046,-4.0219,-3.9515,-3.913,-3.9073,-3.845,-3.8142,-3.8027,-3.813,-3.793,-3.7796,-3.7315,-3.6837,-3.6662,-3.6242,-3.589,-4.9067,-4.8202,-4.7159,-4.6376,-4.5769,-4.5484,-4.5447,-4.5594,-4.5594,-4.5594,-4.5594,-4.5594,-4.5594,-4.5594,-4.5594,-4.5594,-4.5556,-4.4825,-4.447,-4.4489,-4.4489,-4.4489,-4.4528,-4.5248,-4.5152,-4.4355,-4.4316,-4.3508,-4.2143,-4.2008,-4.1527,-4.0804,-4.0823,-4.1258,-4.2038,-4.3528,-4.3585,-4.2231,-4.3701,-4.4438,-4.4394,-4.5256,-4.5372,-4.4718,-4.4465,-4.3686,-4.2402,-4.2021,-4.1531,-4.0925,-4.0784,-4.0694,-4.0635,-4.0639,-4.0294,-3.9564,-3.9384,-3.9376,-3.9465,-3.9342,-3.9304,-3.9265,-3.8633,-3.833,-3.8634,-3.9333,-3.9762,-3.9754,-3.9766,-4.0045,-4.0613,-4.067,-4.0617,-4.0545,-4.0512,-4.0496,-4.0477,-4.0496,-4.0477,-4.0439,-4.0496,-4.0496,-4.0496,-4.0477,-4.0439,-4.0458,-3.9996,-3.9938,-3.9277,-3.9573,-3.9488,-3.9123,-3.9977,-4.0458,-4.0246,-4.0477,-4.0566,-3.9777,-3.9758,-3.9604,-3.8815,-3.8392,-3.82,-3.818,-3.7969,-3.7873,-3.7873,-3.8007,-3.7603,-3.7046,-3.6722,-3.6498,-3.5994,-3.5752,-3.5729,-4.9317,-4.8087,-4.7501,-4.6618,-4.5586,-4.5429,-4.5342,-4.5342,-4.5522,-4.5594,-4.5594,-4.5594,-4.5594,-4.5594,-4.5594,-4.5594,-4.5575,-4.519,-4.5017,-4.4989,-4.5017,-4.5017,-4.5028,-4.5421,-4.5124,-4.4355,-4.4316,-4.3431,-4.1931,-4.1816,-4.1354,-4.0631,-4.1412,-4.1643,-4.1239,-4.2797,-4.2816,-4.1181,-4.3201,-4.4113,-4.3715,-4.4972,-4.547,-4.5101,-4.4268,-4.3601,-4.3254,-4.1506,-4.0986,-4.1962,-4.0682,-4.0333,-4.1158,-4.0392,-3.9703,-3.9323,-3.8861,-3.8584,-3.8584,-3.8161,-3.7892,-3.7873,-3.7526,-3.7134,-3.6795,-3.7987,-3.8723,-3.8736,-3.8736,-3.9075,-3.9863,-3.9952,-4.0084,-4.0466,-4.0496,-4.0323,-3.9996,-4.0285,-4.0342,-3.9996,-4.0246,-4.0496,-4.0496,-4.0131,-3.9861,-3.9785,-3.9161,-3.8219,-3.7469,-3.7661,-3.795,-3.8046,-3.8661,-3.8931,-3.87,-3.9304,-3.9611,-3.9342,-3.9304,-3.9142,-3.8661,-3.8065,-3.7373,-3.7257,-3.6981,-3.668,-3.6661,-3.6642,-3.6449,-3.6231,-3.6038,-3.5855,-3.5611,-3.5586,-3.5705,-4.9442,-4.8096,-4.7818,-4.6801,-4.541,-4.5371,-4.5263,-4.5129,-4.5371,-4.5514,-4.5495,-4.5568,-4.5594,-4.5594,-4.5594,-4.5594,-4.5575,-4.5383,-4.5306,-4.5306,-4.5306,-4.5306,-4.5325,-4.5479,-4.5229,-4.4643,-4.4586,-4.3816,-4.2508,-4.22,-4.1527,-4.0766,-4.2047,-4.2047,-4.0554,-4.2047,-4.2143,-4.1035,-4.2931,-4.3739,-4.3181,-4.472,-4.5594,-4.5518,-4.4363,-4.3874,-4.4124,-4.1631,-4.0893,-4.2277,-4.045,-3.9796,-4.0788,-3.9719,-3.8919,-3.8681,-3.8084,-3.77,-3.7661,-3.7084,-3.6712,-3.6692,-3.6519,-3.6154,-3.5712,-3.6661,-3.7546,-3.7661,-3.7714,-3.8053,-3.8869,-3.9234,-3.9554,-4.015,-4.0419,-4.0285,-3.9765,-4.015,-4.0304,-3.9746,-3.9996,-4.0265,-4.0304,-3.9804,-3.9381,-3.9142,-3.8104,-3.6962,-3.6096,-3.6327,-3.6949,-3.7296,-3.7719,-3.793,-3.7853,-3.845,-3.8823,-3.8803,-3.8642,-3.8527,-3.8296,-3.7334,-3.6712,-3.6615,-3.6096,-3.5731,-3.5538,-3.5558,-3.5596,-3.5577,-3.5596,-3.5545,-3.5527,-3.559,-3.5742,-4.8643,-4.7972,-4.6976,-4.5795,-4.4758,-4.4707,-4.4861,-4.5074,-4.5148,-4.514,-4.5161,-4.5467,-4.5577,-4.5594,-4.5577,-4.5568,-4.551,-4.4778,-4.4462,-4.4481,-4.4412,-4.4432,-4.4586,-4.5248,-4.5575,-4.5421,-4.5402,-4.4778,-4.3778,-4.3162,-4.2085,-4.0785,-4.147,-4.1489,-4.0727,-4.147,-4.1846,-4.1692,-4.2681,-4.3181,-4.3201,-4.472,-4.5594,-4.5594,-4.5441,-4.5037,-4.4201,-4.3297,-4.2093,-4.0823,-3.9804,-3.9015,-3.8488,-3.8219,-3.7777,-3.7046,-3.6885,-3.6808,-3.6808,-3.675,-3.6673,-3.6654,-3.6019,-3.5615,-3.5519,-3.5654,-3.6058,-3.6635,-3.6827,-3.7212,-3.8046,-3.8738,-3.9207,-3.9515,-4.0054,-4.0458,-4.0285,-4.0458,-4.0477,-4.0419,-3.9804,-3.9688,-4.0208,-3.9631,-3.9207,-3.9027,-3.8584,-3.7815,-3.6654,-3.6538,-3.6442,-3.6269,-3.6949,-3.7507,-3.7161,-3.7565,-3.7911,-3.7334,-3.7058,-3.7296,-3.7238,-3.6622,-3.5808,-3.6308,-3.6038,-3.5538,-3.55,-3.55,-3.55,-3.55,-3.55,-3.55,-3.5501,-3.5568,-3.5689,-4.8236,-4.7703,-4.6494,-4.547,-4.4643,-4.4593,-4.4688,-4.4812,-4.4812,-4.4812,-4.4825,-4.4954,-4.5011,-4.5011,-4.5011,-4.5,-4.5003,-4.4829,-4.4766,-4.4805,-4.4985,-4.5075,-4.5114,-4.5402,-4.5364,-4.4874,-4.4825,-4.4124,-4.2874,-4.197,-4.1189,-4.0669,-4.1373,-4.1373,-4.0631,-4.1354,-4.1816,-4.1827,-4.2662,-4.3316,-4.3893,-4.4979,-4.5594,-4.5556,-4.5105,-4.4182,-4.2854,-4.1566,-4.0535,-3.9765,-3.8507,-3.8084,-3.8738,-3.7815,-3.7077,-3.6692,-3.625,-3.5981,-3.5981,-3.5981,-3.5981,-3.5981,-3.5692,-3.55,-3.55,-3.55,-3.5654,-3.5904,-3.6,-3.6327,-3.7142,-3.7565,-3.8142,-3.9073,-3.9611,-3.9631,-3.9065,-3.9938,-4.0189,-3.9265,-3.9604,-3.99,-3.9611,-3.8584,-3.7853,-3.77,-3.743,-3.6834,-3.6115,-3.6385,-3.6346,-3.5865,-3.65,-3.6776,-3.6327,-3.718,-3.7623,-3.7661,-3.7911,-3.8142,-3.7392,-3.675,-3.6231,-3.6077,-3.5788,-3.5577,-3.55,-3.55,-3.55,-3.55,-3.55,-3.55,-3.55,-3.5544,-3.5636,-4.7883,-4.7263,-4.5927,-4.4973,-4.4433,-4.4337,-4.435,-4.4414,-4.4447,-4.4414,-4.4433,-4.4447,-4.4378,-4.4341,-4.4501,-4.4593,-4.4618,-4.4861,-4.4973,-4.4977,-4.5222,-4.5362,-4.5448,-4.5476,-4.5177,-4.4692,-4.4432,-4.3451,-4.1885,-4.12,-4.0746,-4.065,-4.1143,-4.1123,-4.065,-4.1162,-4.1566,-4.1865,-4.2662,-4.3393,-4.4008,-4.5037,-4.5479,-4.5229,-4.4643,-4.3605,-4.22,-4.0546,-3.9515,-3.9265,-3.7642,-3.7161,-3.8104,-3.7038,-3.6365,-3.6327,-3.5827,-3.55,-3.55,-3.55,-3.55,-3.55,-3.55,-3.55,-3.55,-3.55,-3.55,-3.5519,-3.55,-3.5788,-3.625,-3.6558,-3.7373,-3.8719,-3.913,-3.9046,-3.8919,-3.9881,-4.0073,-3.9027,-3.9592,-3.9977,-3.9304,-3.8315,-3.7603,-3.725,-3.6481,-3.5827,-3.5885,-3.6346,-3.6538,-3.6238,-3.675,-3.6699,-3.6096,-3.6731,-3.7565,-3.7738,-3.8027,-3.8046,-3.77,-3.6904,-3.6558,-3.6154,-3.5885,-3.5712,-3.5615,-3.5577,-3.5635,-3.5538,-3.55,-3.55,-3.55,-3.5546,-3.5571,-4.7466,-4.6732,-4.4882,-4.4084,-4.4016,-4.3728,-4.3758,-4.4058,-4.4028,-4.4046,-4.4013,-4.4031,-4.3849,-4.3647,-4.427,-4.4585,-4.4599,-4.4593,-4.4631,-4.4644,-4.467,-4.4837,-4.5107,-4.5118,-4.5235,-4.5195,-4.457,-4.3415,-4.1865,-4.1731,-4.1296,-4.0546,-4.0569,-4.0538,-4.0465,-4.0542,-4.0981,-4.1772,-4.2596,-4.3104,-4.3355,-4.4748,-4.5086,-4.4355,-4.4316,-4.3855,-4.2816,-4.1304,-4.0054,-3.9284,-3.7546,-3.6423,-3.5827,-3.5654,-3.5615,-3.5577,-3.5538,-3.55,-3.55,-3.55,-3.5519,-3.5538,-3.5519,-3.5519,-3.5615,-3.5538,-3.55,-3.55,-3.55,-3.5558,-3.5692,-3.6212,-3.6962,-3.793,-3.8757,-3.9361,-4.015,-4.0131,-4.0458,-4.0131,-3.9727,-3.9534,-3.9361,-3.9284,-3.8527,-3.7873,-3.7135,-3.6538,-3.6558,-3.6654,-3.7026,-3.7546,-3.7757,-3.7661,-3.6885,-3.7,-3.6988,-3.7219,-3.7546,-3.7135,-3.6596,-3.6231,-3.6346,-3.6423,-3.6596,-3.6442,-3.5942,-3.5769,-3.5885,-3.5808,-3.5538,-3.55,-3.55,-3.55,-3.5509,-4.5847,-4.4719,-4.3983,-4.3804,-4.3955,-4.3646,-4.3677,-4.3971,-4.3772,-4.3677,-4.366,-4.3677,-4.3614,-4.3532,-4.3758,-4.3884,-4.3915,-4.4121,-4.4346,-4.4567,-4.4593,-4.4769,-4.5052,-4.4896,-4.4619,-4.44,-4.4105,-4.3234,-4.1953,-4.1816,-4.1261,-4.0392,-4.0241,-4.0148,-3.9994,-4.0148,-4.0642,-4.1426,-4.2029,-4.2527,-4.3008,-4.3701,-4.3585,-4.2835,-4.3758,-4.3143,-4.0739,-4.0054,-3.8854,-3.6942,-3.625,-3.5808,-3.5538,-3.55,-3.55,-3.55,-3.55,-3.55,-3.55,-3.55,-3.5731,-3.6192,-3.5769,-3.575,-3.6058,-3.5808,-3.55,-3.55,-3.55,-3.55,-3.5538,-3.5769,-3.625,-3.7046,-3.7469,-3.8084,-3.8784,-3.9381,-3.9727,-3.9688,-3.9457,-3.9496,-3.9604,-3.87,-3.7777,-3.7834,-3.6827,-3.6308,-3.6692,-3.7123,-3.7584,-3.7988,-3.8469,-3.8738,-3.8469,-3.7834,-3.7603,-3.7757,-3.7892,-3.7885,-3.7558,-3.7601,-3.7728,-3.7179,-3.7298,-3.7122,-3.6569,-3.5801,-3.5935,-3.5731,-3.55,-3.55,-3.55,-3.55,-3.5508,-4.4947,-4.3589,-4.3479,-4.3629,-4.3786,-4.3597,-4.3612,-4.3804,-4.3597,-4.3479,-4.3479,-4.3479,-4.3479,-4.3479,-4.3479,-4.3479,-4.3513,-4.374,-4.3989,-4.4242,-4.4237,-4.4433,-4.4682,-4.4508,-4.4291,-4.4037,-4.376,-4.3003,-4.1944,-4.159,-4.1083,-4.0389,-4.0103,-3.9829,-3.9698,-3.9932,-4.0406,-4.0893,-4.1227,-4.1585,-4.1893,-4.2124,-4.1854,-4.1296,-4.2104,-4.1708,-3.9381,-3.9034,-3.8007,-3.6192,-3.5654,-3.55,-3.55,-3.55,-3.55,-3.55,-3.55,-3.55,-3.55,-3.55,-3.5846,-3.6577,-3.6,-3.5923,-3.6865,-3.6135,-3.5692,-3.5769,-3.5615,-3.5558,-3.5827,-3.5904,-3.6231,-3.6942,-3.7123,-3.7603,-3.8661,-3.9354,-3.9681,-3.9765,-3.9785,-3.9996,-4.0112,-3.843,-3.77,-3.793,-3.6565,-3.5904,-3.6596,-3.7142,-3.7738,-3.7962,-3.8305,-3.853,-3.8186,-3.7485,-3.759,-3.7805,-3.7821,-3.8059,-3.8012,-3.83,-3.8402,-3.7961,-3.7704,-3.7548,-3.7022,-3.6142,-3.5717,-3.5532,-3.55,-3.55,-3.55,-3.55,-3.5508,-4.4966,-4.3589,-4.3479,-4.3513,-4.3529,-4.3513,-4.3496,-4.3531,-4.3496,-4.3479,-4.3479,-4.3479,-4.3479,-4.3479,-4.3479,-4.3479,-4.3496,-4.3529,-4.3597,-4.3664,-4.3597,-4.3775,-4.4073,-4.4028,-4.4204,-4.441,-4.375,-4.2926,-4.2114,-4.1489,-4.1019,-4.0651,-4.0021,-3.9665,-3.9583,-3.9808,-4.0032,-4.0091,-4.0362,-4.0177,-3.9508,-4.02,-4.0227,-3.9469,-3.9534,-3.9457,-3.915,-3.8392,-3.7526,-3.6615,-3.5865,-3.55,-3.55,-3.55,-3.55,-3.55,-3.55,-3.55,-3.55,-3.55,-3.5865,-3.6584,-3.6038,-3.6269,-3.7315,-3.6519,-3.5846,-3.6173,-3.5923,-3.5769,-3.6365,-3.6558,-3.6923,-3.7815,-3.7853,-3.8488,-3.9785,-4.04,-4.0477,-4.0419,-4.0381,-4.0477,-4.0169,-3.8931,-3.7969,-3.768,-3.6575,-3.5727,-3.6449,-3.6715,-3.706,-3.7671,-3.8049,-3.8212,-3.7547,-3.6891,-3.7285,-3.7603,-3.7562,-3.7562,-3.7083,-3.7107,-3.7547,-3.7319,-3.7347,-3.7186,-3.6954,-3.6139,-3.5643,-3.5453,-3.5467,-3.55,-3.55,-3.55,-3.55,-4.4947,-4.357,-4.3479,-4.3479,-4.3479,-4.3479,-4.3479,-4.3479,-4.3479,-4.3479,-4.3479,-4.3479,-4.3479,-4.3479,-4.3479,-4.3479,-4.3479,-4.3496,-4.3612,-4.3775,-4.3614,-4.366,-4.3896,-4.3775,-4.3833,-4.4157,-4.4229,-4.3756,-4.2963,-4.2586,-4.1895,-4.0667,-4.0235,-3.969,-3.9041,-3.9244,-3.9188,-3.8759,-3.9688,-3.9553,-3.8382,-3.9138,-3.9238,-3.8507,-3.8392,-3.8142,-3.7546,-3.7257,-3.6712,-3.5923,-3.5635,-3.55,-3.55,-3.55,-3.55,-3.55,-3.55,-3.55,-3.55,-3.5538,-3.6096,-3.7065,-3.6788,-3.6911,-3.7719,-3.6942,-3.6173,-3.6,-3.5635,-3.5654,-3.5885,-3.6385,-3.7084,-3.7911,-3.8007,-3.8488,-3.9611,-4.0208,-4.0458,-4.0496,-4.0496,-4.0496,-4.0227,-3.9053,-3.8096,-3.7824,-3.6435,-3.5621,-3.617,-3.6211,-3.6502,-3.7252,-3.7571,-3.7759,-3.7337,-3.7082,-3.74,-3.7413,-3.7243,-3.7157,-3.6615,-3.6279,-3.6671,-3.7004,-3.7009,-3.686,-3.6616,-3.6146,-3.5573,-3.5439,-3.546,-3.5474,-3.5481,-3.5404,-3.5288,-4.4947,-4.3534,-4.3479,-4.3479,-4.3479,-4.3479,-4.3479,-4.3479,-4.3479,-4.3479,-4.3479,-4.3479,-4.3479,-4.3479,-4.3479,-4.3479,-4.3479,-4.3479,-4.3614,-4.3772,-4.3631,-4.3629,-4.3772,-4.3614,-4.3597,-4.3804,-4.4061,-4.3903,-4.3384,-4.3015,-4.2135,-4.0815,-4.0304,-3.9664,-3.8823,-3.8943,-3.8702,-3.8196,-3.8878,-3.8841,-3.7992,-3.8295,-3.8431,-3.8012,-3.77,-3.7257,-3.6712,-3.6423,-3.6019,-3.5596,-3.55,-3.55,-3.55,-3.55,-3.55,-3.55,-3.55,-3.55,-3.55,-3.55,-3.6038,-3.7084,-3.6731,-3.6815,-3.7469,-3.7026,-3.6077,-3.6,-3.5673,-3.5635,-3.5981,-3.6365,-3.7199,-3.8392,-3.8527,-3.888,-3.9604,-4.0189,-4.0477,-4.0496,-4.0496,-4.0496,-4.0189,-3.9438,-3.8297,-3.7774,-3.6542,-3.5349,-3.5722,-3.5552,-3.5926,-3.6144,-3.6147,-3.652,-3.7133,-3.7321,-3.7549,-3.7277,-3.6927,-3.6817,-3.6498,-3.6182,-3.6306,-3.6888,-3.7075,-3.6836,-3.6556,-3.5788,-3.5179,-3.5304,-3.5432,-3.5474,-3.5423,-3.5007,-3.4795,-4.4966,-4.3552,-4.3479,-4.3479,-4.3479,-4.3479,-4.3479,-4.3479,-4.3479,-4.3479,-4.3479,-4.3479,-4.3479,-4.3479,-4.3479,-4.3479,-4.3479,-4.3479,-4.3496,-4.3531,-4.3496,-4.3531,-4.3548,-4.3513,-4.3513,-4.3548,-4.3582,-4.3528,-4.3446,-4.2896,-4.1919,-4.1087,-4.0386,-3.953,-3.8915,-3.8961,-3.864,-3.8011,-3.8201,-3.8083,-3.7528,-3.7423,-3.7549,-3.7744,-3.7009,-3.6567,-3.6442,-3.5942,-3.5577,-3.55,-3.55,-3.55,-3.55,-3.55,-3.55,-3.55,-3.55,-3.55,-3.55,-3.55,-3.5885,-3.6642,-3.6288,-3.6173,-3.7373,-3.6661,-3.6,-3.6288,-3.5846,-3.5769,-3.6308,-3.6635,-3.743,-3.8834,-3.9207,-3.9669,-4.0342,-4.0419,-4.0285,-4.0323,-4.04,-4.0304,-4.0092,-3.9392,-3.8634,-3.7757,-3.6744,-3.5856,-3.5196,-3.4996,-3.4716,-3.4872,-3.5196,-3.5876,-3.6689,-3.7535,-3.7775,-3.7755,-3.718,-3.6646,-3.6273,-3.5913,-3.5553,-3.6176,-3.679,-3.6625,-3.6196,-3.533,-3.5016,-3.5174,-3.5297,-3.5439,-3.5308,-3.4988,-3.4757,-4.4947,-4.3534,-4.3479,-4.3479,-4.3479,-4.3479,-4.3479,-4.3479,-4.3479,-4.3479,-4.3479,-4.3479,-4.3479,-4.3479,-4.3479,-4.3479,-4.3479,-4.3479,-4.3479,-4.3479,-4.3479,-4.3479,-4.3479,-4.3479,-4.3479,-4.3479,-4.3479,-4.3479,-4.3479,-4.3185,-4.2378,-4.1132,-4.0783,-4.0029,-3.894,-3.8773,-3.8361,-3.777,-3.7867,-3.7661,-3.7049,-3.6612,-3.6464,-3.6636,-3.6009,-3.5699,-3.5806,-3.5615,-3.55,-3.55,-3.55,-3.55,-3.55,-3.55,-3.55,-3.55,-3.55,-3.55,-3.55,-3.5519,-3.5885,-3.6558,-3.6462,-3.6584,-3.6949,-3.6654,-3.6192,-3.5981,-3.5577,-3.5577,-3.5885,-3.6346,-3.7212,-3.8219,-3.9246,-4.0073,-4.0285,-3.9977,-3.9611,-3.9573,-3.913,-3.8854,-3.8738,-3.8577,-3.8174,-3.7486,-3.6711,-3.5857,-3.5229,-3.4753,-3.4612,-3.4673,-3.4992,-3.5661,-3.6431,-3.7386,-3.7978,-3.821,-3.7602,-3.6593,-3.6002,-3.5338,-3.4892,-3.4756,-3.5639,-3.5766,-3.5286,-3.4626,-3.4765,-3.4914,-3.5239,-3.5405,-3.5448,-3.5269,-3.5154,-4.5168,-4.3993,-4.3626,-4.3479,-4.3479,-4.3479,-4.3479,-4.3479,-4.3479,-4.3479,-4.3479,-4.3479,-4.3479,-4.3479,-4.3479,-4.3479,-4.3479,-4.3479,-4.3479,-4.3479,-4.3479,-4.3479,-4.3479,-4.3479,-4.3479,-4.3479,-4.3479,-4.3479,-4.3406,-4.3184,-4.2268,-4.1258,-4.0763,-3.9937,-3.8799,-3.867,-3.8303,-3.7684,-3.765,-3.7511,-3.7199,-3.6918,-3.6688,-3.6632,-3.6131,-3.5816,-3.5329,-3.5155,-3.5246,-3.5412,-3.55,-3.55,-3.55,-3.55,-3.55,-3.55,-3.55,-3.55,-3.5577,-3.5769,-3.6192,-3.6596,-3.6712,-3.6712,-3.6635,-3.6423,-3.5904,-3.5596,-3.55,-3.55,-3.5635,-3.6212,-3.6865,-3.7481,-3.8661,-3.9573,-3.9919,-3.9573,-3.9342,-3.9092,-3.8565,-3.7988,-3.7988,-3.7988,-3.7584,-3.7062,-3.6725,-3.6017,-3.5404,-3.4961,-3.4798,-3.5055,-3.5367,-3.6089,-3.6654,-3.7474,-3.7991,-3.8264,-3.7529,-3.6541,-3.5771,-3.5004,-3.4766,-3.4578,-3.4839,-3.4922,-3.4643,-3.4374,-3.4269,-3.451,-3.4977,-3.515,-3.5105,-3.5154,-3.5115,-4.5516,-4.4635,-4.3901,-4.3552,-4.3515,-4.3479,-4.3479,-4.3479,-4.3479,-4.3479,-4.3479,-4.3479,-4.3479,-4.3479,-4.3479,-4.3479,-4.3479,-4.3479,-4.3479,-4.3479,-4.3479,-4.3479,-4.3479,-4.3479,-4.3479,-4.3479,-4.3479,-4.3479,-4.3314,-4.2745,-4.1937,-4.113,-4.0341,-3.9533,-3.8854,-3.8707,-3.8303,-3.7823,-3.7577,-3.7737,-3.7747,-3.7538,-3.7125,-3.6889,-3.6472,-3.5821,-3.5066,-3.4764,-3.4916,-3.5403,-3.5439,-3.5453,-3.546,-3.55,-3.55,-3.55,-3.55,-3.55,-3.5615,-3.6173,-3.6538,-3.6538,-3.6596,-3.6712,-3.6577,-3.6077,-3.5654,-3.5788,-3.5558,-3.55,-3.5596,-3.6173,-3.6442,-3.6731,-3.7392,-3.8219,-3.8919,-3.9169,-3.9169,-3.915,-3.8411,-3.8065,-3.7815,-3.7786,-3.7523,-3.6558,-3.6316,-3.6129,-3.5669,-3.534,-3.5477,-3.5899,-3.6248,-3.6666,-3.7144,-3.7621,-3.7955,-3.8153,-3.7147,-3.6229,-3.5536,-3.4986,-3.4894,-3.4912,-3.5096,-3.4963,-3.4591,-3.4315,-3.4192,-3.4076,-3.4518,-3.4483,-3.4398,-3.4537,-3.4584,-4.6012,-4.4691,-4.4526,-4.4066,-4.357,-4.3479,-4.3479,-4.3479,-4.3479,-4.3479,-4.3479,-4.3479,-4.3479,-4.3479,-4.3479,-4.3479,-4.3479,-4.3479,-4.3479,-4.3479,-4.3479,-4.3479,-4.3479,-4.3479,-4.3479,-4.3479,-4.3479,-4.3479,-4.3296,-4.2635,-4.1882,-4.1093,-4.0212,-3.9496,-3.8817,-3.8689,-3.8652,-3.834,-3.786,-3.7886,-3.8092,-3.7339,-3.6827,-3.6696,-3.5852,-3.5164,-3.4845,-3.4694,-3.4754,-3.4898,-3.507,-3.5223,-3.5405,-3.5474,-3.55,-3.55,-3.55,-3.55,-3.5654,-3.625,-3.6462,-3.6192,-3.6558,-3.6712,-3.6654,-3.5962,-3.5865,-3.6115,-3.5885,-3.5519,-3.5538,-3.5635,-3.5808,-3.6019,-3.6519,-3.7308,-3.8065,-3.8296,-3.8354,-3.8277,-3.8123,-3.7526,-3.6385,-3.743,-3.7092,-3.6186,-3.599,-3.6082,-3.5886,-3.5634,-3.6083,-3.6523,-3.7037,-3.7345,-3.7235,-3.7492,-3.7496,-3.7551,-3.667,-3.5991,-3.5298,-3.4766,-3.4619,-3.4876,-3.533,-3.5018,-3.4486,-3.4834,-3.4814,-3.4456,-3.4016,-3.4059,-3.4098,-3.4127,-3.4391,-4.6379,-4.5259,-4.4874,-4.425,-4.357,-4.3479,-4.3479,-4.3479,-4.3479,-4.3479,-4.3479,-4.3479,-4.3479,-4.3479,-4.3479,-4.3479,-4.3479,-4.3479,-4.3479,-4.3479,-4.3479,-4.3479,-4.3479,-4.3479,-4.3479,-4.3479,-4.3479,-4.3479,-4.3204,-4.2341,-4.1499,-4.1003,-3.9937,-3.9166,-3.8762,-3.8707,-3.8707,-3.8524,-3.7951,-3.7896,-3.834,-3.7566,-3.6636,-3.6389,-3.5436,-3.4714,-3.4305,-3.4267,-3.4341,-3.4475,-3.4615,-3.4879,-3.5262,-3.5412,-3.5493,-3.55,-3.55,-3.5731,-3.6115,-3.6788,-3.7346,-3.7199,-3.7334,-3.7257,-3.6988,-3.6257,-3.5712,-3.5942,-3.5769,-3.55,-3.55,-3.55,-3.55,-3.5558,-3.5865,-3.65,-3.7238,-3.7738,-3.8007,-3.8007,-3.8007,-3.7084,-3.668,-3.7123,-3.6569,-3.5636,-3.588,-3.5976,-3.5943,-3.583,-3.6541,-3.7092,-3.7698,-3.7896,-3.7511,-3.7309,-3.6982,-3.6743,-3.6101,-3.5591,-3.5133,-3.4656,-3.4252,-3.4614,-3.4926,-3.4743,-3.4417,-3.4874,-3.4853,-3.4041,-3.3588,-3.3743,-3.3989,-3.4205,-3.4602,-4.6617,-4.5828,-4.5021,-4.4232,-4.357,-4.3479,-4.3479,-4.3479,-4.3479,-4.3479,-4.3479,-4.3479,-4.3479,-4.3479,-4.3479,-4.3479,-4.3479,-4.3479,-4.3479,-4.3479,-4.3479,-4.3479,-4.3479,-4.3479,-4.3351,-4.3368,-4.3222,-4.3185,-4.2635,-4.1754,-4.091,-4.0618,-3.9496,-3.8836,-3.8726,-3.8707,-3.8707,-3.8597,-3.8138,-3.8028,-3.8542,-3.7991,-3.736,-3.6599,-3.5528,-3.4765,-3.4263,-3.4023,-3.3923,-3.4123,-3.4164,-3.447,-3.487,-3.5273,-3.5554,-3.5592,-3.5741,-3.6038,-3.6661,-3.7526,-3.8373,-3.8996,-3.8392,-3.8007,-3.7623,-3.6565,-3.5846,-3.5692,-3.5673,-3.55,-3.55,-3.55,-3.55,-3.55,-3.55,-3.5865,-3.6596,-3.7392,-3.7623,-3.7796,-3.8277,-3.8065,-3.7007,-3.6724,-3.591,-3.5334,-3.5631,-3.5781,-3.5703,-3.5954,-3.6541,-3.7055,-3.7529,-3.786,-3.7566,-3.6868,-3.6578,-3.6046,-3.5477,-3.5261,-3.4986,-3.4802,-3.4472,-3.4197,-3.4302,-3.4302,-3.4284,-3.4383,-3.409,-3.3339,-3.2989,-3.2953,-3.3478,-3.4226,-3.458,-4.6636,-4.5828,-4.5021,-4.425,-4.3588,-4.3479,-4.3479,-4.3479,-4.3479,-4.3479,-4.3479,-4.3479,-4.3479,-4.3479,-4.3479,-4.3479,-4.3479,-4.3479,-4.3479,-4.3479,-4.3479,-4.3479,-4.3479,-4.3461,-4.3167,-4.2635,-4.2488,-4.2231,-4.157,-4.0598,-4.0267,-3.9937,-3.9203,-3.8726,-3.8707,-3.8707,-3.8707,-3.8707,-3.8469,-3.8524,-3.8579,-3.8487,-3.7991,-3.7162,-3.5954,-3.5133,-3.4692,-3.4174,-3.3834,-3.3876,-3.4062,-3.4242,-3.4449,-3.486,-3.5389,-3.5889,-3.6124,-3.6337,-3.6923,-3.8123,-3.8161,-3.768,-3.77,-3.7988,-3.7623,-3.6558,-3.5865,-3.6,-3.5808,-3.55,-3.55,-3.55,-3.55,-3.55,-3.5558,-3.5788,-3.6442,-3.6873,-3.6969,-3.7026,-3.82,-3.9084,-3.7661,-3.6714,-3.6432,-3.5809,-3.5536,-3.5371,-3.5066,-3.5532,-3.6193,-3.667,-3.7107,-3.7382,-3.7511,-3.6666,-3.6028,-3.544,-3.4986,-3.4986,-3.4821,-3.4917,-3.4747,-3.4252,-3.4302,-3.4614,-3.4486,-3.4192,-3.3773,-3.3314,-3.275,-3.219,-3.2945,-3.3752,-3.3753,-4.6617,-4.5828,-4.5057,-4.4471,-4.4085,-4.3663,-4.3479,-4.3479,-4.3479,-4.3479,-4.3479,-4.3479,-4.3479,-4.3479,-4.3479,-4.3479,-4.3479,-4.3479,-4.3479,-4.3479,-4.3479,-4.3479,-4.3479,-4.3479,-4.2983,-4.2378,-4.1919,-4.1554,-4.104,-4.0322,-3.9882,-3.9717,-3.9093,-3.8707,-3.8707,-3.8707,-3.8707,-3.8707,-3.8707,-3.8707,-3.8707,-3.8707,-3.8267,-3.7456,-3.6721,-3.5922,-3.5004,-3.4729,-3.4211,-3.392,-3.391,-3.3986,-3.4129,-3.4428,-3.4945,-3.5557,-3.5854,-3.6424,-3.7151,-3.8296,-3.8469,-3.8777,-3.8373,-3.8007,-3.7603,-3.6654,-3.5808,-3.5865,-3.5885,-3.55,-3.55,-3.55,-3.55,-3.55,-3.55,-3.5692,-3.6038,-3.6423,-3.6404,-3.6423,-3.795,-3.843,-3.7469,-3.6888,-3.6993,-3.6473,-3.567,-3.5145,-3.4668,-3.5238,-3.5991,-3.6211,-3.656,-3.6652,-3.6743,-3.6119,-3.5587,-3.5004,-3.4564,-3.4546,-3.4582,-3.4637,-3.4399,-3.3972,-3.4266,-3.4894,-3.4509,-3.4142,-3.372,-3.3353,-3.3117,-3.2906,-3.2935,-3.3128,-3.3329,-4.647,-4.5828,-4.4874,-4.4562,-4.4562,-4.3828,-4.3479,-4.3479,-4.3479,-4.3479,-4.3479,-4.3479,-4.3479,-4.3479,-4.3479,-4.3479,-4.3479,-4.3479,-4.3479,-4.3479,-4.3479,-4.3479,-4.3479,-4.3387,-4.3075,-4.2323,-4.1864,-4.1168,-4.0653,-3.9937,-3.968,-3.9423,-3.8927,-3.8707,-3.8707,-3.8707,-3.8707,-3.8707,-3.8707,-3.8707,-3.8707,-3.867,-3.8432,-3.7713,-3.7437,-3.6505,-3.5481,-3.4766,-3.4325,-3.3954,-3.3834,-3.382,-3.3842,-3.4012,-3.4379,-3.4832,-3.5086,-3.6158,-3.7062,-3.817,-3.8596,-3.8692,-3.8427,-3.8038,-3.7488,-3.6577,-3.575,-3.5577,-3.6,-3.5827,-3.5673,-3.5654,-3.5635,-3.55,-3.55,-3.5538,-3.5692,-3.5904,-3.6019,-3.6596,-3.7911,-3.7834,-3.6942,-3.6825,-3.6875,-3.6557,-3.5777,-3.5387,-3.5025,-3.5299,-3.5807,-3.5844,-3.5954,-3.5936,-3.5807,-3.5404,-3.5055,-3.4802,-3.438,-3.4211,-3.4266,-3.4307,-3.4119,-3.4119,-3.4706,-3.5169,-3.4656,-3.4014,-3.3445,-3.3206,-3.3445,-3.3295,-3.2758,-3.3106,-3.3648,-4.5975,-4.5773,-4.4268,-4.4048,-4.4562,-4.3846,-4.3479,-4.3479,-4.3479,-4.3479,-4.3479,-4.3479,-4.3479,-4.3479,-4.3479,-4.3479,-4.3479,-4.3479,-4.3479,-4.3479,-4.3479,-4.3479,-4.3479,-4.3479,-4.302,-4.2359,-4.2103,-4.1295,-4.0341,-3.9405,-3.8927,-3.8872,-3.8927,-3.8744,-3.8872,-3.8891,-3.8707,-3.8726,-3.8726,-3.8707,-3.8689,-3.867,-3.8524,-3.8138,-3.7257,-3.6321,-3.5734,-3.4871,-3.4064,-3.388,-3.3807,-3.3807,-3.382,-3.3834,-3.3981,-3.4505,-3.5155,-3.59,-3.6463,-3.7499,-3.8025,-3.783,-3.7555,-3.7466,-3.6962,-3.6615,-3.6038,-3.5596,-3.6635,-3.6731,-3.5904,-3.6135,-3.6058,-3.5769,-3.55,-3.55,-3.5558,-3.5635,-3.5712,-3.5865,-3.6885,-3.7,-3.6577,-3.6652,-3.6677,-3.6323,-3.593,-3.5495,-3.5274,-3.5425,-3.5661,-3.5683,-3.5573,-3.555,-3.5183,-3.4724,-3.4596,-3.4509,-3.4266,-3.3954,-3.4082,-3.4247,-3.4564,-3.4711,-3.5169,-3.5004,-3.4307,-3.3647,-3.3096,-3.3078,-3.3353,-3.2834,-3.2046,-3.2764,-3.3738,-4.5498,-4.5736,-4.4176,-4.4232,-4.5149,-4.4048,-4.3479,-4.3479,-4.3479,-4.3479,-4.3479,-4.3479,-4.3479,-4.3479,-4.3479,-4.3479,-4.3479,-4.3479,-4.3479,-4.3479,-4.3479,-4.3479,-4.3479,-4.3442,-4.3092,-4.2433,-4.1791,-4.0983,-4.0047,-3.957,-3.9221,-3.8781,-3.9129,-3.9405,-3.9203,-3.9331,-3.9386,-3.9276,-3.8982,-3.8726,-3.8597,-3.8303,-3.8062,-3.8006,-3.6909,-3.6229,-3.5569,-3.5023,-3.4211,-3.3972,-3.3807,-3.3807,-3.3807,-3.382,-3.3863,-3.3985,-3.4371,-3.5037,-3.5901,-3.6764,-3.6939,-3.7088,-3.7009,-3.665,-3.6195,-3.607,-3.6012,-3.5577,-3.6538,-3.6577,-3.6,-3.6269,-3.6058,-3.5788,-3.55,-3.55,-3.55,-3.55,-3.5558,-3.5673,-3.5769,-3.6019,-3.6308,-3.657,-3.6531,-3.6165,-3.5647,-3.5066,-3.4926,-3.5,-3.5276,-3.5573,-3.5408,-3.5257,-3.4743,-3.4266,-3.4229,-3.4142,-3.41,-3.3917,-3.4045,-3.4247,-3.4435,-3.4399,-3.4376,-3.4119,-3.377,-3.3642,-3.3421,-3.3335,-3.328,-3.2778,-3.2334,-3.2497,-3.3363,-4.4874,-4.5443,-4.4102,-4.4322,-4.5443,-4.4102,-4.3479,-4.3479,-4.3479,-4.3479,-4.3479,-4.3479,-4.3479,-4.3479,-4.3479,-4.3479,-4.3479,-4.3479,-4.3479,-4.3479,-4.3479,-4.3479,-4.3479,-4.3441,-4.3185,-4.2543,-4.1956,-4.1148,-4.0469,-3.99,-3.9405,-3.8762,-3.9111,-3.9423,-3.9533,-3.9441,-3.9386,-3.9331,-3.8946,-3.8726,-3.8615,-3.8157,-3.7955,-3.7624,-3.7037,-3.6303,-3.5734,-3.5371,-3.4963,-3.4325,-3.4504,-3.4486,-3.3954,-3.4064,-3.4009,-3.397,-3.4018,-3.432,-3.507,-3.5724,-3.6151,-3.6377,-3.6615,-3.6096,-3.5653,-3.5583,-3.5684,-3.5582,-3.6988,-3.6738,-3.6058,-3.6404,-3.6365,-3.5981,-3.55,-3.55,-3.5519,-3.5537,-3.5525,-3.5558,-3.5615,-3.5577,-3.5923,-3.6385,-3.6377,-3.6026,-3.541,-3.473,-3.4716,-3.4892,-3.5303,-3.5734,-3.5679,-3.5495,-3.5128,-3.4578,-3.4302,-3.3917,-3.3862,-3.3844,-3.3954,-3.3954,-3.4027,-3.3899,-3.3807,-3.3807,-3.3788,-3.3807,-3.3807,-3.366,-3.3476,-3.3188,-3.2937,-3.2901,-3.3179,-4.4048,-4.4727,-4.3846,-4.3993,-4.4782,-4.3883,-4.3479,-4.3479,-4.3479,-4.3479,-4.3479,-4.3479,-4.3479,-4.3479,-4.3479,-4.3479,-4.3479,-4.3479,-4.3479,-4.3479,-4.3479,-4.3479,-4.3479,-4.3461,-4.3386,-4.3094,-4.2378,-4.1644,-4.0965,-4.0102,-3.9478,-3.8872,-3.9148,-3.8927,-3.9019,-3.9313,-3.9184,-3.9111,-3.8836,-3.8726,-3.867,-3.8487,-3.8414,-3.8285,-3.7808,-3.7345,-3.7235,-3.645,-3.5789,-3.4968,-3.5279,-3.511,-3.4321,-3.4325,-3.4234,-3.3917,-3.3807,-3.4005,-3.4357,-3.4859,-3.5035,-3.4997,-3.5203,-3.5619,-3.523,-3.6514,-3.6599,-3.5835,-3.719,-3.7334,-3.675,-3.6622,-3.6865,-3.6192,-3.571,-3.5691,-3.5691,-3.5655,-3.5624,-3.5525,-3.5519,-3.5558,-3.5865,-3.6404,-3.6212,-3.5845,-3.5334,-3.4671,-3.4983,-3.5207,-3.5652,-3.5991,-3.6046,-3.5973,-3.5899,-3.5349,-3.4431,-3.405,-3.3972,-3.388,-3.3844,-3.3807,-3.3807,-3.3807,-3.3807,-3.3807,-3.3807,-3.3807,-3.3807,-3.3807,-3.3678,-3.3421,-3.2924,-3.2587,-3.3176,-4.3663,-4.392,-4.3643,-4.3956,-4.4636,-4.3846,-4.3479,-4.3479,-4.3479,-4.3479,-4.3479,-4.3479,-4.3479,-4.3479,-4.3479,-4.3479,-4.3479,-4.3479,-4.3479,-4.3479,-4.3479,-4.3479,-4.3479,-4.3406,-4.324,-4.2855,-4.2396,-4.1901,-4.1058,-4.0286,-3.9882,-3.9496,-3.9368,-3.9845,-3.9918,-3.957,-3.9405,-3.9221,-3.8946,-3.8707,-3.8615,-3.8157,-3.7955,-3.7915,-3.7184,-3.6798,-3.6652,-3.6464,-3.6101,-3.5881,-3.572,-3.5224,-3.4692,-3.4619,-3.4321,-3.3954,-3.3899,-3.3862,-3.3807,-3.4236,-3.4309,-3.4452,-3.4771,-3.5083,-3.4879,-3.5675,-3.581,-3.6039,-3.7118,-3.7294,-3.6224,-3.6858,-3.7471,-3.6462,-3.5996,-3.5996,-3.6004,-3.6012,-3.5967,-3.5959,-3.5799,-3.5712,-3.6096,-3.6519,-3.6115,-3.5657,-3.5133,-3.476,-3.4969,-3.5114,-3.5371,-3.5624,-3.5642,-3.5293,-3.5147,-3.4724,-3.4307,-3.416,-3.4032,-3.3935,-3.3807,-3.3807,-3.3807,-3.3807,-3.3807,-3.3807,-3.3807,-3.3807,-3.3807,-3.3807,-3.3788,-3.3678,-3.3104,-3.2439,-3.3,-4.3479,-4.3479,-4.3479,-4.3809,-4.4232,-4.3736,-4.3479,-4.3479,-4.3479,-4.3479,-4.3479,-4.3479,-4.3479,-4.3479,-4.3479,-4.3479,-4.3479,-4.3479,-4.3479,-4.3479,-4.3479,-4.3479,-4.3479,-4.3424,-4.3276,-4.2671,-4.2286,-4.1882,-4.1077,-4.0304,-4.0139,-4.0065,-3.9827,-3.9955,-4.0304,-4.023,-3.9882,-3.9698,-3.9166,-3.8726,-3.8615,-3.8248,-3.7936,-3.7951,-3.7477,-3.7312,-3.7312,-3.7239,-3.7,-3.6725,-3.645,-3.5958,-3.55,-3.5055,-3.4651,-3.4339,-3.4137,-3.4082,-3.388,-3.3834,-3.3889,-3.4074,-3.4592,-3.4716,-3.4666,-3.4924,-3.5323,-3.5171,-3.6396,-3.6821,-3.5538,-3.6574,-3.7123,-3.6226,-3.6502,-3.6559,-3.6596,-3.6605,-3.6509,-3.6419,-3.6355,-3.6414,-3.5855,-3.6176,-3.5948,-3.5439,-3.4925,-3.4498,-3.4399,-3.4509,-3.4564,-3.4802,-3.4968,-3.4509,-3.4009,-3.4307,-3.4527,-3.4027,-3.3917,-3.388,-3.3807,-3.3807,-3.3807,-3.3807,-3.3807,-3.3807,-3.3807,-3.3807,-3.3807,-3.3807,-3.366,-3.344,-3.3314,-3.2736,-3.2764,-4.3479,-4.3479,-4.3479,-4.3516,-4.3589,-4.3516,-4.3479,-4.3479,-4.3479,-4.3479,-4.3479,-4.3479,-4.3479,-4.3479,-4.3479,-4.3479,-4.3479,-4.3479,-4.3479,-4.3479,-4.3479,-4.3479,-4.3479,-4.3442,-4.3423,-4.3277,-4.2837,-4.2139,-4.1315,-4.0524,-4.0524,-4.0469,-3.9974,-3.9588,-3.9937,-3.9918,-3.9882,-3.979,-3.9148,-3.8781,-3.867,-3.856,-3.8505,-3.8432,-3.8322,-3.8175,-3.8157,-3.8157,-3.79,-3.7533,-3.7716,-3.7221,-3.6358,-3.6633,-3.6156,-3.5133,-3.5023,-3.4637,-3.4009,-3.3899,-3.392,-3.3923,-3.4393,-3.4555,-3.4487,-3.4804,-3.5267,-3.5071,-3.5759,-3.5749,-3.5652,-3.6001,-3.6238,-3.6516,-3.6756,-3.702,-3.7036,-3.6881,-3.6719,-3.6319,-3.7004,-3.7406,-3.6351,-3.5714,-3.5626,-3.5256,-3.4701,-3.4383,-3.4249,-3.4509,-3.4766,-3.4912,-3.5188,-3.5,-3.478,-3.4784,-3.4711,-3.4156,-3.3807,-3.3807,-3.3807,-3.3807,-3.3807,-3.3807,-3.3807,-3.3807,-3.3807,-3.3807,-3.3807,-3.3752,-3.3256,-3.3018,-3.3012,-3.2996,-3.2902,-4.3479,-4.3479,-4.3479,-4.3479,-4.3479,-4.3479,-4.3479,-4.3479,-4.3479,-4.3479,-4.3479,-4.3479,-4.3479,-4.3479,-4.3479,-4.3479,-4.3479,-4.3479,-4.3479,-4.3479,-4.3479,-4.3479,-4.3479,-4.3479,-4.3461,-4.3424,-4.3112,-4.2873,-4.2727,-4.1203,-4.0783,-4.0783,-4.0432,-4.0506,-4.0487,-4.0341,-4.0102,-4.0341,-3.9551,-3.8707,-3.8707,-3.8707,-3.8707,-3.8707,-3.8707,-3.8707,-3.8707,-3.8707,-3.8487,-3.8138,-3.8358,-3.7716,-3.707,-3.7272,-3.656,-3.5936,-3.583,-3.5789,-3.5312,-3.5037,-3.4325,-3.4179,-3.4041,-3.4209,-3.4052,-3.4346,-3.472,-3.5128,-3.5415,-3.5477,-3.5855,-3.5903,-3.6125,-3.6517,-3.6838,-3.7181,-3.7249,-3.6948,-3.6648,-3.6046,-3.6217,-3.6482,-3.5902,-3.5657,-3.5548,-3.5626,-3.5224,-3.4921,-3.4743,-3.5349,-3.5789,-3.5789,-3.5881,-3.5752,-3.5605,-3.5224,-3.4894,-3.4399,-3.4027,-3.3807,-3.3807,-3.3807,-3.3807,-3.3807,-3.3807,-3.3807,-3.3807,-3.3807,-3.3807,-3.3642,-3.333,-3.322,-3.3366,-3.3128,-3.2708,-4.3479,-4.3479,-4.3479,-4.3479,-4.3479,-4.3479,-4.3479,-4.3479,-4.3479,-4.3479,-4.3479,-4.3479,-4.3479,-4.3479,-4.3479,-4.3479,-4.3479,-4.3479,-4.3479,-4.3479,-4.3479,-4.3479,-4.3479,-4.3442,-4.324,-4.3222,-4.302,-4.2818,-4.1846,-4.1111,-4.0471,-4.0288,-4.0802,-4.0689,-4.0634,-4.0396,-4.0377,-4.0286,-3.935,-3.8707,-3.8707,-3.8707,-3.8707,-3.8707,-3.8707,-3.8707,-3.8707,-3.8707,-3.8689,-3.8524,-3.8248,-3.79,-3.7698,-3.7477,-3.6982,-3.6835,-3.6413,-3.634,-3.6028,-3.5389,-3.4839,-3.489,-3.4229,-3.3825,-3.3834,-3.4022,-3.4302,-3.4699,-3.5208,-3.5261,-3.5352,-3.5435,-3.5967,-3.6361,-3.6695,-3.7029,-3.7389,-3.7095,-3.6671,-3.6032,-3.5857,-3.5857,-3.563,-3.5632,-3.5564,-3.5712,-3.581,-3.5559,-3.5372,-3.5968,-3.6505,-3.6486,-3.6285,-3.5991,-3.5642,-3.5224,-3.4912,-3.4619,-3.4234,-3.3844,-3.3807,-3.3807,-3.3807,-3.3807,-3.3807,-3.3807,-3.3807,-3.3807,-3.3807,-3.3807,-3.3715,-3.3678,-3.3788,-3.3421,-3.2931,-4.3479,-4.3479,-4.3479,-4.3479,-4.3479,-4.3479,-4.3479,-4.3479,-4.3479,-4.3479,-4.3479,-4.3441,-4.3296,-4.3368,-4.3351,-4.3296,-4.3314,-4.3332,-4.3424,-4.3461,-4.3479,-4.3479,-4.3479,-4.3461,-4.3222,-4.2708,-4.2378,-4.2047,-4.0322,-4.0175,-3.9735,-3.9386,-4.0306,-4.0304,-4.0212,-4.0304,-4.0359,-3.9955,-3.9276,-3.8781,-3.8707,-3.8707,-3.8707,-3.8707,-3.8707,-3.8707,-3.8707,-3.8707,-3.8707,-3.867,-3.8634,-3.8634,-3.8652,-3.8689,-3.8175,-3.7547,-3.6725,-3.656,-3.6358,-3.5701,-3.5734,-3.5771,-3.4853,-3.4229,-3.4059,-3.4296,-3.4539,-3.4686,-3.5027,-3.4652,-3.4428,-3.5081,-3.5703,-3.6025,-3.6356,-3.6808,-3.7352,-3.7207,-3.6785,-3.6478,-3.6489,-3.6302,-3.5602,-3.543,-3.5883,-3.6072,-3.627,-3.6468,-3.6354,-3.6556,-3.6964,-3.6945,-3.6652,-3.6119,-3.5738,-3.5426,-3.4968,-3.4692,-3.4192,-3.3807,-3.3807,-3.3807,-3.3807,-3.3807,-3.3807,-3.3807,-3.3807,-3.3807,-3.3807,-3.3807,-3.3807,-3.3807,-3.3807,-3.3807,-3.3508,-4.3479,-4.3479,-4.3479,-4.3479,-4.3479,-4.3479,-4.3479,-4.3479,-4.3479,-4.3479,-4.3478,-4.2873,-4.28,-4.2616,-4.2066,-4.2286,-4.247,-4.2745,-4.3075,-4.3222,-4.3351,-4.3442,-4.3461,-4.3424,-4.3277,-4.2928,-4.2451,-4.1754,-4.1313,-4.0579,-3.9441,-3.9074,-3.9772,-3.9643,-3.9625,-3.9827,-3.9882,-3.9717,-3.9038,-3.8799,-3.8707,-3.8707,-3.867,-3.8615,-3.8597,-3.8579,-3.8579,-3.8542,-3.8542,-3.8652,-3.867,-3.8689,-3.8707,-3.867,-3.8358,-3.7621,-3.7272,-3.7162,-3.7015,-3.6376,-3.6211,-3.6648,-3.5973,-3.5752,-3.544,-3.5202,-3.522,-3.533,-3.5385,-3.5257,-3.5293,-3.5752,-3.6229,-3.656,-3.6725,-3.6813,-3.7169,-3.6679,-3.631,-3.6493,-3.6509,-3.6167,-3.5489,-3.5915,-3.6338,-3.6501,-3.6762,-3.7074,-3.7184,-3.7312,-3.7331,-3.7294,-3.6725,-3.6119,-3.6046,-3.5789,-3.5224,-3.4729,-3.4211,-3.3807,-3.3807,-3.3807,-3.3807,-3.3807,-3.3807,-3.3807,-3.3807,-3.3807,-3.3807,-3.3807,-3.3807,-3.3807,-3.3807,-3.3807,-3.3807,-4.3479,-4.3479,-4.3479,-4.3479,-4.3479,-4.3479,-4.3479,-4.3479,-4.3479,-4.3479,-4.3441,-4.302,-4.2598,-4.2378,-4.2213,-4.2121,-4.1846,-4.2268,-4.2598,-4.28,-4.302,-4.3259,-4.3314,-4.313,-4.269,-4.2415,-4.1791,-4.0873,-4.0781,-4.0157,-3.9056,-3.8799,-3.9294,-3.9074,-3.9001,-3.9203,-3.935,-3.9239,-3.8982,-3.8762,-3.867,-3.8634,-3.8542,-3.8248,-3.823,-3.823,-3.8157,-3.8046,-3.7936,-3.8046,-3.8046,-3.7955,-3.8175,-3.8432,-3.8322,-3.7676,-3.7474,-3.7199,-3.6831,-3.6119,-3.6523,-3.6886,-3.656,-3.6505,-3.6486,-3.6358,-3.6321,-3.634,-3.6321,-3.6336,-3.6501,-3.6703,-3.7033,-3.7382,-3.7162,-3.6927,-3.6505,-3.5977,-3.6009,-3.6207,-3.6107,-3.5827,-3.5877,-3.6413,-3.6835,-3.7092,-3.7477,-3.7936,-3.7863,-3.7679,-3.7639,-3.7566,-3.678,-3.6028,-3.5991,-3.5734,-3.4945,-3.4362,-3.4119,-3.3825,-3.3825,-3.3807,-3.3807,-3.3807,-3.3807,-3.3807,-3.3807,-3.3807,-3.3807,-3.3807,-3.3807,-3.3807,-3.3807,-3.3807,-3.3807,-4.3479,-4.3479,-4.3479,-4.3479,-4.3479,-4.3479,-4.3479,-4.3479,-4.3479,-4.3479,-4.3496,-4.3387,-4.2855,-4.2396,-4.2268,-4.2029,-4.1699,-4.1772,-4.2011,-4.2231,-4.2213,-4.247,-4.2653,-4.2561,-4.2029,-4.113,-4.0304,-3.9735,-3.8982,-3.8762,-3.8891,-3.8689,-3.8597,-3.856,-3.8762,-3.834,-3.8377,-3.8524,-3.8358,-3.8175,-3.8377,-3.8414,-3.8193,-3.7533,-3.7419,-3.7401,-3.7235,-3.696,-3.6629,-3.6886,-3.6978,-3.6886,-3.7367,-3.8065,-3.7918,-3.7514,-3.7144,-3.678,-3.6266,-3.5573,-3.6229,-3.6431,-3.6193,-3.6853,-3.7202,-3.6762,-3.6523,-3.7,-3.7055,-3.7055,-3.7184,-3.7294,-3.7569,-3.7621,-3.7419,-3.7441,-3.7404,-3.6839,-3.6472,-3.6597,-3.6505,-3.6248,-3.645,-3.6978,-3.7331,-3.7658,-3.801,-3.8542,-3.8395,-3.8028,-3.7918,-3.7768,-3.6835,-3.6028,-3.5573,-3.5202,-3.4339,-3.3862,-3.3825,-3.3825,-3.3807,-3.3807,-3.3807,-3.3807,-3.3807,-3.3807,-3.3807,-3.3807,-3.3807,-3.3807,-3.3807,-3.3807,-3.3807,-3.3807,-3.3807,-4.3479,-4.3479,-4.3479,-4.3479,-4.3479,-4.3479,-4.3479,-4.3479,-4.3479,-4.3442,-4.3369,-4.2873,-4.2508,-4.2272,-4.148,-4.1242,-4.1686,-4.1022,-4.1332,-4.1607,-4.1662,-4.1589,-4.1682,-4.1539,-4.1191,-4.0726,-3.9808,-3.8676,-3.8303,-3.8414,-3.867,-3.8615,-3.834,-3.8212,-3.8597,-3.7936,-3.7441,-3.7863,-3.7276,-3.7312,-3.7569,-3.7147,-3.6707,-3.6578,-3.6578,-3.6578,-3.6468,-3.6395,-3.634,-3.6486,-3.6431,-3.645,-3.6597,-3.7401,-3.6982,-3.6083,-3.645,-3.6248,-3.5646,-3.5279,-3.583,-3.6743,-3.7037,-3.7698,-3.7734,-3.6853,-3.667,-3.7349,-3.7716,-3.7716,-3.7808,-3.7936,-3.7991,-3.7845,-3.7713,-3.7991,-3.8267,-3.7716,-3.7077,-3.6945,-3.689,-3.707,-3.7235,-3.7474,-3.7823,-3.812,-3.8395,-3.8634,-3.8395,-3.812,-3.8157,-3.7863,-3.689,-3.6119,-3.5532,-3.4835,-3.4064,-3.3807,-3.3825,-3.3825,-3.3807,-3.3807,-3.3807,-3.3807,-3.3807,-3.3807,-3.3807,-3.3807,-3.3807,-3.3807,-3.3807,-3.3807,-3.3807,-3.3807,-3.3807,-4.3479,-4.3479,-4.3479,-4.3479,-4.3479,-4.3479,-4.3479,-4.3424,-4.313,-4.2965,-4.3002,-4.282,-4.2514,-4.2117,-4.1161,-4.0436,-4.1005,-4.0258,-4.0453,-4.0818,-4.0934,-4.0965,-4.0787,-4.049,-4.019,-3.9824,-3.9004,-3.8198,-3.7998,-3.834,-3.867,-3.8615,-3.8193,-3.812,-3.8487,-3.7514,-3.6942,-3.7437,-3.6358,-3.6083,-3.6505,-3.6248,-3.5973,-3.5954,-3.5734,-3.5734,-3.5569,-3.5495,-3.544,-3.5605,-3.5665,-3.6046,-3.6376,-3.7144,-3.7037,-3.6652,-3.6541,-3.6303,-3.5445,-3.5169,-3.5481,-3.6285,-3.6431,-3.6527,-3.7,-3.6303,-3.678,-3.7386,-3.7569,-3.7621,-3.8157,-3.8414,-3.8414,-3.8322,-3.8193,-3.8267,-3.8303,-3.8028,-3.7533,-3.7239,-3.7456,-3.7955,-3.8065,-3.8065,-3.8358,-3.8377,-3.867,-3.8707,-3.8469,-3.8098,-3.8175,-3.7863,-3.678,-3.5991,-3.5334,-3.4637,-3.3954,-3.3807,-3.3807,-3.3807,-3.3807,-3.3807,-3.3807,-3.3807,-3.3807,-3.3807,-3.3807,-3.3807,-3.3807,-3.3807,-3.3807,-3.3807,-3.3807,-3.3807,-3.3807,-4.3479,-4.3479,-4.3479,-4.3479,-4.3479,-4.3479,-4.3479,-4.3351,-4.2671,-4.2341,-4.2344,-4.2768,-4.2286,-4.196,-4.1649,-4.0564,-3.9715,-3.9277,-3.9498,-3.9692,-3.9666,-3.9743,-3.9717,-3.9527,-3.9114,-3.8825,-3.8331,-3.8271,-3.8267,-3.8414,-3.8432,-3.8597,-3.856,-3.845,-3.834,-3.7679,-3.6978,-3.6703,-3.5917,-3.5023,-3.5188,-3.5532,-3.5298,-3.5041,-3.4857,-3.4857,-3.4619,-3.4435,-3.4339,-3.4637,-3.5059,-3.5463,-3.6138,-3.6872,-3.7144,-3.7015,-3.7107,-3.6523,-3.5646,-3.5151,-3.5243,-3.5316,-3.5078,-3.5279,-3.5848,-3.6211,-3.6674,-3.7147,-3.7345,-3.7658,-3.8193,-3.8707,-3.8707,-3.8597,-3.8469,-3.8267,-3.8175,-3.8138,-3.7841,-3.7511,-3.8028,-3.8597,-3.8652,-3.867,-3.8689,-3.8689,-3.8689,-3.8707,-3.856,-3.8083,-3.7878,-3.7331,-3.6431,-3.5701,-3.5279,-3.4491,-3.3807,-3.3807,-3.3807,-3.3807,-3.3807,-3.3807,-3.3807,-3.3807,-3.3807,-3.3807,-3.3807,-3.3807,-3.3807,-3.3807,-3.3807,-3.3807,-3.3807,-3.3807,-3.3807,-4.3479,-4.3479,-4.3479,-4.3479,-4.3479,-4.3479,-4.3479,-4.3369,-4.2599,-4.2304,-4.1912,-4.1214,-4.0926,-4.1321,-4.08,-4.0147,-3.9767,-3.883,-3.8381,-3.8595,-3.863,-3.8553,-3.8469,-3.8384,-3.7787,-3.7711,-3.7917,-3.8199,-3.8212,-3.7991,-3.8086,-3.8606,-3.7239,-3.7404,-3.8236,-3.7316,-3.6064,-3.5936,-3.5238,-3.4197,-3.4197,-3.4344,-3.4192,-3.4064,-3.4045,-3.4027,-3.3954,-3.3899,-3.3899,-3.4142,-3.4619,-3.5023,-3.5775,-3.6633,-3.7052,-3.7345,-3.7456,-3.7037,-3.6303,-3.5461,-3.5341,-3.5555,-3.5394,-3.509,-3.5398,-3.5371,-3.5977,-3.678,-3.7015,-3.7217,-3.7716,-3.8469,-3.8689,-3.8395,-3.8193,-3.7845,-3.7621,-3.7749,-3.7749,-3.7933,-3.8377,-3.8652,-3.8689,-3.8689,-3.8689,-3.867,-3.856,-3.8542,-3.8377,-3.7988,-3.7456,-3.678,-3.6009,-3.6028,-3.5844,-3.4504,-3.3807,-3.3807,-3.3807,-3.3807,-3.3807,-3.3807,-3.3807,-3.3807,-3.3807,-3.3807,-3.3807,-3.3807,-3.3807,-3.3807,-3.3807,-3.3807,-3.3807,-3.3807,-3.3807]},{"header":{"parameterUnit":"m.s-1","parameterCategory":1,"la1":31.0,"la2":29.5877,"lo1":-88.7671,"lo2":-86.6584,"dy":0.0162,"dx":0.0185,"nx":115,"ny":88,"refTime":"2023-05-08T12:00:00:Z","depth":0,"parameterNumber":3,"parameterNumberName":"V-component_of_WINDS"},"data":[0.0,0.0,0.0,0.0,0.0,0.0,0.0,0.0,0.0,0.0,0.0,0.0,0.0,0.0,0.0,0.0,0.0,0.0,0.0,0.0,0.0,0.0,0.0,0.0,0.0,0.0,0.0,0.0,0.0,0.0,0.0,0.0,0.0,0.0,0.0,0.0,0.0,0.0,0.0,0.0,0.0,0.0,0.0,0.0,0.0,0.0,0.0,0.0,0.0,0.0,0.0,0.0,0.0,0.0,0.0,0.0,0.0,0.0,0.0,0.0,0.0,0.0,0.0,0.0,0.0,0.0,0.0,0.0,0.0,0.0,0.0,0.0,0.0,0.0,0.0,0.0,0.0,0.0,0.0,0.0,0.0,0.0,0.0,0.0,0.0,0.0,0.0,0.0,0.0,0.0,0.0,0.0,0.0,0.0,0.0,0.0,0.0,0.0,0.0,0.0,0.0,0.0,0.0,0.0,0.0,0.0,0.0,0.0,0.0,0.0,0.0,0.0,0.0,0.0,0.0,0.0,0.0,0.0,0.0,0.0,0.0,0.0,0.0,0.0,0.0,0.0,0.0,0.0,0.0,0.0,0.0,0.0,0.0,0.0,0.0,0.0,0.0,0.0,0.0,0.0,0.0,0.0,0.0,0.0,0.0,0.0,0.0,0.0,0.0,0.0,0.0,0.0,0.0,0.0,0.0,0.0,0.0,0.0,0.0,0.0,0.0,0.0,0.0,0.0,0.0,0.0,0.0,0.0,0.0,0.0,0.0,0.0,0.0,0.0,0.0,0.0,0.0,0.0,0.0,0.0,0.0,0.0,0.0,0.0,0.0,0.0,0.0,0.0,0.0,0.0,0.0,0.0,0.0,0.0,0.0,0.0,0.0,0.0,0.0,0.0,0.0,0.0,0.0,0.0,0.0,0.0,0.0,0.0,0.0,0.0,0.0,0.0,0.0,0.0,0.0,0.0,0.0,0.0,0.0,0.0,0.0,0.0,0.0,0.0,0.0,0.0,0.0,0.0,0.0,0.0,0.0,0.0,0.0,0.0,0.0,0.0,0.0,0.0,0.0,0.0,0.0,0.0,0.0,0.0,0.0,0.0,0.0,0.0,0.0,0.0,0.0,0.0,0.0,0.0,0.0,0.0,0.0,0.0,0.0,0.0,0.0,0.0,0.0,0.0,0.0,0.0,0.0,0.0,0.0,0.0,0.0,0.0,0.0,0.0,0.0,0.0,0.0,0.0,0.0,0.0,0.0,0.0,0.0,0.0,0.0,0.0,0.0,0.0,0.0,0.0,0.0,0.0,0.0,0.0,0.0,0.0,0.0,0.0,0.0,0.0,0.0,0.0,0.0,0.0,0.0,0.0,0.0,0.0,0.0,0.0,0.0,0.0,0.0,0.0,0.0,0.0,0.0,0.0,0.0,0.0,0.0,0.0,0.0,0.0,0.0,0.0,0.0,0.0,0.0,0.0,0.0,0.0,0.0,0.0,0.0,0.0,0.0,0.0,0.0,0.0,0.0,0.0,0.0,0.0,0.0,0.0,0.0,0.0,0.0,0.0,0.0,0.0,0.0,0.0,0.0,0.0,0.0,0.0,0.0,0.0,0.0,0.0,0.0,0.0,0.0,0.0,0.0,0.0,0.0,0.0,0.0,0.0,0.0,0.0,0.0,0.0,0.0,0.0,0.0,0.0,0.0,0.0,0.0,0.0,0.0,0.0,0.0,0.0,0.0,0.0,0.0,0.0,0.0,0.0,0.0,0.0,0.0,0.0,0.0,0.0,0.0,0.0,0.0,0.0,0.0,0.0,0.0,0.0,0.0,0.0,0.0,0.0,0.0,0.0,0.0,0.0,0.0,0.0,0.0,0.0,0.0,0.0,0.0,0.0,0.0,0.0,0.0,0.0,0.0,0.0,0.0,0.0,0.0,0.0,0.0,0.0,0.0,0.0,0.0,0.0,0.0,0.0,0.0,0.0,0.0,0.0,0.0,0.0,0.0,0.0,0.0,0.0,0.0,0.0,0.0,0.0,0.0,0.0,0.0,0.0,0.0,0.0,0.0,0.0,0.0,0.0,0.0,0.0,0.0,0.0,0.0,0.0,0.0,0.0,0.0,0.0,0.0,0.0,0.0,0.0,0.0,0.0,0.0,0.0,0.0,0.0,0.0,0.0,0.0,0.0,0.0,0.0,0.0,0.0,0.0,0.0,0.0,0.0,0.0,0.0,0.0,0.0,0.0,0.0,0.0,0.0,0.0,0.0,0.0,0.0,0.0,0.0,0.0,0.0,0.0,0.0,0.0,0.0,0.0,0.0,0.0,0.0,0.0,0.0,0.0,0.0,0.0,0.0,0.0,0.0,0.0,0.0,0.0,0.0,0.0,0.0,0.0,0.0,0.0,0.0,0.0,0.0,0.0,0.0,0.0,0.0,0.0,0.0,0.0,0.0,0.0,0.0,0.0,0.0,0.0,0.0,0.0,0.0,0.0,0.0,0.0,0.0,0.0,0.0,0.0,0.0,0.0,0.0,0.0,0.0,0.0,0.0,0.0,0.0,0.0,0.0,0.0,0.0,0.0,0.0,0.0,0.0,0.0,0.0,0.0,0.0,0.0,0.0,0.0,0.0,0.0,0.0,0.0,0.0,0.0,0.0,0.0,0.0,0.0,0.0,0.0,0.0,0.0,0.0,0.0,0.0,0.0,0.0,0.0,0.0,0.0,0.0,0.0,0.0,0.0,0.0,0.0,0.0,0.0,0.0,0.0,0.0,0.0,0.0,0.0,0.0,0.0,0.0,0.0,0.0,0.0,0.0,0.0,0.0,0.0,0.0,0.0,0.0,0.0,0.0,0.0,0.0,0.0,0.0,0.0,0.0,0.0,0.0,0.0,0.0,0.0,0.0,0.0,0.0,0.0,0.0,0.0,0.0,0.0,0.0,0.0,0.0,0.0,0.0,0.0,0.0,0.0,0.0,0.0,0.0,0.0,0.0,0.0,0.0,0.0,0.0,0.0,0.0,0.0,0.0,0.0,0.0,0.0,0.0,0.0,0.0,0.0,0.0,0.0,0.0,0.0,0.0,0.0,0.0,0.0,0.0,0.0,0.0,0.0,0.0,0.0,0.0,0.0,0.0,0.0,0.0,0.0,0.0,0.0,0.0,0.0,0.0,0.0,0.0,0.0,0.0,0.0,0.0,0.0,0.0,0.0,0.0,0.0,0.0,0.0,0.0,0.0,0.0,0.0,0.0,0.0,0.0,0.0,0.0,0.0,0.0,0.0,0.0,0.0,0.0,0.0,0.0,0.0,0.0,0.0,0.0,0.0,0.0,0.0,0.0,0.0,0.0,0.0,0.0,0.0,0.0,0.0,0.0,0.0,0.0,0.0,0.0,0.0,0.0,0.0,0.0,0.0,0.0,0.0,0.0,0.0,0.0,0.0,0.0,0.0,0.0,0.0,0.0,0.0,0.0,0.0,0.0,0.0,0.0,0.0,0.0,0.0,0.0,0.0,0.0,0.0,0.0,0.0,0.0,0.0,0.0,0.0,0.0,0.0,0.0,0.0,0.0,0.0,0.0,0.0,0.0,0.0,0.0,0.0,0.0,0.0,0.0,0.0,0.0,0.0,0.0,0.0,0.0,0.0,0.0,0.0,0.0,0.0,0.0,0.0,0.0,0.0,0.0,0.0,0.0,0.0,0.0,0.0,0.0,0.0,0.0,0.0,0.0,0.0,0.0,0.0,0.0,0.0,0.0,0.0,0.0,0.0,0.0,0.0,0.0,0.0,0.0,0.0,0.0,0.0,0.0,0.0,0.0,0.0,0.0,0.0,0.0,0.0,0.0,0.0,0.0,0.0,0.0,0.0,0.0,0.0,0.0,0.0,0.0,0.0,0.0,0.0,0.0,0.0,0.0,0.0,0.0,0.0,0.0,0.0,0.0,0.0,0.0,0.0,0.0,0.0,0.0,0.0,0.0,0.0,0.0,0.0,0.0,0.0,0.0,0.0,0.0,0.0,0.0,0.0,0.0,0.0,0.0,0.0,0.0,0.0,0.0,0.0,0.0,0.0,0.0,0.0,0.0,0.0,0.0,0.0,0.0,0.0,0.0,0.0,0.0,0.0,0.0,0.0,0.0,0.0,0.0,0.0,0.0,0.0,0.0,0.0,0.0,0.0,0.0,0.0,0.0,0.0,0.0,0.0,0.0,0.0,0.0,0.0,0.0,0.0,0.0,0.0,0.0,0.0,0.0,0.0,0.0,0.0,0.0,0.0,0.0,-0.2051,0.0,0.0,0.0,-0.6638,0.0,0.0,0.0,0.0,0.0,0.0,0.0,0.0,0.0,0.0,0.0,0.0,0.0,0.0,0.0,0.0,0.0,0.0,0.0,0.0,0.0,0.0,0.0,0.0,0.0,0.0,0.0,0.0,0.0,0.0,0.0,0.0,0.0,0.0,0.0,0.0,0.0,0.0,0.0,0.0,0.0,0.0,0.0,0.0,0.0,0.0,0.0,0.0,0.0,0.0,0.0,0.0,0.0,0.0,0.0,0.0,0.0,0.0,0.0,0.0,0.0,0.0,0.0,0.0,0.0,0.0,0.0,0.0,0.0,0.0,0.0,0.0,0.0,0.0,0.0,0.0,0.0,0.0,0.0,0.0,0.0,0.0,0.0,0.0,0.0,0.0,0.0,0.0,0.0,0.0,0.0,0.0,0.0,0.0,0.0,0.0,0.0,0.0,0.0,0.0,0.0,0.0,0.0,0.0,0.0,0.0,0.0,0.0,0.0,0.0,-0.2285,-0.3322,-0.422,-0.5378,-0.6765,0.0,0.0,0.0,0.0,0.0,0.0,0.0,0.0,0.0,0.0,0.0,0.0,0.0,0.0,0.0,0.0,0.0,0.0,0.0,0.0,0.0,0.0,0.0,0.0,0.0,0.0,0.0,0.0,0.0,0.0,0.0,0.0,0.0,0.0,0.0,0.0,0.0,0.0,0.0,0.0,0.0,0.0,0.0,0.0,0.0,0.0,0.0,0.0,0.0,0.0,0.0,0.0,0.0,0.0,0.0,0.0,0.0,0.0,0.0,0.0,0.0,0.0,0.0,0.0,0.0,0.0,0.0,0.0,0.0,0.0,0.0,0.0,0.0,0.0,0.0,0.0,0.0,0.0,0.0,0.0,0.0,0.0,0.0,0.0,0.0,0.0,0.0,0.0,0.0,0.0,0.0,0.0,0.0,0.0,0.0,0.0,0.0,0.0,0.0,0.0,0.0,0.0,0.0,0.0,0.0,0.0,0.0,0.0,0.0,0.0,0.0,0.0,-0.4399,-0.5628,-0.7155,0.0,0.0,0.0,0.0,0.0,0.0,0.0,0.0,0.0,0.0,0.0,0.0,0.0,0.0,0.0,0.0,0.0,0.0,0.0,0.0,0.0,0.0,0.0,0.0,0.0,0.0,0.0,0.0,0.0,0.0,0.0,0.0,0.0,0.0,0.0,0.0,0.0,0.0,0.0,0.0,0.0,0.0,0.0,0.0,0.0,0.0,0.0,0.0,0.0,0.0,0.0,0.0,0.0,0.0,0.0,0.0,0.0,0.0,0.0,0.0,0.0,0.0,0.0,0.0,0.0,0.0,0.0,0.0,0.0,0.0,0.0,0.0,0.0,0.0,0.0,0.0,0.0,0.0,0.0,0.0,0.0,0.0,0.0,0.0,0.0,0.0,0.0,0.0,0.0,0.0,0.0,0.0,0.0,0.0,0.0,0.0,0.0,0.0,0.0,0.0,0.0,0.0,0.0,0.0,0.0,0.0,0.0,0.0,0.0,0.0,-0.2613,-0.3389,-0.4574,0.0,-0.7972,0.0,0.0,0.0,0.0,0.0,0.0,0.0,0.0,0.0,0.0,0.0,0.0,0.0,0.0,0.0,0.0,0.0,0.0,0.0,0.0,0.0,0.0,0.0,0.0,0.0,0.0,0.0,0.0,0.0,0.0,0.0,0.0,0.0,0.0,0.0,0.0,0.0,0.0,0.0,0.0,0.0,0.0,0.0,0.0,0.0,0.0,0.0,0.0,0.0,0.0,0.0,0.0,0.0,0.0,0.0,0.0,0.0,0.0,0.0,0.0,0.0,0.0,0.0,0.0,0.0,0.0,0.0,0.0,0.0,0.0,0.0,0.0,0.0,0.0,0.0,0.0,0.0,0.0,0.0,0.0,0.0,0.0,0.0,0.0,0.0,0.0,0.0,0.0,0.0,0.0,0.0,0.0,0.0,0.0,0.0,0.0,0.0,0.0,0.0,0.0,0.0,0.0,0.0,0.0,0.0,0.0,0.0,0.0,0.0,0.0,-0.2413,-0.338,-0.5178,-0.678,0.0,0.0,0.0,0.0,0.0,0.0,0.0,0.0,0.0,0.0,0.0,0.0,0.0,0.0,0.0,0.0,0.0,0.0,0.0,0.0,0.0,0.0,0.0,0.0,0.0,0.0,0.0,0.0,0.0,0.0,0.0,0.0,0.0,0.0,0.0,0.0,0.0,0.0,0.0,0.0,0.0,0.0,0.0,0.0,0.0,0.0,0.0,0.0,0.0,0.0,0.0,0.0,0.0,0.0,0.0,0.0,0.0,0.0,0.0,0.0,0.0,0.0,0.0,0.0,0.0,0.0,0.0,0.0,0.0,0.0,0.0,0.0,0.0,0.0,0.0,0.0,0.0,0.0,0.0,0.0,0.0,0.0,0.0,0.0,0.0,0.0,0.0,0.0,0.0,0.0,0.0,0.0,0.0,0.0,0.0,0.0,0.0,0.0,0.0,0.0,0.0,0.0,0.0,0.0,0.0,0.0,0.0,0.0,0.0,0.0,-0.1417,-0.2435,-0.3923,-0.5837,-0.7316,-0.8225,0.0,0.0,0.0,0.0,0.0,0.0,0.0,0.0,0.0,0.0,0.0,0.0,0.0,0.0,0.0,0.0,0.0,0.0,0.0,0.0,0.0,0.0,0.0,0.0,0.0,0.0,0.0,0.0,0.0,0.0,0.0,0.0,0.0,0.0,0.0,0.0,0.0,0.0,0.0,0.0,0.0,0.0,0.0,0.0,0.0,0.0,0.0,0.0,0.0,0.0,0.0,0.0,0.0,0.0,0.0,0.0,0.0,0.0,0.0,0.0,0.0,0.0,0.0,0.0,0.0,0.0,0.0,0.0,0.0,0.0,0.0,0.0,0.0,0.0,0.0,0.0,0.0,0.0,0.0,0.0,0.0,0.0,0.0,0.0,0.0,0.0,0.0,0.0,0.0,0.0,0.0,0.0,0.0,0.0,0.0,0.0,0.0,0.0,0.0,0.0,0.0,0.0,0.0,0.0,0.0,0.0,0.0,0.0,-0.0655,-0.1416,-0.2893,-0.5123,-0.6409,-0.7535,0.0,0.0,0.0,0.0,0.0,0.0,0.0,0.0,0.0,0.0,0.0,0.0,0.0,0.0,0.0,0.0,0.0,0.0,0.0,0.0,0.0,0.0,0.0,0.0,0.0,0.0,0.0,0.0,0.0,0.0,0.0,0.0,0.0,0.0,0.0,0.0,0.0,0.0,0.0,0.0,0.0,0.0,0.0,0.0,0.0,0.0,0.0,0.0,0.0,0.0,0.0,0.0,0.0,0.0,0.0,0.0,0.0,0.0,0.0,0.0,0.0,0.0,0.0,0.0,0.0,0.0,0.0,0.0,0.0,0.0,0.0,0.0,0.0,0.0,0.0,0.0,0.0,0.0,0.0,0.0,0.0,0.0,0.0,0.0,0.0,0.0,0.0,0.0,0.0,0.0,0.0,0.0,0.0,0.0,0.0,0.0,0.0,0.0,0.0,0.0,0.0,0.0,0.0,0.0,0.0,0.0,0.0,0.0,0.0,-0.0672,-0.1948,-0.3413,-0.5074,-0.6392,-0.7556,0.0,0.0,0.0,0.0,0.0,0.0,0.0,0.0,0.0,0.0,0.0,0.0,0.0,0.0,0.0,0.0,0.0,0.0,0.0,0.0,0.0,0.0,0.0,0.0,0.0,0.0,0.0,0.0,0.0,0.0,0.0,0.0,0.0,0.0,0.0,0.0,0.0,0.0,0.0,0.0,0.0,0.0,0.0,0.0,0.0,0.0,0.0,0.0,0.0,0.0,0.0,0.0,0.0,0.0,0.0,0.0,0.0,0.0,0.0,0.0,0.0,0.0,0.0,0.0,0.0,0.0,0.0,0.0,0.0,0.0,0.0,0.0,0.0,0.0,0.0,0.0,0.0,0.0,0.0,0.0,0.0,0.0,0.0,0.0,0.0,0.0,0.0,0.0,0.0,0.0,0.0,0.0,0.0,0.0,0.0,0.0,0.0,0.0,0.0,0.0,0.0,0.0,0.0,0.0,0.0,0.0,0.0,0.0,0.0,-0.089,0.0,-0.376,-0.5022,-0.6405,-0.757,0.0,0.0,0.0,0.0,0.0,0.0,0.0,0.0,0.0,0.0,0.0,0.0,0.0,0.0,0.0,0.0,0.0,0.0,0.0,0.0,0.0,0.0,0.0,0.0,0.0,0.0,0.0,0.0,0.0,0.0,0.0,0.0,0.0,0.0,0.0,0.0,0.0,0.0,0.0,0.0,0.0,0.0,0.0,0.0,0.0,0.0,0.0,0.0,0.0,0.0,0.0,0.0,0.0,0.0,0.0,0.0,0.0,0.0,0.0,0.0,0.0,0.0,0.0,0.0,0.0,0.0,0.0,0.0,0.0,0.0,0.0,0.0,0.0,0.0,0.0,0.0,0.0,0.0,0.0,0.0,0.0,0.0,0.0,0.0,0.0,0.0,0.0,0.0,0.0,0.0,0.0,0.0,0.0,0.0,0.0,0.0,0.0,0.0,0.0,0.0,0.0,0.0,0.0,0.0,0.0,0.0,0.0,0.0,-0.0757,-0.1296,-0.2598,-0.3853,-0.5063,-0.6534,-0.7676,0.0,0.0,0.0,0.0,0.0,0.0,0.0,0.0,0.0,0.0,0.0,0.0,0.0,0.0,0.0,0.0,0.0,0.0,0.0,0.0,0.0,0.0,0.0,0.0,0.0,0.0,0.0,0.0,0.0,0.0,0.0,0.0,0.0,0.0,0.0,0.0,0.0,0.0,0.0,0.0,0.0,0.0,0.0,0.0,0.0,0.0,0.0,0.0,0.0,0.0,0.0,0.0,0.0,0.0,0.0,0.0,0.0,0.0,0.0,0.0,0.0,0.0,0.0,0.0,0.0,0.0,0.0,0.0,0.0,0.0,0.0,0.0,0.0,0.0,0.0,0.0,0.0,0.0,0.0,0.0,0.0,0.0,0.0,0.0,0.0,0.0,0.0,0.0,0.0,0.0,0.0,0.0,0.0,0.0,0.0,0.0,0.0,0.0,0.0,0.0,0.0,0.0,0.0,0.0,0.0,0.0,0.0,0.0,0.0,-0.1299,-0.2473,-0.3694,-0.5015,-0.6391,-0.7555,0.0,0.0,0.0,0.0,0.0,0.0,0.0,0.0,0.0,0.0,0.0,0.0,0.0,0.0,0.0,0.0,0.0,0.0,0.0,0.0,0.0,0.0,0.0,0.0,0.0,0.0,0.0,0.0,0.0,0.0,0.0,0.0,0.0,0.0,0.0,0.0,0.0,0.0,0.0,0.0,0.0,0.0,0.0,0.0,0.0,0.0,0.0,0.0,0.0,0.0,0.0,0.0,0.0,0.0,0.0,0.0,0.0,0.0,0.0,0.0,0.0,0.0,0.0,0.0,0.0,0.0,0.0,0.0,0.0,0.0,0.0,0.0,0.0,0.0,0.0,0.0,0.0,0.0,0.0,0.0,0.0,0.0,0.0,0.0,0.0,0.0,0.0,0.0,0.0,0.0,0.0,0.0,0.0,0.0,0.0,0.0,0.0,0.0,0.0,0.0,0.0,0.0,0.0,0.0,0.0,0.0,0.0,0.0,0.0,-0.1392,-0.2521,-0.3727,-0.5009,-0.6303,-0.7465,-0.847,0.0,0.0,0.0,0.0,0.0,0.0,0.0,0.0,0.0,0.0,0.0,0.0,0.0,0.0,0.0,0.0,0.0,0.0,0.0,0.0,0.0,0.0,0.0,0.0,0.0,0.0,0.0,0.0,0.0,0.0,0.0,0.0,0.0,0.0,0.0,0.0,0.0,0.0,0.0,0.0,0.0,0.0,0.0,0.0,0.0,0.0,0.0,0.0,0.0,0.0,0.0,0.0,0.0,0.0,0.0,0.0,0.0,0.0,0.0,0.0,0.0,0.0,0.0,0.0,0.0,0.0,0.0,0.0,0.0,0.0,0.0,0.0,0.0,0.0,0.0,0.0,0.0,0.0,0.0,0.0,0.0,0.0,0.0,0.0,0.0,0.0,0.0,0.0,0.0,0.0,0.0,0.0,0.0,0.0,0.0,0.0,0.0,0.0,0.0,0.0,0.0,0.0,0.0,0.0,0.0,0.0,0.0,0.0,-0.1482,-0.27,-0.3881,-0.5063,-0.6291,-0.7465,0.0,0.0,0.0,0.0,0.0,0.0,0.0,0.0,0.0,0.0,0.0,0.0,0.0,0.0,0.0,0.0,0.0,0.0,0.0,0.0,0.0,0.0,0.0,0.0,0.0,0.0,0.0,0.0,0.0,0.0,0.0,0.0,0.0,0.0,0.0,0.0,0.0,0.0,0.0,0.0,0.0,0.0,0.0,0.0,0.0,0.0,0.0,0.0,0.0,0.0,0.0,0.0,0.0,0.0,0.0,0.0,0.0,0.0,0.0,0.0,0.0,0.0,0.0,0.0,0.0,0.0,0.0,0.0,0.0,0.0,0.0,0.0,0.0,0.0,0.0,0.0,0.0,0.0,0.0,0.0,0.0,0.0,0.0,0.0,0.0,0.0,0.0,0.0,0.0,0.0,0.0,0.0,0.0,0.0,0.0,0.0,0.0,0.0,0.0,0.0,0.0,0.0,0.0,0.0,0.0,0.0,0.0,0.0,0.0,-0.1513,-0.2646,-0.3796,-0.4924,-0.612,-0.7268,0.0,0.0,0.0,0.0,0.0,0.0,0.0,0.0,0.0,0.0,0.0,0.0,0.0,0.0,0.0,0.0,0.0,0.0,0.0,0.0,0.0,0.0,0.0,0.0,0.0,0.0,0.0,0.0,0.0,0.0,0.0,0.0,0.0,0.0,0.0,0.0,0.0,0.0,0.0,0.0,0.0,0.0,0.0,0.0,0.0,0.0,0.0,0.0,0.0,0.0,0.0,0.0,0.0,0.0,0.0,0.0,0.0,0.0,0.0,0.0,0.0,0.0,0.0,0.0,0.0,0.0,0.0,0.0,0.0,0.0,0.0,0.0,0.0,0.0,0.0,0.0,0.0,0.0,0.0,0.0,0.0,0.0,0.0,0.0,0.0,0.0,0.0,0.0,0.0,0.0,0.0,0.0,0.0,0.0,0.0,0.0,0.0,0.0,0.0,0.0,0.0,0.0,0.0,0.0,0.0,0.0,0.0,0.0,-0.1034,-0.1546,-0.2656,-0.372,-0.4823,-0.6031,-0.721,0.0,0.0,0.0,0.0,0.0,0.0,0.0,0.0,0.0,0.0,0.0,0.0,0.0,0.0,0.0,0.0,0.0,0.0,0.0,0.0,0.0,0.0,0.0,0.0,0.0,0.0,0.0,0.0,0.0,0.0,0.0,0.0,0.0,0.0,0.0,0.0,0.0,0.0,0.0,0.0,0.0,0.0,0.0,0.0,0.0,0.0,0.0,0.0,0.0,0.0,0.0,0.0,0.0,0.0,0.0,0.0,0.0,0.0,0.0,0.0,0.0,0.0,0.0,0.0,0.0,0.0,0.0,0.0,0.0,0.0,0.0,0.0,0.0,0.0,0.0,0.0,0.0,0.0,0.0,0.0,0.0,0.0,0.0,0.0,0.0,0.0,0.0,0.0,0.0,0.0,0.0,0.0,0.0,0.0,0.0,0.0,0.0,0.0,0.0,0.0,0.0,0.0,0.0,0.0,0.0,0.0,0.0,0.0,-0.1101,-0.162,-0.2682,-0.3725,-0.4774,-0.6047,-0.7244,0.0,0.0,0.0,0.0,0.0,0.0,0.0,0.0,0.0,0.0,0.0,0.0,0.0,0.0,0.0,0.0,0.0,0.0,0.0,0.0,0.0,0.0,0.0,0.0,0.0,0.0,0.0,0.0,0.0,0.0,0.0,0.0,0.0,0.0,0.0,0.0,0.0,0.0,0.0,0.0,0.0,0.0,0.0,0.0,0.0,0.0,0.0,0.0,0.0,0.0,0.0,0.0,0.0,0.0,0.0,0.0,0.0,0.0,0.0,0.0,0.0,0.0,0.0,0.0,0.0,0.0,0.0,0.0,0.0,0.0,0.0,0.0,0.0,0.0,0.0,0.0,0.0,0.0,0.0,0.0,0.0,0.0,0.0,0.0,0.0,0.0,0.0,0.0,0.0,0.0,0.0,0.0,0.0,0.0,0.0,0.0,0.0,0.0,0.0,0.0,0.0,0.0,0.0,0.0,0.0,0.0,0.0,0.0,-0.1256,-0.1622,-0.2749,-0.3819,-0.4784,-0.6035,-0.7267,0.0,0.0,0.0,0.0,0.0,0.0,0.0,0.0,0.0,0.0,0.0,0.0,0.0,0.0,0.0,0.0,0.0,0.0,0.0,0.0,0.0,0.0,0.0,0.0,0.0,0.0,0.0,0.0,0.0,0.0,0.0,0.0,0.0,0.0,0.0,0.0,0.0,0.0,0.0,0.0,0.0,0.0,0.0,0.0,0.0,0.0,0.0,0.0,-0.6857,0.0,0.0,0.0,0.0,0.0,0.0,0.0,0.0,0.0,0.0,0.0,0.0,0.0,0.0,0.0,0.0,0.0,0.0,0.0,0.0,0.0,0.0,0.0,0.0,0.0,0.0,0.0,0.0,0.0,0.0,0.0,0.0,0.0,0.0,0.0,0.0,0.0,0.0,0.0,0.0,0.0,0.0,0.0,0.0,0.0,0.0,0.0,0.0,0.0,0.0,0.0,0.0,0.0,0.0,0.0,0.0,0.0,0.0,0.0,-0.1321,-0.1623,-0.277,-0.385,-0.4786,-0.6119,-0.7299,0.0,0.0,0.0,0.0,0.0,0.0,0.0,0.0,0.0,0.0,0.0,0.0,0.0,0.0,0.0,0.0,0.0,0.0,0.0,0.0,0.0,0.0,0.0,0.0,0.0,0.0,0.0,0.0,0.0,0.0,0.0,0.0,0.0,0.0,0.0,0.0,0.0,0.0,0.0,0.0,0.0,0.0,0.0,0.0,0.0,0.0,0.0,0.0,0.0,0.0,0.0,0.0,0.0,0.0,0.0,0.0,0.0,0.0,0.0,0.0,0.0,0.0,0.0,0.0,0.0,0.0,0.0,0.0,0.0,0.0,0.0,0.0,0.0,0.0,0.0,0.0,0.0,0.0,0.0,0.0,0.0,0.0,0.0,0.0,0.0,0.0,0.0,0.0,0.0,0.0,0.0,0.0,0.0,0.0,0.0,0.0,0.0,0.0,0.0,0.0,0.0,0.0,0.0,0.0,0.0,0.0,0.0,-0.1009,-0.1337,-0.1584,-0.2725,-0.38,-0.4738,-0.609,-0.7288,-0.8154,0.0,0.0,0.0,0.0,0.0,0.0,0.0,0.0,0.0,0.0,0.0,0.0,0.0,0.0,0.0,0.0,0.0,0.0,0.0,0.0,0.0,0.0,0.0,0.0,0.0,0.0,0.0,0.0,0.0,0.0,0.0,0.0,0.0,0.0,0.0,0.0,0.0,0.0,-0.0332,-0.1435,0.0,0.0,0.0,0.0,0.0,0.0,0.0,0.0,-0.7472,0.0,0.0,0.0,0.0,0.0,0.0,0.0,0.0,0.0,0.0,0.0,0.0,0.0,0.0,0.0,0.0,0.0,0.0,0.0,0.0,0.0,0.0,0.0,0.0,0.0,0.0,0.0,0.0,0.0,0.0,0.0,0.0,0.0,0.0,0.0,0.0,0.0,0.0,0.0,0.0,0.0,0.0,0.0,0.0,0.0,0.0,0.0,0.0,0.0,0.0,0.0,0.0,0.0,0.0,0.0,0.0,-0.0649,-0.1155,-0.1394,-0.1319,-0.244,-0.3493,-0.4487,-0.5889,-0.7039,-0.7948,0.0,0.0,0.0,0.0,0.0,0.0,0.0,0.0,0.0,0.0,0.0,0.0,0.0,0.0,0.0,0.0,0.0,0.0,0.0,0.0,0.0,0.0,0.0,0.0,0.0,0.0,0.0,0.0,0.0,0.0,0.0,0.0,0.0,0.0,0.0,0.0,0.0,0.0,0.0,-0.2406,-0.3211,0.0,0.0,0.0,0.0,0.0,0.0,0.0,0.0,-0.744,0.0,0.0,0.0,0.0,0.0,0.0,0.0,0.0,0.0,0.0,0.0,0.0,0.0,0.0,0.0,0.0,0.0,0.0,0.0,0.0,0.0,0.0,0.0,0.0,0.0,0.0,0.0,0.0,0.0,0.0,0.0,0.0,0.0,0.0,0.0,0.0,0.0,0.0,0.0,0.0,0.0,0.0,0.0,0.0,0.0,0.0,0.0,0.0,0.0,0.0,0.0,0.0,0.0,0.0,0.0,-0.0698,-0.1075,-0.1314,-0.1229,-0.2392,-0.3392,-0.4185,-0.5484,-0.6598,0.0,0.0,0.0,0.0,0.0,0.0,0.0,0.0,0.0,0.0,0.0,0.0,0.0,0.0,0.0,0.0,0.0,0.0,0.0,0.0,0.0,0.0,0.0,0.0,0.0,0.0,0.0,0.0,0.0,0.0,0.0,0.0,0.0,0.0,0.0,0.0,0.0,0.0,0.0,0.0,-0.274,-0.3806,-0.5038,0.0,0.0,0.0,0.0,0.0,0.0,-0.7381,-0.7193,0.0,0.0,0.0,0.0,0.0,0.0,0.0,0.0,0.0,0.0,0.0,0.0,0.0,0.0,0.0,0.0,0.0,0.0,0.0,0.0,0.0,0.0,0.0,0.0,0.0,0.0,0.0,0.0,0.0,0.0,0.0,0.0,0.0,0.0,0.0,0.0,0.0,0.0,0.0,0.0,0.0,0.0,0.0,0.0,0.0,0.0,0.0,0.0,0.0,0.0,0.0,0.0,0.0,0.0,0.0,-0.0663,-0.0948,-0.1132,-0.1137,-0.2186,-0.3125,-0.3885,-0.4938,-0.5951,0.0,0.0,0.0,0.0,0.0,0.0,0.0,0.0,0.0,0.0,0.0,0.0,0.0,0.0,0.0,0.0,0.0,0.0,0.0,0.0,0.0,0.0,0.0,0.0,0.0,0.0,0.0,0.0,0.0,0.0,0.0,0.0,0.0,0.0,0.0,0.0,0.0,0.0,0.0,0.0,0.0,-0.4395,-0.5203,-0.6095,0.0,0.0,0.0,0.0,-0.6507,-0.6478,0.0,0.0,0.0,0.0,0.0,0.0,0.0,0.0,0.0,0.0,0.0,0.0,0.0,0.0,0.0,0.0,0.0,0.0,0.0,0.0,0.0,0.0,0.0,0.0,0.0,0.0,0.0,0.0,0.0,0.0,0.0,0.0,0.0,0.0,0.0,0.0,0.0,0.0,0.0,0.0,0.0,0.0,0.0,0.0,0.0,0.0,0.0,0.0,0.0,0.0,0.0,0.0,0.0,0.0,0.0,0.0,-0.0735,-0.0816,-0.0842,-0.0855,-0.1467,-0.2377,-0.3629,-0.4169,-0.5109,0.0,0.0,0.0,0.0,0.0,0.0,0.0,0.0,0.0,0.0,0.0,0.0,0.0,0.0,0.0,0.0,0.0,0.0,0.0,0.0,0.0,0.0,0.0,0.0,0.0,0.0,0.0,0.0,0.0,0.0,0.0,0.0,0.0,0.0,0.0,0.0,0.0,0.0,0.0,0.0,0.0,-0.5027,-0.6456,-0.6567,-0.6556,0.0,0.0,-0.5231,-0.5317,-0.4706,0.0,0.0,0.0,0.0,0.0,0.0,0.0,0.0,0.0,0.0,0.0,0.0,0.0,0.0,0.0,0.0,0.0,0.0,0.0,0.0,0.0,0.0,0.0,0.0,0.0,0.0,0.0,0.0,0.0,0.0,0.0,0.0,0.0,0.0,0.0,0.0,0.0,0.0,0.0,0.0,0.0,0.0,0.0,0.0,0.0,0.0,0.0,0.0,0.0,0.0,0.0,0.0,0.0,0.0,0.0,-0.1392,-0.0741,-0.0632,-0.0601,-0.0606,-0.1123,-0.1744,-0.2458,-0.3184,-0.4047,0.0,0.0,0.0,0.0,0.0,0.0,0.0,0.0,0.0,0.0,0.0,0.0,0.0,0.0,0.0,0.0,0.0,0.0,0.0,0.0,0.0,0.0,0.0,0.0,0.0,0.0,0.0,0.0,0.0,0.0,0.0,0.0,0.0,0.0,0.0,0.0,0.0,0.0,0.0,0.0,0.0,0.0,-0.5013,-0.5177,0.0,0.0,0.0,-0.4473,-0.4148,0.0,0.0,0.0,0.0,0.0,0.0,0.0,0.0,0.0,0.0,0.0,0.0,0.0,0.0,0.0,0.0,0.0,0.0,0.0,0.0,0.0,0.0,0.0,0.0,0.0,0.0,0.0,0.0,0.0,0.0,0.0,0.0,0.0,0.0,0.0,0.0,0.0,0.0,0.0,0.0,0.0,0.0,0.0,0.0,0.0,0.0,0.0,0.0,0.0,0.0,0.0,0.0,0.0,0.0,0.0,0.0,0.0,-0.0705,-0.0446,-0.0357,-0.041,-0.0778,-0.1201,-0.1617,-0.2266,0.0,0.0,0.0,0.0,0.0,0.0,0.0,0.0,0.0,0.0,0.0,0.0,0.0,0.0,0.0,0.0,0.0,0.0,0.0,0.0,0.0,0.0,0.0,0.0,0.0,0.0,0.0,-0.2363,0.0,0.0,0.0,0.0,0.0,0.0,0.0,0.0,0.0,0.0,0.0,0.0,0.0,0.0,-0.3045,-0.3538,-0.3865,-0.4064,0.0,0.0,-0.331,-0.2737,-0.2578,-0.2429,0.0,0.0,0.0,0.0,0.0,0.0,0.0,0.0,0.0,0.0,0.0,0.0,0.0,0.0,0.0,0.0,0.0,0.0,0.0,0.0,0.0,0.0,0.0,0.0,0.0,0.0,0.0,0.0,0.0,0.0,0.0,0.0,0.0,0.0,0.0,0.0,0.0,0.0,0.0,0.0,0.0,0.0,0.0,0.0,0.0,0.0,0.0,0.0,0.0,0.0,0.0,0.0,0.0,0.0,-0.0878,-0.0684,-0.0254,-0.0157,-0.0372,-0.0426,-0.0851,-0.1541,-0.1591,-0.2196,0.0,0.0,0.0,0.0,0.0,0.0,0.0,0.0,0.0,0.0,0.0,0.0,0.0,0.0,0.0,0.0,0.0,0.0,0.0,0.0,0.0,0.0,0.0,0.0,0.0,0.0,0.0,0.0,0.0,0.0,0.0,0.0,0.0,0.0,0.0,0.0,0.0,0.0,0.0,0.0,0.0,-0.2701,-0.3005,-0.3295,-0.337,0.0,-0.2128,-0.1311,-0.1037,-0.0553,-0.0382,-0.0765,0.0,0.0,0.0,0.0,0.0,0.0,0.0,0.0,0.0,0.0,0.0,0.0,0.0,0.0,0.0,0.0,0.0,0.0,0.0,0.0,0.0,0.0,0.0,0.0,0.0,0.0,0.0,0.0,0.0,0.0,0.0,0.0,0.0,0.0,0.0,0.0,0.0,0.0,0.0,0.0,0.0,0.0,0.0,0.0,0.0,0.0,0.0,0.0,0.0,0.0,0.0,0.0,0.0,-0.0786,-0.049,-0.0153,-0.0052,-0.016,-0.0162,-0.027,-0.0586,-0.0885,-0.1367,0.0,0.0,0.0,0.0,0.0,0.0,0.0,0.0,0.0,0.0,0.0,0.0,0.0,0.0,0.0,0.0,0.0,0.0,0.0,0.0,0.0,0.0,0.0,0.0,0.0,0.0,0.0,0.0,-0.4792,-0.4233,-0.2513,0.0,0.0,0.0,0.0,0.0,0.0,0.0,0.0,0.0,0.0,-0.1301,-0.1374,-0.1505,0.0,0.0,-0.0999,-0.0609,-0.0383,0.0,0.0107,-0.0201,-0.054,0.0,0.0,0.0,0.0,0.0,0.0,0.0,0.0,0.0,0.0,0.0,0.0,0.0,0.0,0.0,0.0,0.0,0.0,0.0,0.0,0.0,0.0,0.0,0.0,0.0,0.0,0.0,0.0,0.0,0.0,0.0,0.0,0.0,0.0,0.0,0.0,0.0,0.0,0.0,0.0,0.0,0.0,0.0,0.0,0.0,0.0,0.0,0.0,0.0,0.0,0.0,0.0,-0.0648,-0.0393,-0.0153,0.0,0.0,0.0,0.0,0.0,-0.0315,-0.0714,0.0,0.0,0.0,0.0,0.0,0.0,0.0,0.0,0.0,0.0,0.0,0.0,0.0,0.0,0.0,0.0,0.0,0.0,0.0,0.0,0.0,0.0,0.0,0.0,0.0,0.0,0.0,0.0,-0.493,-0.4223,-0.2767,0.0,0.0,0.0,0.0,0.0,0.0,0.0,0.0,0.0,0.0,-0.025,-0.0158,-0.016,-0.0108,-0.0055,-0.0055,0.0055,0.0326,0.0481,0.052,0.0247,0.0,0.0,0.0,0.0,0.0,0.0,0.0,0.0,0.0,0.0,0.0,0.0,0.0,0.0,0.0,0.0,0.0,0.0,0.0,0.0,0.0,0.0,0.0,0.0,0.0,0.0,0.0,0.0875,0.0,0.0,0.0621,0.0,0.0,0.0,0.0,0.0,0.0,0.0,0.0,0.0,0.0,0.0,0.0,0.0,0.0,0.0,0.0,0.0,0.0,0.0,0.0,0.0,0.0,-0.0324,-0.0392,-0.0153,0.0,0.0,0.0,0.0,0.0,0.0,-0.0255,-0.0737,0.0,0.0,0.0,0.0,0.0,0.0,0.0,0.0,0.0,0.0,0.0,0.0,0.0,0.0,0.0,0.0,0.0,0.0,0.0,0.0,0.0,0.0,0.0,0.0,0.0,0.0,-0.4441,-0.3442,-0.2704,0.0,0.0,0.0,0.0,0.0,0.0,0.0,0.0,0.0,0.0,0.0,0.01,0.031,0.0364,0.0471,0.0693,0.0748,0.0854,0.1118,0.1103,0.1026,0.0,0.0,0.0,0.0,0.0,0.0,0.0,0.0,0.0,0.0,0.0,0.0,0.0,0.0,0.0,0.0,0.0,0.0,0.0,0.0,0.0,0.0,0.0,0.0,0.0,0.0,0.0,0.2137,0.2464,0.0,0.0,0.0,0.0,0.0,0.0,0.0,0.0,0.0,0.0,0.0,0.5023,0.4885,0.0,0.0,0.0,0.0,0.0,0.0,0.0,0.0,0.0,0.0,0.0,0.0,-0.0231,-0.0147,-0.0051,0.0,0.0,0.0,0.0,0.0,0.0,-0.0204,-0.0688,0.0,0.0,0.0,0.0,0.0,0.0,0.0,0.0,0.0,0.0,0.0,0.0,0.0,0.0,0.0,0.0,0.0,0.0,0.0,0.0,0.0,0.0,0.0,0.0,0.0,-0.4168,0.0,0.0,0.0,0.0,0.0,0.0,0.0,0.0,0.0,0.0,0.0,0.0,0.0,0.0142,0.0287,0.0398,0.0708,0.0821,0.0,0.0,0.0,0.0,0.0,0.0,0.0,0.0,0.0,0.0,0.0,0.0,0.0,0.0,-0.1248,-0.1743,-0.1841,-0.1794,-0.1731,0.0,0.0,0.0,0.0,0.0,0.0,0.0,0.0,0.0,0.0,0.0,0.0,0.0,0.0,0.3493,0.0,0.2974,0.0,0.0,0.0,0.0,0.0,0.0,0.0,0.0,0.5729,0.6029,0.6188,0.6093,0.5955,0.0,0.5285,0.3972,0.0,0.0,0.0,0.0,0.0,0.0,0.0,0.0,-0.0139,0.0,0.0,0.0,0.0,0.0,0.0,0.0,0.0,-0.0151,-0.0442,-0.0857,-0.1389,0.0,0.0,0.0,0.0,0.0,0.0,0.0,0.0,0.0,0.0,0.0,0.0,0.0,0.0,0.0,0.0,0.0,0.0,0.0,0.0,0.0,0.0,0.0,-0.343,0.0,0.0,0.0,0.0,0.0,0.0,0.0,0.0,0.0,0.0179,0.0046,0.0047,0.0143,0.0237,0.0381,0.0727,0.0,0.0,0.0,0.0,0.0,0.0,0.0,0.3351,0.3225,0.3299,0.3391,0.3532,0.2794,0.1803,0.0755,0.0,0.0,-0.1059,-0.1151,-0.1147,-0.1116,-0.1103,-0.11,-0.1109,-0.0961,-0.0823,0.0,0.0,0.0,0.0,0.0,0.0,0.0,0.0,0.5605,0.5151,0.0,0.4812,0.0,0.0,0.0,0.0,0.0,0.5753,0.0,0.0,0.7479,0.7812,0.7489,0.7237,0.7136,0.7079,0.6289,0.5045,0.3512,0.2556,0.0,0.0,0.0,0.0,0.0,0.0,0.0,0.0,0.0,0.0,0.0,0.0,0.0,0.0,0.0,0.0,0.0,-0.0434,-0.0757,-0.0928,-0.1769,0.0,0.0,0.0,0.0,0.0,0.0,0.0,0.0,0.0,0.0,0.0,0.0,0.0,0.0,0.0,0.0,0.0,0.0,0.0,0.0,-0.2019,0.0,0.0,0.0,0.0,0.0,0.0,0.0,0.0,0.0,0.0,0.0494,0.0186,0.0095,0.0333,0.0,0.0,0.0,0.0,0.1802,0.2486,0.3148,0.3679,0.3871,0.4407,0.4696,0.4487,0.0,0.0,0.4438,0.3364,0.2503,0.2366,0.1082,-0.0095,-0.0572,-0.0702,-0.0693,-0.0691,-0.068,-0.0678,-0.0689,-0.0679,-0.0585,0.6644,0.0,0.0,0.0,0.0,0.6259,0.6604,0.6865,0.5913,0.5705,0.6012,0.5327,0.0,0.0,0.0,0.0,0.0,0.0,0.6643,0.7168,0.7482,0.772,0.7826,0.7776,0.7727,0.7727,0.7488,0.6625,0.5286,0.4988,0.3518,0.0933,0.0,0.0,0.0,0.0,0.0186,0.0,0.0,0.0,0.0,0.0,0.0,0.0,0.0,0.0,0.0,-0.01,-0.0345,-0.0773,-0.0981,0.0,0.0,0.0,0.0,0.0,0.0,0.0,0.0,0.0,0.0,0.0,0.0,0.0,0.0,0.0,0.0,0.0,0.0,0.0,-0.1158,-0.1146,-0.1179,0.0,0.0,0.0,0.0,0.0,0.0,0.0,0.0,0.0,0.1213,0.0607,0.0233,0.0,0.0,0.0965,0.1371,0.2444,0.3209,0.319,0.4401,0.0,0.4803,0.5377,0.5764,0.5514,0.5815,0.5766,0.4737,0.4624,0.4073,0.2358,0.1611,0.1,0.0048,-0.0188,0.0,-0.0182,-0.0225,-0.0226,-0.0184,-0.0182,0.0,0.7492,0.7013,0.6756,0.6726,0.6851,0.7029,0.7337,0.7661,0.6871,0.6695,0.6997,0.6453,0.6243,0.6204,0.6302,0.0,0.0,0.0,0.7183,0.7713,0.7713,0.7809,0.7985,0.7988,0.7988,0.7988,0.7988,0.7332,0.6027,0.6165,0.504,0.2552,0.0,0.0,0.1247,0.0599,0.014,0.0,0.0,0.0,0.0,0.0,0.0,0.0,0.0,0.0,0.0,0.0,-0.0151,-0.0397,-0.0482,-0.0795,0.0,0.0,0.0,0.0,0.0,0.0,0.0,0.0,0.0,0.0,0.0,-0.1505,-0.1492,0.0,0.0,0.0,-0.0455,-0.0424,-0.0571,-0.0475,0.0,0.0,0.0,0.0,0.0,0.0,0.0,0.3154,0.342,0.3182,0.2083,0.1978,0.1547,0.0331,0.0422,0.102,0.1931,0.0,0.3743,0.4282,0.5467,0.6147,0.5781,0.6347,0.6751,0.6688,0.6842,0.6811,0.6018,0.5743,0.5056,0.3623,0.249,0.1548,0.0838,0.0322,0.0,0.0,0.0,0.0,0.0,0.0,0.0,0.8019,0.7982,0.7283,0.7197,0.7544,0.7557,0.773,0.7985,0.7988,0.7816,0.7557,0.7882,0.7645,0.6972,0.702,0.0,0.7547,0.7547,0.7713,0.7988,0.7988,0.7988,0.7988,0.7988,0.7988,0.7988,0.7988,0.7385,0.6224,0.6573,0.6168,0.4926,0.3208,0.2318,0.2224,0.104,0.0286,0.0,0.0,0.0,0.0,0.0,0.0,0.0,0.0,0.0,0.0,0.0,0.0,0.0,-0.0248,-0.0434,-0.0557,0.0,0.0,0.0,0.0,0.0,0.0,0.0,0.0,0.0,0.0,0.0,0.0,0.0,0.0,-0.0286,-0.0128,0.0,0.0,0.0,0.0,0.0,0.0,0.0717,0.2144,0.2483,0.3252,0.4674,0.0,0.0,0.3018,0.3749,0.3494,0.0978,0.049,0.1069,0.3002,0.3381,0.3985,0.5638,0.6395,0.6818,0.6778,0.7193,0.7556,0.7662,0.7685,0.7523,0.7416,0.6546,0.5805,0.544,0.3633,0.2061,0.1975,0.1033,0.0,0.0,0.0,0.0,0.0,0.0,0.0,0.8313,0.8211,0.8039,0.7912,0.7898,0.8066,0.8066,0.7988,0.7988,0.7971,0.7892,0.7975,0.7902,0.774,0.7736,0.7806,0.7888,0.7888,0.7955,0.7988,0.7988,0.7988,0.7988,0.7988,0.7988,0.7988,0.7988,0.7839,0.7534,0.7654,0.7481,0.6982,0.5709,0.4737,0.4111,0.3609,0.2751,0.1523,0.1551,0.1029,0.0,0.0,0.0,0.0,0.0,0.0,0.0,0.0,0.0,0.0,-0.0049,-0.0191,-0.0426,-0.0177,0.0,0.0,0.0,0.0,0.0,0.0,0.0,0.0,0.0,-0.0237,-0.0236,0.0,-0.0123,0.0,-0.0043,0.0,0.0,0.0,0.0,0.0,0.1511,0.2193,0.3608,0.4446,0.4995,0.5228,0.5544,0.5372,0.426,0.433,0.4117,0.312,0.3332,0.3822,0.4563,0.536,0.6052,0.6668,0.7296,0.7684,0.7677,0.7717,0.7758,0.7769,0.7597,0.7428,0.7424,0.7092,0.6463,0.5673,0.4994,0.422,0.335,0.2191,0.1426,0.1281,0.0659,0.0,0.0,0.0,0.0,0.8435,0.837,0.8435,0.8343,0.8147,0.816,0.8119,0.7988,0.7988,0.7988,0.7988,0.7988,0.7988,0.7988,0.7988,0.7988,0.7988,0.7988,0.7988,0.7988,0.7988,0.7988,0.7988,0.7988,0.7988,0.7988,0.7988,0.7988,0.7988,0.7988,0.7911,0.7769,0.7189,0.6614,0.6067,0.4863,0.3794,0.2891,0.2869,0.2495,0.1813,0.1186,0.0948,0.1058,0.05,0.0249,0.0349,0.0346,0.0345,0.0492,0.0482,0.0522,0.0564,0.0849,0.1121,0.0,0.0,0.0,0.0,0.0,0.0,0.0,0.0,0.0,0.0,0.0,0.0126,0.0,0.0,0.0,0.0,0.0577,0.1189,0.1759,0.246,0.3379,0.4653,0.5276,0.5741,0.6251,0.6526,0.6252,0.5215,0.5516,0.5574,0.4766,0.5401,0.5879,0.5586,0.6051,0.6631,0.7373,0.7786,0.7988,0.7988,0.7913,0.7787,0.7716,0.7522,0.735,0.7282,0.7156,0.6871,0.6296,0.5761,0.5225,0.4508,0.3438,0.2624,0.2465,0.1645,0.0686,0.0,0.0,0.0,0.8569,0.8496,0.8628,0.8513,0.8231,0.8046,0.7988,0.7988,0.7988,0.7988,0.7988,0.7988,0.7988,0.7988,0.7988,0.7988,0.7988,0.7988,0.7988,0.7988,0.7988,0.7988,0.7988,0.7988,0.7978,0.7961,0.7961,0.7951,0.7934,0.7934,0.7916,0.7794,0.7919,0.7877,0.7717,0.5616,0.4403,0.4266,0.4072,0.3974,0.3927,0.2794,0.2263,0.2406,0.1286,0.0735,0.0978,0.0914,0.1001,0.124,0.1284,0.1507,0.1898,0.2036,0.2346,0.0,0.296,0.0,0.0,0.0,0.0,0.0,0.0,0.0,0.0,0.051,0.0262,0.0,0.0,0.0045,0.0225,0.1344,0.2103,0.2281,0.335,0.4465,0.5447,0.5625,0.607,0.7238,0.7339,0.6929,0.5991,0.6839,0.7092,0.6142,0.6735,0.7102,0.6426,0.6262,0.6706,0.7836,0.7934,0.7897,0.7897,0.781,0.7736,0.7617,0.7478,0.7329,0.7162,0.7115,0.7095,0.7007,0.6293,0.5669,0.5628,0.4641,0.3829,0.3795,0.2832,0.164,0.0589,0.0,0.0,0.871,0.8489,0.8513,0.8353,0.8032,0.8002,0.7988,0.7988,0.7988,0.7988,0.7988,0.7988,0.7988,0.7988,0.7988,0.7988,0.7988,0.7988,0.7988,0.7988,0.7988,0.7988,0.7988,0.7988,0.7974,0.7858,0.7851,0.7794,0.7682,0.7682,0.7668,0.7641,0.7672,0.7726,0.7759,0.0,0.0,0.0,0.4547,0.3897,0.3651,0.3215,0.2848,0.2658,0.2209,0.0,0.1917,0.1956,0.1952,0.1998,0.2157,0.0,0.0,0.0,0.0,0.0,0.0,0.0,0.0,0.0,0.0,0.0,0.4473,0.3539,0.1966,0.077,0.0044,0.0,0.0,0.0404,0.1343,0.1701,0.2638,0.4465,0.4956,0.5536,0.6605,0.6786,0.6931,0.7088,0.7183,0.706,0.6873,0.7193,0.7319,0.7047,0.7376,0.7516,0.7279,0.7206,0.7397,0.7638,0.7706,0.7692,0.7682,0.7665,0.7641,0.7587,0.7472,0.7363,0.7312,0.7204,0.7095,0.7088,0.6918,0.6732,0.6732,0.5847,0.4981,0.4862,0.3872,0.2723,0.1677,0.0693,0.0,0.8804,0.0,0.8598,0.8425,0.0,0.8153,0.8109,0.7988,0.7988,0.7988,0.7988,0.7988,0.7988,0.7988,0.7988,0.7988,0.7988,0.7988,0.7988,0.7988,0.7988,0.7988,0.7988,0.7988,0.7911,0.7814,0.7814,0.774,0.7604,0.7597,0.756,0.7492,0.7563,0.7634,0.7709,0.7777,0.7505,0.6886,0.6294,0.5899,0.5649,0.4951,0.4554,0.4512,0.3702,0.0,0.0,0.0,0.0,0.0,0.0,0.0,0.0,0.0,0.0,0.5141,0.5344,0.565,0.5921,0.6002,0.6005,0.6005,0.5374,0.4411,0.3071,0.2274,0.1769,0.1788,0.179,0.2013,0.2637,0.3218,0.4065,0.5267,0.5891,0.6517,0.7007,0.7095,0.7095,0.7095,0.7095,0.7095,0.7095,0.7159,0.7255,0.7255,0.7258,0.7278,0.7292,0.7465,0.7597,0.7597,0.7597,0.76,0.7597,0.7597,0.7563,0.7499,0.7421,0.7343,0.7268,0.7092,0.6994,0.6987,0.6933,0.6879,0.6879,0.6405,0.6014,0.5802,0.4935,0.3998,0.3333,0.2006,0.0628,0.8808,0.8669,0.8905,0.8685,0.8282,0.8482,0.8358,0.7988,0.0,0.0,0.0,0.7988,0.7988,0.7988,0.7988,0.7988,0.7985,0.8011,0.7951,0.7948,0.7951,0.7948,0.7951,0.7975,0.7911,0.7818,0.7814,0.7723,0.7563,0.756,0.7482,0.7402,0.7455,0.7536,0.7567,0.7729,0.7787,0.7746,0.786,0.7891,0.7724,0.6767,0.6274,0.6457,0.5243,0.4697,0.4973,0.4752,0.4701,0.5038,0.4963,0.5142,0.5547,0.5638,0.5808,0.618,0.6121,0.6325,0.6791,0.6734,0.6711,0.6886,0.5946,0.4937,0.3881,0.3632,0.3551,0.3551,0.3553,0.3645,0.3924,0.4774,0.5494,0.5669,0.6517,0.7095,0.7095,0.7095,0.7095,0.7095,0.7095,0.7095,0.7095,0.7098,0.7095,0.7085,0.7034,0.6949,0.6933,0.7234,0.7424,0.739,0.7417,0.7495,0.7478,0.7492,0.7455,0.7309,0.7282,0.7238,0.7092,0.6923,0.6856,0.6846,0.678,0.6725,0.6705,0.668,0.6688,0.6664,0.5868,0.5095,0.4786,0.345,0.1842,0.8652,0.8608,0.9595,0.9225,0.8122,0.9305,0.9092,0.7988,0.7988,0.7988,0.7988,0.7988,0.7988,0.7988,0.7988,0.7988,0.7982,0.7853,0.7841,0.7845,0.7845,0.7845,0.7851,0.7928,0.7911,0.7821,0.7814,0.7672,0.7431,0.7407,0.7322,0.7149,0.7152,0.7275,0.746,0.7675,0.7685,0.7494,0.7706,0.7686,0.7479,0.7168,0.6933,0.6683,0.6249,0.5897,0.5771,0.5672,0.5652,0.5615,0.5777,0.5991,0.6254,0.6482,0.6653,0.6754,0.6767,0.681,0.687,0.6893,0.6886,0.6879,0.6638,0.5558,0.3465,0.3312,0.3348,0.3434,0.3523,0.39,0.4987,0.5309,0.5844,0.6694,0.7007,0.7095,0.7092,0.7095,0.7092,0.7085,0.7095,0.7095,0.7095,0.7092,0.7085,0.7088,0.7007,0.6997,0.6926,0.6933,0.6963,0.6898,0.7004,0.7088,0.7051,0.7092,0.7153,0.7014,0.701,0.6983,0.6844,0.677,0.6736,0.6732,0.6695,0.6678,0.6678,0.6702,0.663,0.6532,0.6227,0.5903,0.5059,0.435,0.348,0.8696,0.8587,0.9072,0.8798,0.8038,0.8676,0.9019,0.9019,0.8283,0.7988,0.7988,0.7988,0.7988,0.7988,0.7988,0.7988,0.7985,0.7917,0.7887,0.7933,0.7887,0.7887,0.794,0.7958,0.7957,0.7821,0.7814,0.7658,0.7394,0.7373,0.7292,0.7119,0.7302,0.7343,0.7272,0.7546,0.755,0.7261,0.7617,0.7729,0.7512,0.7576,0.7558,0.7396,0.716,0.7003,0.6948,0.662,0.6537,0.674,0.658,0.6659,0.6934,0.6895,0.6867,0.6889,0.6809,0.6803,0.6803,0.6729,0.6681,0.6678,0.6617,0.6131,0.4967,0.5043,0.5141,0.5186,0.5186,0.5448,0.6135,0.6194,0.6483,0.7044,0.7095,0.7065,0.7007,0.7058,0.7068,0.7007,0.7051,0.7095,0.7095,0.7031,0.6984,0.697,0.6905,0.6739,0.6607,0.6641,0.6692,0.6709,0.6817,0.6865,0.6824,0.6886,0.694,0.6893,0.6886,0.6902,0.6817,0.6712,0.659,0.6569,0.6562,0.6468,0.6464,0.6461,0.6427,0.6429,0.6395,0.6081,0.564,0.4724,0.332,0.8996,0.8535,0.8755,0.8885,0.8878,0.8871,0.9312,0.985,0.8871,0.8435,0.8432,0.8137,0.7988,0.7988,0.7988,0.7988,0.7985,0.7951,0.7938,0.7938,0.7938,0.7938,0.7941,0.7968,0.7924,0.7872,0.7862,0.7726,0.7495,0.7441,0.7322,0.7142,0.7414,0.7414,0.7105,0.7414,0.7431,0.7189,0.757,0.7712,0.7614,0.7885,0.7988,0.7975,0.7773,0.7736,0.778,0.7294,0.721,0.7455,0.7132,0.7017,0.7238,0.7004,0.6819,0.682,0.6715,0.6647,0.6641,0.6539,0.6515,0.6511,0.648,0.6416,0.6337,0.6464,0.662,0.6641,0.6565,0.6667,0.6766,0.683,0.693,0.7034,0.7082,0.7058,0.6967,0.7034,0.7061,0.6964,0.7007,0.7055,0.7061,0.6974,0.69,0.6902,0.6719,0.6559,0.6405,0.6446,0.6515,0.6576,0.6651,0.6688,0.6675,0.678,0.6802,0.6798,0.6814,0.6793,0.6753,0.6583,0.6515,0.6497,0.6405,0.634,0.6306,0.631,0.6317,0.6313,0.6317,0.6268,0.6145,0.4844,0.3127,0.9841,0.8783,0.9611,1.0625,1.1419,1.1458,1.0925,1.0096,0.9854,0.9801,0.9702,0.8581,0.8088,0.7988,0.8088,0.8137,0.8127,0.7896,0.789,0.7893,0.7831,0.7834,0.7862,0.7928,0.7985,0.7958,0.7955,0.7896,0.7719,0.7611,0.7421,0.7146,0.7312,0.7316,0.7136,0.7312,0.7426,0.7398,0.7526,0.7614,0.7617,0.7885,0.7988,0.7988,0.7961,0.7891,0.7794,0.7634,0.7375,0.7152,0.6974,0.6836,0.6787,0.6739,0.6661,0.6532,0.6545,0.6532,0.6532,0.6521,0.6508,0.6504,0.6392,0.632,0.6303,0.6327,0.6399,0.6501,0.6535,0.6603,0.6709,0.6831,0.6869,0.6923,0.7018,0.7088,0.7058,0.7088,0.7092,0.7082,0.6974,0.6953,0.7045,0.6943,0.6869,0.6881,0.6803,0.6668,0.6504,0.6484,0.6467,0.6436,0.6515,0.6614,0.6552,0.6624,0.6685,0.6583,0.6576,0.6576,0.6566,0.6458,0.6354,0.6443,0.6395,0.6306,0.63,0.63,0.63,0.63,0.63,0.63,0.618,0.5276,0.3869,1.1081,0.976,1.0894,1.1548,1.1858,1.1896,1.1609,1.1121,1.1121,1.1121,1.1072,1.0534,1.0288,1.0288,1.0288,1.0337,1.0235,0.9478,0.9108,0.9014,0.8287,0.7897,0.7904,0.7955,0.7948,0.7913,0.7853,0.778,0.756,0.74,0.7216,0.7125,0.7295,0.7295,0.7119,0.7292,0.7373,0.7422,0.7522,0.7638,0.774,0.788,0.7988,0.7982,0.7953,0.779,0.7556,0.7329,0.7102,0.6967,0.679,0.6715,0.6831,0.6668,0.6579,0.6511,0.6433,0.6385,0.6385,0.6385,0.6385,0.6385,0.6334,0.63,0.63,0.63,0.6327,0.6371,0.6388,0.6446,0.6549,0.6624,0.6725,0.6846,0.694,0.6943,0.6888,0.6997,0.7041,0.6879,0.6983,0.6991,0.694,0.6803,0.6675,0.6647,0.66,0.6495,0.6409,0.6457,0.645,0.6364,0.6477,0.6485,0.6446,0.6556,0.6634,0.6641,0.6685,0.6725,0.6593,0.6521,0.6429,0.6402,0.6351,0.6313,0.63,0.63,0.63,0.63,0.63,0.63,0.63,0.5431,0.4336,1.2439,1.1292,1.2199,1.2578,1.2479,1.2818,1.277,1.2474,1.2431,1.2474,1.2479,1.2431,1.2673,1.2872,1.2237,1.1896,1.1799,1.0925,1.0538,1.0435,0.9509,0.892,0.8577,0.8531,0.8322,0.7931,0.7834,0.7662,0.7433,0.7265,0.7139,0.7122,0.7255,0.7251,0.7122,0.7258,0.7329,0.7429,0.7522,0.7651,0.776,0.7891,0.7968,0.7924,0.7872,0.7689,0.7441,0.7149,0.6923,0.6879,0.6637,0.6552,0.6719,0.6573,0.6453,0.6446,0.6358,0.63,0.63,0.63,0.63,0.63,0.63,0.63,0.63,0.63,0.63,0.6303,0.63,0.6351,0.6433,0.6487,0.659,0.6827,0.6856,0.6885,0.6819,0.6987,0.7021,0.6881,0.6937,0.7004,0.6886,0.6756,0.663,0.661,0.6474,0.6358,0.6368,0.645,0.6484,0.639,0.6521,0.6471,0.6405,0.6518,0.6624,0.6654,0.6705,0.6709,0.6647,0.6549,0.6487,0.6416,0.6368,0.6337,0.632,0.6313,0.6323,0.6306,0.63,0.63,0.63,0.555,0.5118,1.3947,1.2741,1.3455,1.3794,1.3878,1.5003,1.4854,1.368,1.3776,1.3782,1.3824,1.383,1.4459,1.5296,1.3113,1.1999,1.195,1.1896,1.175,1.1702,1.1604,1.1023,0.9948,0.9899,0.9255,0.8224,0.806,0.7753,0.7429,0.7405,0.7282,0.7149,0.7245,0.7194,0.7272,0.7286,0.7272,0.7507,0.7559,0.76,0.7645,0.784,0.795,0.7821,0.7814,0.7733,0.755,0.7237,0.7018,0.6883,0.662,0.6463,0.6358,0.6327,0.632,0.6313,0.6306,0.63,0.63,0.63,0.6303,0.6306,0.6303,0.6303,0.632,0.6306,0.63,0.63,0.63,0.631,0.6334,0.6426,0.6559,0.6688,0.6834,0.6896,0.7034,0.7031,0.7088,0.7031,0.696,0.6927,0.6896,0.6883,0.6793,0.6678,0.659,0.6484,0.6487,0.6504,0.6529,0.662,0.6658,0.6641,0.6545,0.6566,0.6522,0.6563,0.662,0.659,0.6494,0.6429,0.645,0.6463,0.6494,0.6467,0.6378,0.6347,0.6368,0.6354,0.6306,0.63,0.63,0.63,0.5902,1.5507,1.4692,1.4984,1.4657,1.407,1.5242,1.5092,1.4022,1.4752,1.5092,1.514,1.5092,1.5391,1.5737,1.4854,1.4418,1.4322,1.3542,1.2716,1.1994,1.1896,1.1214,1.0194,1.0779,1.0506,0.9336,0.9124,0.8502,0.7492,0.7373,0.7694,0.8172,0.8233,0.858,0.9096,0.858,0.8315,0.8381,0.7837,0.7499,0.7584,0.7706,0.7685,0.7553,0.7716,0.7607,0.7183,0.7018,0.6851,0.6555,0.6433,0.6354,0.6306,0.63,0.63,0.63,0.63,0.63,0.63,0.63,0.634,0.6422,0.6347,0.6344,0.6399,0.6354,0.63,0.63,0.63,0.63,0.6306,0.6347,0.6433,0.6532,0.6607,0.6715,0.6795,0.69,0.696,0.6953,0.6913,0.692,0.6983,0.6824,0.6661,0.6671,0.6535,0.6443,0.6511,0.6546,0.6627,0.6698,0.6783,0.6831,0.6783,0.6671,0.663,0.6658,0.6681,0.6723,0.6665,0.6757,0.6822,0.7101,0.6997,0.688,0.686,0.6393,0.6417,0.634,0.63,0.63,0.63,0.63,0.6141,1.6359,1.5865,1.5825,1.5289,1.4651,1.5439,1.5337,1.4657,1.5439,1.5825,1.5825,1.5825,1.5825,1.5825,1.5825,1.5825,1.573,1.4848,1.4028,1.321,1.3156,1.2479,1.1556,1.2134,1.1816,1.0674,1.0405,0.978,0.8868,0.8651,0.8967,0.9557,0.9489,0.9792,1.0313,0.9449,0.8958,0.8832,0.7874,0.7333,0.7387,0.7428,0.738,0.7282,0.7424,0.7307,0.69,0.6839,0.6702,0.6422,0.6327,0.63,0.63,0.63,0.63,0.63,0.63,0.63,0.63,0.63,0.6361,0.6491,0.6388,0.6375,0.6542,0.6412,0.6334,0.6347,0.632,0.631,0.6358,0.6371,0.6429,0.6555,0.6546,0.663,0.6817,0.6939,0.6997,0.6967,0.697,0.7007,0.7028,0.6776,0.6647,0.6688,0.6447,0.6371,0.6494,0.6549,0.6654,0.6736,0.7143,0.7315,0.7552,0.7669,0.7137,0.7049,0.6967,0.6968,0.7217,0.7272,0.7465,0.768,0.7671,0.7554,0.7196,0.6699,0.6418,0.6345,0.63,0.63,0.63,0.63,0.6141,1.6366,1.5865,1.5825,1.573,1.5629,1.573,1.5778,1.5683,1.5778,1.5825,1.5825,1.5825,1.5825,1.5825,1.5825,1.5825,1.5778,1.5629,1.5439,1.5248,1.5439,1.4806,1.3632,1.3776,1.3199,1.19,1.1723,1.1552,1.1186,1.0875,1.0895,1.0987,1.077,1.0814,1.0745,0.9879,0.9104,0.8934,0.8028,0.722,0.6966,0.7088,0.7048,0.6959,0.6927,0.6913,0.6859,0.677,0.6617,0.6497,0.6364,0.63,0.63,0.63,0.63,0.63,0.63,0.63,0.63,0.63,0.6364,0.6451,0.6395,0.6436,0.658,0.648,0.6361,0.6419,0.6375,0.6347,0.6453,0.6487,0.6552,0.6668,0.6675,0.6787,0.697,0.7078,0.7092,0.7082,0.7075,0.7092,0.7038,0.6865,0.6695,0.6644,0.6614,0.6581,0.6756,0.6929,0.6785,0.7024,0.7741,0.8384,0.8582,0.8729,0.8053,0.748,0.7386,0.7386,0.7967,0.8226,0.8582,0.8787,0.8923,0.8756,0.7729,0.723,0.6606,0.6451,0.6374,0.63,0.63,0.63,0.63,1.6359,1.5804,1.5825,1.5825,1.5825,1.5825,1.5825,1.5825,1.5825,1.5825,1.5825,1.5825,1.5825,1.5825,1.5825,1.5825,1.5825,1.5778,1.5337,1.4806,1.5391,1.514,1.4316,1.4806,1.4507,1.329,1.2266,1.1775,1.1713,1.161,1.1766,1.2143,1.2157,1.2467,1.2826,1.1858,1.1145,1.0794,0.9208,0.8182,0.7765,0.7254,0.6919,0.679,0.677,0.6725,0.662,0.6569,0.6515,0.6375,0.6323,0.63,0.63,0.63,0.63,0.63,0.63,0.63,0.63,0.6306,0.6405,0.6536,0.6528,0.6508,0.6651,0.6555,0.6419,0.6388,0.6323,0.6327,0.6368,0.6457,0.6539,0.6685,0.6702,0.6787,0.694,0.7045,0.7088,0.7095,0.7095,0.7095,0.7048,0.6842,0.676,0.684,0.7041,0.7328,0.7565,0.8028,0.8595,0.8815,0.9324,0.9458,0.9613,0.9893,0.9759,0.9068,0.8684,0.845,0.896,0.9256,0.9612,0.9958,1.009,0.9662,0.8622,0.7683,0.7076,0.6528,0.6412,0.6335,0.6296,0.6282,0.6262,1.6359,1.5845,1.5825,1.5825,1.5825,1.5825,1.5825,1.5825,1.5825,1.5825,1.5825,1.5825,1.5825,1.5825,1.5825,1.5825,1.5825,1.5825,1.5391,1.4752,1.5343,1.5289,1.4752,1.5391,1.5439,1.4657,1.3734,1.3318,1.3212,1.3151,1.3285,1.3558,1.3485,1.3609,1.3939,1.2936,1.2156,1.1678,1.0281,0.9056,0.8292,0.7704,0.721,0.6788,0.6647,0.6569,0.6515,0.6463,0.6392,0.6317,0.63,0.63,0.63,0.63,0.63,0.63,0.63,0.63,0.63,0.63,0.6395,0.6539,0.6518,0.6491,0.6607,0.6529,0.6402,0.6388,0.633,0.6323,0.6385,0.6453,0.6559,0.677,0.6793,0.6812,0.6983,0.7041,0.7092,0.7095,0.7095,0.7095,0.7041,0.691,0.6968,0.7214,0.7601,0.812,0.8411,0.8946,0.9375,0.9769,0.9982,1.0171,1.0516,1.0922,1.139,1.0865,1.0241,1.0124,1.0251,1.029,1.0496,1.1146,1.1468,1.0911,0.9966,0.8386,0.7437,0.7022,0.6567,0.6335,0.6286,0.6173,0.6135,1.6366,1.5852,1.5825,1.5825,1.5825,1.5825,1.5825,1.5825,1.5825,1.5825,1.5825,1.5825,1.5825,1.5825,1.5825,1.5825,1.5825,1.5825,1.5778,1.5683,1.5778,1.5683,1.5635,1.573,1.573,1.5635,1.554,1.5575,1.5279,1.5137,1.5257,1.4802,1.45,1.4339,1.3972,1.2942,1.2415,1.2076,1.1044,0.9849,0.8664,0.8425,0.7938,0.6953,0.6734,0.6654,0.6467,0.6378,0.6313,0.63,0.63,0.63,0.63,0.63,0.63,0.63,0.63,0.63,0.63,0.63,0.6368,0.6461,0.6439,0.6419,0.659,0.6464,0.6388,0.6439,0.6361,0.6347,0.6443,0.6501,0.66,0.6848,0.6869,0.695,0.7068,0.7082,0.7058,0.7065,0.7078,0.7061,0.7024,0.6946,0.7291,0.7896,0.8146,0.8608,0.9307,0.9746,0.9587,1.0041,1.0802,1.1183,1.1656,1.2151,1.2548,1.2359,1.1723,1.1467,1.135,1.1323,1.1295,1.1973,1.2354,1.1856,1.0937,0.926,0.8084,0.7557,0.7061,0.6528,0.6265,0.6169,0.6129,1.6359,1.5845,1.5825,1.5825,1.5825,1.5825,1.5825,1.5825,1.5825,1.5825,1.5825,1.5825,1.5825,1.5825,1.5825,1.5825,1.5825,1.5825,1.5825,1.5825,1.5825,1.5825,1.5825,1.5825,1.5825,1.5825,1.5825,1.5825,1.5825,1.5718,1.5424,1.5022,1.4894,1.4569,1.4077,1.373,1.349,1.3051,1.2076,1.129,1.0668,0.9682,0.8754,0.7913,0.7572,0.7141,0.6475,0.632,0.63,0.63,0.63,0.63,0.63,0.63,0.63,0.63,0.63,0.63,0.63,0.6303,0.6368,0.6487,0.647,0.6451,0.6515,0.6504,0.6422,0.6385,0.6313,0.6313,0.6368,0.645,0.6603,0.6739,0.6876,0.7021,0.7058,0.7004,0.694,0.6933,0.6856,0.6851,0.6831,0.6846,0.7204,0.8139,0.8813,0.9482,1.0352,1.1041,1.1163,1.1601,1.2177,1.2454,1.2856,1.3377,1.3635,1.3625,1.3177,1.2689,1.2484,1.2254,1.2228,1.2436,1.2577,1.2272,1.1168,0.9765,0.895,0.8181,0.7249,0.6602,0.637,0.6259,0.6238,1.644,1.6012,1.5879,1.5825,1.5825,1.5825,1.5825,1.5825,1.5825,1.5825,1.5825,1.5825,1.5825,1.5825,1.5825,1.5825,1.5825,1.5825,1.5825,1.5825,1.5825,1.5825,1.5825,1.5825,1.5825,1.5825,1.5825,1.5825,1.5798,1.5664,1.5384,1.5017,1.4836,1.4536,1.4122,1.4075,1.3941,1.353,1.2918,1.2415,1.1729,1.0979,1.0002,0.9133,0.8716,0.8269,0.7671,0.7553,0.7211,0.6563,0.63,0.63,0.63,0.63,0.63,0.63,0.63,0.63,0.6313,0.6347,0.6422,0.6494,0.6515,0.6515,0.6501,0.6463,0.6371,0.6317,0.63,0.63,0.6323,0.6426,0.6542,0.6651,0.6817,0.6933,0.6994,0.6933,0.6893,0.6849,0.68,0.6698,0.6698,0.6698,0.7476,0.8514,0.9327,1.037,1.1504,1.2209,1.2665,1.2759,1.2872,1.3002,1.316,1.3593,1.3828,1.388,1.3613,1.33,1.3019,1.2784,1.2697,1.2585,1.2723,1.2495,1.1507,1.055,0.9665,0.8764,0.7634,0.6793,0.6506,0.6238,0.6231,1.6567,1.6246,1.5979,1.5852,1.5784,1.5825,1.5825,1.5825,1.5825,1.5825,1.5825,1.5825,1.5825,1.5825,1.5825,1.5825,1.5825,1.5825,1.5825,1.5825,1.5825,1.5825,1.5825,1.5825,1.5825,1.5825,1.5825,1.5825,1.5765,1.5558,1.5264,1.497,1.4683,1.4389,1.4142,1.4088,1.3941,1.372,1.3538,1.3086,1.2447,1.2016,1.1306,1.023,0.9602,0.9389,0.911,0.9031,0.8423,0.6721,0.6528,0.6451,0.6412,0.63,0.63,0.63,0.63,0.63,0.632,0.6419,0.6484,0.6484,0.6494,0.6515,0.6491,0.6402,0.6327,0.6351,0.631,0.63,0.6317,0.6419,0.6467,0.6518,0.6593,0.6739,0.6819,0.6862,0.6862,0.6859,0.6773,0.6712,0.6668,0.6833,0.7379,0.8946,0.9731,1.0616,1.1762,1.2601,1.2913,1.3066,1.3193,1.33,1.3473,1.3646,1.3814,1.384,1.352,1.3186,1.2978,1.2777,1.2744,1.275,1.2817,1.2726,1.2377,1.144,1.0413,0.941,0.8327,0.733,0.6569,0.6245,0.6098,1.6747,1.6321,1.6261,1.6039,1.5804,1.5825,1.5825,1.5825,1.5825,1.5825,1.5825,1.5825,1.5825,1.5825,1.5825,1.5825,1.5825,1.5825,1.5825,1.5825,1.5825,1.5825,1.5825,1.5825,1.5825,1.5825,1.5825,1.5825,1.5758,1.5518,1.5244,1.4957,1.4636,1.4376,1.4128,1.4082,1.4068,1.3955,1.3733,1.3602,1.3489,1.3039,1.2367,1.1307,1.0238,0.9504,0.9337,0.9296,0.9069,0.858,0.7936,0.7326,0.6602,0.6335,0.63,0.63,0.63,0.63,0.6327,0.6433,0.647,0.6422,0.6487,0.6515,0.6504,0.6381,0.6364,0.6409,0.6368,0.6303,0.6306,0.6323,0.6354,0.6392,0.648,0.662,0.6712,0.6753,0.6763,0.6749,0.6722,0.6617,0.6457,0.66,0.7546,0.9148,1.0108,1.0774,1.179,1.2882,1.3133,1.3293,1.348,1.3547,1.3507,1.36,1.3647,1.3667,1.3347,1.31,1.2891,1.2697,1.2643,1.2737,1.2859,1.2746,1.2552,1.2037,1.0977,1.0002,0.9035,0.8059,0.717,0.6634,0.6064,1.6938,1.6473,1.6333,1.6106,1.5804,1.5825,1.5825,1.5825,1.5825,1.5825,1.5825,1.5825,1.5825,1.5825,1.5825,1.5825,1.5825,1.5825,1.5825,1.5825,1.5825,1.5825,1.5825,1.5825,1.5825,1.5825,1.5825,1.5825,1.5725,1.5411,1.5156,1.4975,1.4536,1.4255,1.4108,1.4088,1.4088,1.4021,1.3766,1.3746,1.3955,1.3626,1.3154,1.2441,1.1471,1.0904,1.0775,1.0763,1.0458,1.0008,0.9437,0.8494,0.7134,0.6563,0.6338,0.63,0.63,0.634,0.6409,0.6528,0.6627,0.6559,0.6583,0.6569,0.6522,0.6393,0.6337,0.6378,0.6347,0.63,0.63,0.63,0.63,0.631,0.6364,0.6477,0.6566,0.6654,0.6702,0.6702,0.6702,0.6539,0.6468,0.6546,0.7565,0.9092,0.9698,1.0443,1.2114,1.3085,1.33,1.35,1.3721,1.3746,1.3606,1.3533,1.346,1.3373,1.314,1.2998,1.2831,1.2656,1.2509,1.2599,1.2712,1.2645,1.2399,1.1923,1.1493,1.057,0.9631,0.8687,0.7847,0.7231,0.6648,1.7025,1.668,1.6442,1.6099,1.5804,1.5825,1.5825,1.5825,1.5825,1.5825,1.5825,1.5825,1.5825,1.5825,1.5825,1.5825,1.5825,1.5825,1.5825,1.5825,1.5825,1.5825,1.5825,1.5825,1.5778,1.5731,1.5732,1.5718,1.5518,1.5197,1.489,1.4834,1.4376,1.4135,1.4095,1.4088,1.4088,1.4048,1.3881,1.3841,1.4028,1.3828,1.3506,1.314,1.2712,1.2354,1.2133,1.2048,1.1805,1.1087,1.0895,0.9884,0.8533,0.7176,0.6549,0.6557,0.6503,0.6395,0.6464,0.6617,0.6766,0.6832,0.677,0.6702,0.6634,0.6447,0.6361,0.6334,0.633,0.63,0.63,0.63,0.63,0.63,0.63,0.6364,0.6494,0.6593,0.6634,0.6664,0.6749,0.6712,0.6525,0.6558,0.7756,0.8851,0.9422,1.0344,1.2033,1.3086,1.33,1.3487,1.3613,1.3733,1.3626,1.3373,1.3313,1.312,1.2913,1.2878,1.2777,1.271,1.2589,1.2489,1.2485,1.2485,1.2478,1.226,1.1738,1.1034,1.0204,0.9294,0.8541,0.7862,0.7153,1.7032,1.668,1.6442,1.6106,1.5811,1.5825,1.5825,1.5825,1.5825,1.5825,1.5825,1.5825,1.5825,1.5825,1.5825,1.5825,1.5825,1.5825,1.5825,1.5825,1.5825,1.5825,1.5825,1.5818,1.5712,1.5518,1.5464,1.5371,1.513,1.4776,1.4656,1.4536,1.4269,1.4095,1.4088,1.4088,1.4088,1.4088,1.4001,1.4021,1.4041,1.4008,1.3828,1.348,1.3086,1.2831,1.267,1.2438,1.2231,1.1996,1.1273,1.0714,0.9959,0.8571,0.7765,0.7383,0.6899,0.6612,0.6552,0.6722,0.6729,0.6644,0.6647,0.6698,0.6634,0.6487,0.6364,0.6388,0.6354,0.63,0.63,0.63,0.63,0.63,0.631,0.6351,0.6467,0.6502,0.6519,0.6529,0.6736,0.6892,0.6641,0.6722,0.7744,0.8721,0.9397,1.0561,1.2203,1.2933,1.3173,1.3347,1.346,1.356,1.3606,1.33,1.3113,1.2899,1.2777,1.2777,1.2717,1.2795,1.269,1.2509,1.2485,1.2599,1.2552,1.2445,1.2168,1.1593,1.076,0.988,0.9175,0.8415,0.729,1.7025,1.668,1.64,1.6241,1.6046,1.5892,1.5825,1.5825,1.5825,1.5825,1.5825,1.5825,1.5825,1.5825,1.5825,1.5825,1.5825,1.5825,1.5825,1.5825,1.5825,1.5825,1.5825,1.5825,1.5645,1.5424,1.5257,1.5176,1.4988,1.4676,1.4516,1.4456,1.4229,1.4088,1.4088,1.4088,1.4088,1.4088,1.4088,1.4088,1.4088,1.4088,1.3928,1.3586,1.332,1.3119,1.2784,1.2683,1.2452,1.222,1.1842,1.162,1.113,1.0239,0.8875,0.8086,0.7458,0.6998,0.6718,0.6753,0.6783,0.6837,0.6766,0.6702,0.663,0.6504,0.6354,0.6364,0.6368,0.63,0.63,0.63,0.63,0.63,0.63,0.6334,0.6395,0.6463,0.646,0.6463,0.6692,0.6776,0.6607,0.6962,0.7737,0.8546,0.935,1.0703,1.2277,1.2826,1.31,1.318,1.3307,1.334,1.3373,1.3146,1.2953,1.2784,1.2623,1.2616,1.263,1.265,1.2563,1.2365,1.2472,1.2744,1.2603,1.2469,1.2315,1.2181,1.1565,1.0851,0.9912,0.8954,0.7925,1.6971,1.668,1.6333,1.6219,1.6219,1.5952,1.5825,1.5825,1.5825,1.5825,1.5825,1.5825,1.5825,1.5825,1.5825,1.5825,1.5825,1.5825,1.5825,1.5825,1.5825,1.5825,1.5825,1.5792,1.5678,1.5404,1.5237,1.5035,1.4796,1.4536,1.4442,1.4349,1.4168,1.4088,1.4088,1.4088,1.4088,1.4088,1.4088,1.4088,1.4088,1.4075,1.3988,1.368,1.358,1.3287,1.2958,1.2697,1.2536,1.2358,1.2231,1.2268,1.215,1.1545,1.0265,0.8765,0.8302,0.7809,0.7498,0.7117,0.7284,0.7302,0.6906,0.675,0.661,0.6491,0.6344,0.6313,0.6388,0.6358,0.633,0.6327,0.6323,0.63,0.63,0.6306,0.6334,0.6371,0.6392,0.6494,0.6685,0.6671,0.6555,0.6659,0.7335,0.8356,0.9169,1.0231,1.1719,1.2717,1.3033,1.3046,1.3086,1.308,1.3033,1.2886,1.2759,1.271,1.2556,1.2452,1.2472,1.2529,1.2418,1.2418,1.2632,1.2844,1.2656,1.2422,1.2214,1.2127,1.2214,1.1587,1.0289,0.961,0.8898,1.6734,1.666,1.6112,1.6032,1.6219,1.5959,1.5825,1.5825,1.5825,1.5825,1.5825,1.5825,1.5825,1.5825,1.5825,1.5825,1.5825,1.5825,1.5825,1.5825,1.5825,1.5825,1.5825,1.5825,1.5658,1.5418,1.5324,1.503,1.4683,1.4342,1.4168,1.4148,1.4168,1.4102,1.4148,1.4155,1.4088,1.4095,1.4095,1.4088,1.4082,1.4075,1.4021,1.3881,1.3561,1.322,1.3006,1.2692,1.2398,1.2331,1.2305,1.2305,1.2268,1.2231,1.1576,1.059,0.9832,0.9242,0.8922,0.8442,0.7952,0.774,0.7215,0.6733,0.6559,0.6497,0.6395,0.6317,0.6501,0.6518,0.6371,0.6412,0.6399,0.6347,0.63,0.63,0.631,0.6323,0.6337,0.6364,0.6545,0.6566,0.6491,0.6628,0.6922,0.797,0.9042,1.0136,1.1207,1.2241,1.2979,1.3032,1.2991,1.2939,1.2806,1.2639,1.2592,1.2603,1.2472,1.2358,1.2405,1.2465,1.2623,1.2677,1.2844,1.2784,1.2529,1.2288,1.2087,1.208,1.2181,1.1426,1.0335,0.9939,0.9674,1.656,1.6647,1.6024,1.6099,1.6433,1.6032,1.5825,1.5825,1.5825,1.5825,1.5825,1.5825,1.5825,1.5825,1.5825,1.5825,1.5825,1.5825,1.5825,1.5825,1.5825,1.5825,1.5825,1.5812,1.5631,1.5444,1.5211,1.4917,1.4576,1.4402,1.4275,1.4115,1.4242,1.4342,1.4269,1.4315,1.4335,1.4295,1.4188,1.4095,1.4048,1.3941,1.3806,1.3786,1.3434,1.3186,1.2946,1.279,1.2452,1.2365,1.2305,1.2305,1.2305,1.2268,1.2033,1.1744,1.1334,1.0587,0.962,0.9252,0.8783,0.8222,0.7656,0.7165,0.6627,0.6441,0.6431,0.6313,0.6484,0.6491,0.6388,0.6436,0.6399,0.6351,0.63,0.63,0.63,0.63,0.631,0.633,0.6347,0.6392,0.6443,0.6531,0.6853,0.7687,0.8805,0.9931,1.1012,1.2094,1.2665,1.2991,1.2931,1.2832,1.2645,1.2472,1.2458,1.2469,1.2412,1.2345,1.2392,1.2465,1.2576,1.2563,1.2512,1.2418,1.2291,1.2245,1.2164,1.2174,1.2154,1.1527,1.0897,1.0402,0.9843,1.6333,1.654,1.5997,1.6077,1.654,1.5997,1.5825,1.5825,1.5825,1.5825,1.5825,1.5825,1.5825,1.5825,1.5825,1.5825,1.5825,1.5825,1.5825,1.5825,1.5825,1.5825,1.5825,1.5758,1.5718,1.5484,1.5271,1.4977,1.473,1.4522,1.4342,1.4108,1.4235,1.4349,1.4389,1.4355,1.4335,1.4315,1.4175,1.4095,1.4055,1.3888,1.3814,1.3694,1.348,1.3213,1.3006,1.2918,1.2726,1.2536,1.2559,1.2552,1.2358,1.2398,1.2378,1.2197,1.2005,1.1608,1.068,1.0117,0.9518,0.9028,0.8453,0.8002,0.6971,0.6715,0.6493,0.6394,0.6522,0.6478,0.6399,0.646,0.6453,0.6385,0.63,0.63,0.6303,0.6426,0.6384,0.631,0.632,0.6313,0.6375,0.6457,0.6824,0.7493,0.8542,0.9754,1.1029,1.2228,1.2588,1.3006,1.2986,1.2919,1.2786,1.2585,1.2485,1.2345,1.2325,1.2318,1.2358,1.2358,1.2385,1.2338,1.2305,1.2305,1.2298,1.2305,1.2305,1.2251,1.2184,1.212,1.1664,1.1049,1.0184,1.6032,1.6279,1.5959,1.6012,1.6299,1.5972,1.5825,1.5825,1.5825,1.5825,1.5825,1.5825,1.5825,1.5825,1.5825,1.5825,1.5825,1.5825,1.5825,1.5825,1.5825,1.5825,1.5825,1.5818,1.5738,1.5685,1.5424,1.5157,1.491,1.4596,1.4369,1.4148,1.4249,1.4168,1.4202,1.4309,1.4262,1.4235,1.4135,1.4095,1.4075,1.4008,1.3981,1.3935,1.3761,1.3547,1.3507,1.3267,1.3026,1.277,1.2884,1.2779,1.2492,1.2536,1.2502,1.2345,1.2305,1.2042,1.1621,1.1158,1.0795,1.045,0.9804,0.8839,0.7851,0.8011,0.7613,0.6642,0.6725,0.6583,0.6521,0.6458,0.6542,0.6749,0.678,0.6776,0.6776,0.6648,0.6602,0.6384,0.6303,0.631,0.6364,0.646,0.6426,0.7008,0.8605,0.9819,1.1536,1.2684,1.2888,1.31,1.312,1.3093,1.3066,1.2866,1.2532,1.2435,1.2365,1.2331,1.2318,1.2305,1.2305,1.2305,1.2305,1.2305,1.2305,1.2305,1.2305,1.2305,1.2258,1.2164,1.17,1.0943,1.0262,1.5892,1.5985,1.5831,1.5999,1.6301,1.5959,1.5825,1.5825,1.5825,1.5825,1.5825,1.5825,1.5825,1.5825,1.5825,1.5825,1.5825,1.5825,1.5825,1.5825,1.5825,1.5825,1.5825,1.5798,1.5738,1.5598,1.5431,1.5251,1.4995,1.4663,1.4516,1.4376,1.4329,1.4502,1.4529,1.4402,1.4342,1.4275,1.4175,1.4088,1.4055,1.3888,1.3814,1.3753,1.3534,1.3394,1.334,1.3227,1.314,1.306,1.3045,1.2864,1.267,1.2643,1.2492,1.2358,1.2338,1.2325,1.2305,1.1914,1.1521,1.0697,0.997,0.9278,0.8737,0.8441,0.7939,0.7332,0.7005,0.6912,0.6469,0.6582,0.6818,0.7211,0.7446,0.7446,0.7407,0.7368,0.6991,0.6827,0.6514,0.6337,0.6405,0.648,0.6409,0.6528,0.8273,1.0008,1.1701,1.2824,1.2918,1.2966,1.2973,1.2846,1.2792,1.2639,1.2529,1.2476,1.2429,1.2351,1.2305,1.2305,1.2305,1.2305,1.2305,1.2305,1.2305,1.2305,1.2305,1.2305,1.2298,1.2258,1.1601,1.0893,1.0365,1.5825,1.5825,1.5825,1.5945,1.6099,1.5919,1.5825,1.5825,1.5825,1.5825,1.5825,1.5825,1.5825,1.5825,1.5825,1.5825,1.5825,1.5825,1.5825,1.5825,1.5825,1.5825,1.5825,1.5805,1.5698,1.5531,1.5391,1.5244,1.5001,1.4669,1.4609,1.4583,1.4496,1.4543,1.4669,1.4643,1.4516,1.4449,1.4255,1.4095,1.4055,1.3921,1.3808,1.3766,1.3641,1.3581,1.3581,1.3554,1.3467,1.3367,1.3267,1.3132,1.2965,1.2759,1.2612,1.2498,1.2425,1.2405,1.2331,1.2231,1.1959,1.136,1.1031,1.0366,0.9695,0.9113,0.9053,0.8282,0.7819,0.7408,0.715,0.7732,0.806,0.8572,0.8763,0.8777,0.8533,0.8409,0.776,0.7327,0.6943,0.6626,0.7254,0.7442,0.7764,0.7897,0.9032,1.0547,1.1802,1.2603,1.2623,1.271,1.277,1.2603,1.2378,1.2529,1.261,1.2385,1.2345,1.2331,1.2305,1.2305,1.2305,1.2305,1.2305,1.2305,1.2305,1.2305,1.2305,1.2305,1.2251,1.2171,1.2002,1.1352,1.0844,1.5825,1.5825,1.5825,1.5838,1.5865,1.5838,1.5825,1.5825,1.5825,1.5825,1.5825,1.5825,1.5825,1.5825,1.5825,1.5825,1.5825,1.5825,1.5825,1.5825,1.5825,1.5825,1.5825,1.5812,1.5751,1.5752,1.5591,1.5337,1.5089,1.475,1.475,1.473,1.4549,1.4409,1.4536,1.4529,1.4516,1.4482,1.4249,1.4115,1.4075,1.4035,1.4015,1.3988,1.3948,1.3895,1.3888,1.3888,1.3794,1.3661,1.3728,1.3547,1.3233,1.3333,1.316,1.2831,1.279,1.265,1.2378,1.2338,1.222,1.2096,1.1759,1.1646,1.1039,1.0682,1.0363,0.9397,0.9082,0.9121,0.9262,0.9394,0.9414,0.9742,0.9978,1.0049,0.9837,0.9581,0.9028,0.826,0.7487,0.7059,0.7934,0.8615,0.9131,0.9612,1.0279,1.1172,1.217,1.2603,1.2697,1.275,1.2851,1.2739,1.2659,1.2703,1.2677,1.2432,1.2305,1.2305,1.2305,1.2305,1.2305,1.2305,1.2305,1.2305,1.2305,1.2305,1.2305,1.2285,1.2104,1.2017,1.1975,1.1847,1.1289,1.5825,1.5825,1.5825,1.5825,1.5825,1.5825,1.5825,1.5825,1.5825,1.5825,1.5825,1.5825,1.5825,1.5825,1.5825,1.5825,1.5825,1.5825,1.5825,1.5825,1.5825,1.5825,1.5825,1.5825,1.5818,1.5805,1.5691,1.5605,1.5551,1.4997,1.4894,1.4894,1.4716,1.4743,1.4736,1.4683,1.4596,1.4683,1.4396,1.4088,1.4088,1.4088,1.4088,1.4088,1.4088,1.4088,1.4088,1.4088,1.4008,1.3881,1.3961,1.3728,1.3447,1.352,1.3307,1.308,1.3085,1.3026,1.2852,1.2752,1.2536,1.2482,1.2348,1.2282,1.185,1.116,1.0822,1.0489,0.9988,0.9839,0.9565,0.9536,0.9764,1.0817,1.1175,1.1323,1.1166,1.0945,1.0509,0.9532,0.8695,0.8506,0.8993,0.9847,1.0445,1.0595,1.1106,1.16,1.2474,1.2866,1.3026,1.3026,1.306,1.3013,1.2959,1.2864,1.2744,1.2563,1.2385,1.2305,1.2305,1.2305,1.2305,1.2305,1.2305,1.2305,1.2305,1.2305,1.2305,1.2245,1.2131,1.2091,1.2144,1.2058,1.1784,1.5825,1.5825,1.5825,1.5825,1.5825,1.5825,1.5825,1.5825,1.5825,1.5825,1.5825,1.5825,1.5825,1.5825,1.5825,1.5825,1.5825,1.5825,1.5825,1.5825,1.5825,1.5825,1.5825,1.5812,1.5738,1.5732,1.5658,1.5585,1.5231,1.4963,1.478,1.4713,1.4901,1.481,1.479,1.4703,1.4696,1.4663,1.4322,1.4088,1.4088,1.4088,1.4088,1.4088,1.4088,1.4088,1.4088,1.4088,1.4082,1.4021,1.3921,1.3794,1.3721,1.3641,1.346,1.3407,1.3253,1.3227,1.3113,1.2924,1.2723,1.2699,1.2458,1.2311,1.2231,1.1756,1.1602,1.1274,1.0764,1.0654,1.0556,1.0412,1.0953,1.2034,1.2145,1.2255,1.2284,1.2053,1.1387,1.046,0.986,0.986,1.0091,1.0979,1.177,1.1819,1.1895,1.2331,1.2743,1.3047,1.3287,1.328,1.3206,1.31,1.2973,1.2864,1.275,1.2643,1.2502,1.2318,1.2305,1.2305,1.2305,1.2305,1.2305,1.2305,1.2305,1.2305,1.2305,1.2305,1.2271,1.2258,1.2298,1.2164,1.2027,1.5825,1.5825,1.5825,1.5825,1.5825,1.5825,1.5825,1.5825,1.5825,1.5825,1.5825,1.5758,1.5758,1.5731,1.5778,1.5758,1.5765,1.5772,1.5805,1.5818,1.5825,1.5825,1.5825,1.5818,1.5732,1.5545,1.5424,1.5304,1.4676,1.4623,1.4462,1.4335,1.472,1.4669,1.4636,1.4669,1.4689,1.4543,1.4295,1.4115,1.4088,1.4088,1.4088,1.4088,1.4088,1.4088,1.4088,1.4088,1.4088,1.4075,1.4062,1.4062,1.4068,1.4082,1.3895,1.362,1.3367,1.3307,1.3233,1.3038,1.3006,1.3019,1.2685,1.2458,1.2354,1.2271,1.2231,1.2283,1.2018,1.2144,1.2192,1.2337,1.2512,1.289,1.3008,1.3079,1.3181,1.2766,1.1996,1.1283,1.0636,1.0581,1.114,1.1984,1.2531,1.2641,1.2666,1.2869,1.3187,1.326,1.3454,1.3447,1.334,1.3146,1.3052,1.2938,1.277,1.267,1.2445,1.2305,1.2305,1.2305,1.2305,1.2305,1.2305,1.2305,1.2305,1.2305,1.2305,1.2305,1.2305,1.2305,1.2305,1.2305,1.2155,1.5825,1.5825,1.5825,1.5825,1.5825,1.5825,1.5825,1.5825,1.5825,1.5825,1.5771,1.5605,1.5578,1.5511,1.5311,1.5391,1.5458,1.5558,1.5678,1.5732,1.5778,1.5812,1.5818,1.5805,1.5752,1.5625,1.5451,1.5197,1.5037,1.477,1.4355,1.4222,1.4476,1.4429,1.4422,1.4496,1.4516,1.4456,1.4208,1.4122,1.4088,1.4088,1.4075,1.4055,1.4048,1.4041,1.4041,1.4028,1.4028,1.4068,1.4075,1.4082,1.4088,1.4075,1.3961,1.3646,1.352,1.348,1.3427,1.324,1.318,1.3293,1.3093,1.3013,1.2899,1.2812,1.2819,1.2859,1.2879,1.2832,1.2846,1.3013,1.3186,1.3307,1.3367,1.3353,1.3345,1.3034,1.237,1.2255,1.1643,1.1621,1.2176,1.2498,1.3002,1.324,1.338,1.3494,1.3534,1.3581,1.3587,1.3574,1.3367,1.3146,1.312,1.3026,1.2864,1.2683,1.2452,1.2305,1.2305,1.2305,1.2305,1.2305,1.2305,1.2305,1.2305,1.2305,1.2305,1.2305,1.2305,1.2305,1.2305,1.2305,1.2305,1.5825,1.5825,1.5825,1.5825,1.5825,1.5825,1.5825,1.5825,1.5825,1.5825,1.5758,1.5658,1.5504,1.5424,1.5364,1.5331,1.5231,1.5384,1.5504,1.5578,1.5658,1.5745,1.5765,1.5698,1.5538,1.5438,1.5211,1.4877,1.4843,1.4616,1.4215,1.4122,1.4302,1.4222,1.4195,1.4269,1.4322,1.4282,1.4188,1.4108,1.4075,1.4062,1.4028,1.3921,1.3915,1.3915,1.3888,1.3848,1.3808,1.3848,1.3848,1.3814,1.3895,1.3988,1.3948,1.3666,1.3593,1.3493,1.336,1.3146,1.3293,1.338,1.3307,1.3287,1.328,1.3233,1.322,1.3227,1.322,1.318,1.324,1.3313,1.3433,1.356,1.348,1.344,1.3287,1.3139,1.3106,1.3134,1.3008,1.2863,1.3014,1.3253,1.3407,1.35,1.3641,1.3808,1.3781,1.3714,1.3653,1.3626,1.3387,1.3113,1.31,1.3006,1.2719,1.2549,1.2418,1.2311,1.2311,1.2305,1.2305,1.2305,1.2305,1.2305,1.2305,1.2305,1.2305,1.2305,1.2305,1.2305,1.2305,1.2305,1.2305,1.5825,1.5825,1.5825,1.5825,1.5825,1.5825,1.5825,1.5825,1.5825,1.5825,1.5778,1.5792,1.5598,1.5431,1.5384,1.5297,1.5177,1.5204,1.5291,1.5371,1.5364,1.5458,1.5524,1.5491,1.5297,1.497,1.4669,1.4462,1.4188,1.4108,1.4155,1.4082,1.4048,1.4035,1.4108,1.3955,1.3968,1.4021,1.3961,1.3895,1.3968,1.3981,1.3901,1.3661,1.3573,1.3567,1.3507,1.3407,1.3287,1.338,1.3413,1.338,1.3601,1.3854,1.3801,1.3654,1.3473,1.3387,1.32,1.2991,1.3186,1.326,1.3173,1.3414,1.354,1.338,1.3293,1.3467,1.3487,1.3487,1.3534,1.3574,1.3674,1.3646,1.3573,1.3627,1.3614,1.3454,1.332,1.332,1.3287,1.3193,1.3267,1.3413,1.3587,1.366,1.3834,1.4028,1.3975,1.3841,1.3801,1.37,1.3407,1.3113,1.2991,1.2812,1.2498,1.2325,1.2311,1.2311,1.2305,1.2305,1.2305,1.2305,1.2305,1.2305,1.2305,1.2305,1.2305,1.2305,1.2305,1.2305,1.2305,1.2305,1.2305,1.5825,1.5825,1.5825,1.5825,1.5825,1.5825,1.5825,1.5825,1.5825,1.5812,1.5785,1.5605,1.5524,1.5543,1.5149,1.5062,1.5327,1.4981,1.5044,1.5144,1.5164,1.5137,1.5223,1.5273,1.5145,1.4823,1.4489,1.4173,1.3941,1.3981,1.4075,1.4055,1.3955,1.3908,1.4048,1.3808,1.3627,1.3781,1.3567,1.3581,1.3674,1.352,1.336,1.3313,1.3313,1.3313,1.3273,1.3247,1.3227,1.328,1.326,1.3267,1.332,1.3567,1.346,1.3133,1.3267,1.3193,1.3018,1.2884,1.3085,1.3373,1.348,1.3721,1.3734,1.3414,1.3347,1.3594,1.3728,1.3728,1.3761,1.3808,1.3828,1.3774,1.368,1.3828,1.3928,1.3728,1.3541,1.3447,1.3427,1.3447,1.3507,1.3593,1.372,1.3874,1.3975,1.4062,1.3975,1.3874,1.3888,1.3781,1.3427,1.3146,1.2933,1.2679,1.2398,1.2305,1.2311,1.2311,1.2305,1.2305,1.2305,1.2305,1.2305,1.2305,1.2305,1.2305,1.2305,1.2305,1.2305,1.2305,1.2305,1.2305,1.2305,1.5825,1.5825,1.5825,1.5825,1.5825,1.5825,1.5825,1.5805,1.5698,1.5638,1.5651,1.5638,1.579,1.5904,1.5338,1.5269,1.5586,1.4852,1.4774,1.4856,1.5051,1.491,1.4997,1.529,1.5528,1.5337,1.5021,1.4615,1.3924,1.3955,1.4075,1.4055,1.3901,1.3874,1.4008,1.3654,1.34,1.358,1.3233,1.3133,1.3287,1.3193,1.3093,1.3086,1.3006,1.3006,1.2946,1.2919,1.2899,1.2959,1.3025,1.312,1.324,1.3473,1.348,1.334,1.33,1.3213,1.2945,1.2844,1.2958,1.3206,1.326,1.334,1.3467,1.3213,1.3387,1.3607,1.3674,1.3646,1.3888,1.3981,1.3981,1.3948,1.3901,1.3928,1.3941,1.3841,1.3661,1.3554,1.3586,1.3814,1.3854,1.3854,1.3961,1.3968,1.4075,1.4088,1.4001,1.382,1.3895,1.3781,1.3387,1.31,1.2904,1.265,1.2358,1.2305,1.2305,1.2305,1.2305,1.2305,1.2305,1.2305,1.2305,1.2305,1.2305,1.2305,1.2305,1.2305,1.2305,1.2305,1.2305,1.2305,1.2305,1.5825,1.5825,1.5825,1.5825,1.5825,1.5825,1.5825,1.5778,1.5531,1.5411,1.5517,1.5778,1.6444,1.6528,1.6196,1.6286,1.6197,1.5769,1.5261,1.5137,1.4929,1.5057,1.5345,1.567,1.5704,1.5637,1.5293,1.4643,1.3928,1.3981,1.3988,1.4048,1.4035,1.3995,1.3955,1.3714,1.3413,1.3313,1.3073,1.279,1.2851,1.2933,1.2891,1.2797,1.273,1.273,1.2643,1.2576,1.2498,1.265,1.2804,1.2951,1.3153,1.342,1.3473,1.3427,1.346,1.3293,1.3018,1.2837,1.2871,1.2898,1.2811,1.2884,1.3092,1.318,1.3393,1.352,1.3547,1.366,1.3901,1.4088,1.4088,1.4048,1.4001,1.3928,1.3895,1.3881,1.3726,1.3606,1.3841,1.4048,1.4068,1.4075,1.4082,1.4082,1.4082,1.4088,1.4035,1.3861,1.374,1.3587,1.326,1.3038,1.2884,1.2596,1.2305,1.2305,1.2305,1.2305,1.2305,1.2305,1.2305,1.2305,1.2305,1.2305,1.2305,1.2305,1.2305,1.2305,1.2305,1.2305,1.2305,1.2305,1.2305,1.5825,1.5825,1.5825,1.5825,1.5825,1.5825,1.5825,1.5785,1.5558,1.5398,1.567,1.6183,1.6743,1.7169,1.6692,1.6938,1.7861,1.7035,1.6988,1.7083,1.5755,1.5528,1.5787,1.6244,1.5749,1.5524,1.5223,1.4282,1.3908,1.3828,1.3909,1.4195,1.3554,1.3614,1.4011,1.3628,1.3126,1.308,1.2826,1.2489,1.2489,1.2543,1.2445,1.2398,1.2392,1.2385,1.2358,1.2338,1.2338,1.2469,1.2643,1.279,1.3065,1.3333,1.344,1.3547,1.3586,1.348,1.3213,1.3126,1.3169,1.2985,1.297,1.2946,1.3015,1.2918,1.3139,1.3387,1.3427,1.35,1.3728,1.4001,1.4082,1.3975,1.3901,1.3774,1.3646,1.3693,1.3693,1.376,1.3968,1.4068,1.4082,1.4082,1.4082,1.4075,1.4035,1.4028,1.3968,1.378,1.3586,1.3387,1.3106,1.3113,1.3046,1.2559,1.2305,1.2305,1.2305,1.2305,1.2305,1.2305,1.2305,1.2305,1.2305,1.2305,1.2305,1.2305,1.2305,1.2305,1.2305,1.2305,1.2305,1.2305,1.2305]}]]